<?xml version="1.0" encoding="UTF-8" standalone="no" ?>
<gpx xmlns="http://www.topografix.com/GPX/1/1" xmlns:xsi="http://www.w3.org/2001/XMLSchema-instance" xsi:schemaLocation="http://www.topografix.com/GPX/1/1 http://www.topografix.com/GPX/1/1/gpx.xsd" version="1.1" creator="VisuGPX - https://www.visugpx.com">
  <metadata>
    <name>La bâtie la batie</name>
    <desc><![CDATA[Fred,Raymond,Christian on a fait ce tour à l'envers ]]></desc>
  </metadata>
  <trk>
    <name><![CDATA[Parcours du 2020-09-30 14:19]]></name>
    <trkseg>
      <trkpt lat="44.55366" lon="6.20663">
        <ele>845.7</ele>
        <time>2020-09-30T15:11:46.000Z</time>
      </trkpt>
      <trkpt lat="44.55361" lon="6.20662">
        <ele>845.8</ele>
        <time>2020-09-30T15:11:45.000Z</time>
      </trkpt>
      <trkpt lat="44.55356" lon="6.20662">
        <ele>844.2</ele>
        <time>2020-09-30T15:11:43.000Z</time>
      </trkpt>
      <trkpt lat="44.5535" lon="6.2066">
        <ele>843.3</ele>
        <time>2020-09-30T15:11:41.000Z</time>
      </trkpt>
      <trkpt lat="44.55341" lon="6.20656">
        <ele>840.9</ele>
        <time>2020-09-30T15:11:38.000Z</time>
      </trkpt>
      <trkpt lat="44.55331" lon="6.20655">
        <ele>841.2</ele>
        <time>2020-09-30T15:11:34.000Z</time>
      </trkpt>
      <trkpt lat="44.55322" lon="6.20652">
        <ele>840.9</ele>
        <time>2020-09-30T15:11:29.737Z</time>
      </trkpt>
      <trkpt lat="44.55312" lon="6.2065">
        <ele>841.6</ele>
        <time>2020-09-30T15:11:27.000Z</time>
      </trkpt>
      <trkpt lat="44.553" lon="6.20649">
        <ele>839.7</ele>
        <time>2020-09-30T15:11:23.000Z</time>
      </trkpt>
      <trkpt lat="44.55288" lon="6.20652">
        <ele>840.4</ele>
        <time>2020-09-30T15:11:19.000Z</time>
      </trkpt>
      <trkpt lat="44.55278" lon="6.20657">
        <ele>839.2</ele>
        <time>2020-09-30T15:11:16.000Z</time>
      </trkpt>
      <trkpt lat="44.55263" lon="6.20665">
        <ele>839.8</ele>
        <time>2020-09-30T15:11:12.000Z</time>
      </trkpt>
      <trkpt lat="44.55249" lon="6.20672">
        <ele>840.1</ele>
        <time>2020-09-30T15:11:08.000Z</time>
      </trkpt>
      <trkpt lat="44.55237" lon="6.20686">
        <ele>841.8</ele>
        <time>2020-09-30T15:11:01.000Z</time>
      </trkpt>
      <trkpt lat="44.55233" lon="6.20693">
        <ele>842.1</ele>
        <time>2020-09-30T15:10:57.000Z</time>
      </trkpt>
      <trkpt lat="44.5522" lon="6.20704">
        <ele>839.1</ele>
        <time>2020-09-30T15:10:53.000Z</time>
      </trkpt>
      <trkpt lat="44.55206" lon="6.20711">
        <ele>838.5</ele>
        <time>2020-09-30T15:10:50.000Z</time>
      </trkpt>
      <trkpt lat="44.55195" lon="6.20715">
        <ele>838.1</ele>
        <time>2020-09-30T15:10:47.000Z</time>
      </trkpt>
      <trkpt lat="44.55178" lon="6.20718">
        <ele>839.6</ele>
        <time>2020-09-30T15:10:43.000Z</time>
      </trkpt>
      <trkpt lat="44.55166" lon="6.20717">
        <ele>838.8</ele>
        <time>2020-09-30T15:10:40.000Z</time>
      </trkpt>
      <trkpt lat="44.55153" lon="6.20717">
        <ele>836.4</ele>
        <time>2020-09-30T15:10:36.036Z</time>
      </trkpt>
      <trkpt lat="44.55141" lon="6.20719">
        <ele>833.3</ele>
        <time>2020-09-30T15:10:33.000Z</time>
      </trkpt>
      <trkpt lat="44.55128" lon="6.20722">
        <ele>832.4</ele>
        <time>2020-09-30T15:10:30.000Z</time>
      </trkpt>
      <trkpt lat="44.55111" lon="6.20724">
        <ele>831.2</ele>
        <time>2020-09-30T15:10:26.000Z</time>
      </trkpt>
      <trkpt lat="44.55102" lon="6.20728">
        <ele>830.2</ele>
        <time>2020-09-30T15:10:23.000Z</time>
      </trkpt>
      <trkpt lat="44.55093" lon="6.20741">
        <ele>832.9</ele>
        <time>2020-09-30T15:10:20.000Z</time>
      </trkpt>
      <trkpt lat="44.5508" lon="6.2076">
        <ele>831.9</ele>
        <time>2020-09-30T15:10:16.000Z</time>
      </trkpt>
      <trkpt lat="44.5507" lon="6.20773">
        <ele>830</ele>
        <time>2020-09-30T15:10:13.000Z</time>
      </trkpt>
      <trkpt lat="44.55059" lon="6.20779">
        <ele>829.6</ele>
        <time>2020-09-30T15:10:09.000Z</time>
      </trkpt>
      <trkpt lat="44.55047" lon="6.20783">
        <ele>831.5</ele>
        <time>2020-09-30T15:10:06.000Z</time>
      </trkpt>
      <trkpt lat="44.55029" lon="6.20793">
        <ele>832.9</ele>
        <time>2020-09-30T15:10:02.000Z</time>
      </trkpt>
      <trkpt lat="44.55013" lon="6.20805">
        <ele>835</ele>
        <time>2020-09-30T15:09:58.000Z</time>
      </trkpt>
      <trkpt lat="44.54996" lon="6.20825">
        <ele>837.6</ele>
        <time>2020-09-30T15:09:54.000Z</time>
      </trkpt>
      <trkpt lat="44.54978" lon="6.20842">
        <ele>837.9</ele>
        <time>2020-09-30T15:09:50.000Z</time>
      </trkpt>
      <trkpt lat="44.54964" lon="6.20842">
        <ele>837.8</ele>
        <time>2020-09-30T15:09:46.068Z</time>
      </trkpt>
      <trkpt lat="44.54948" lon="6.20842">
        <ele>835.3</ele>
        <time>2020-09-30T15:09:43.000Z</time>
      </trkpt>
      <trkpt lat="44.54932" lon="6.2084">
        <ele>834.7</ele>
        <time>2020-09-30T15:09:39.000Z</time>
      </trkpt>
      <trkpt lat="44.54914" lon="6.20844">
        <ele>834.5</ele>
        <time>2020-09-30T15:09:35.000Z</time>
      </trkpt>
      <trkpt lat="44.54891" lon="6.20862">
        <ele>834.5</ele>
        <time>2020-09-30T15:09:31.000Z</time>
      </trkpt>
      <trkpt lat="44.54884" lon="6.2087">
        <ele>836.6</ele>
        <time>2020-09-30T15:09:27.000Z</time>
      </trkpt>
      <trkpt lat="44.54868" lon="6.20868">
        <ele>836.5</ele>
        <time>2020-09-30T15:09:23.000Z</time>
      </trkpt>
      <trkpt lat="44.54854" lon="6.20862">
        <ele>837.8</ele>
        <time>2020-09-30T15:09:19.000Z</time>
      </trkpt>
      <trkpt lat="44.54838" lon="6.20855">
        <ele>834</ele>
        <time>2020-09-30T15:09:15.000Z</time>
      </trkpt>
      <trkpt lat="44.54825" lon="6.20851">
        <ele>832.1</ele>
        <time>2020-09-30T15:09:11.000Z</time>
      </trkpt>
      <trkpt lat="44.54815" lon="6.2085">
        <ele>828.5</ele>
        <time>2020-09-30T15:09:07.359Z</time>
      </trkpt>
      <trkpt lat="44.54804" lon="6.20851">
        <ele>830.6</ele>
        <time>2020-09-30T15:09:04.184Z</time>
      </trkpt>
      <trkpt lat="44.54792" lon="6.20857">
        <ele>830.3</ele>
        <time>2020-09-30T15:09:00.699Z</time>
      </trkpt>
      <trkpt lat="44.54781" lon="6.20864">
        <ele>831.6</ele>
        <time>2020-09-30T15:08:58.000Z</time>
      </trkpt>
      <trkpt lat="44.54767" lon="6.20873">
        <ele>830.6</ele>
        <time>2020-09-30T15:08:54.000Z</time>
      </trkpt>
      <trkpt lat="44.54758" lon="6.20884">
        <ele>831.1</ele>
        <time>2020-09-30T15:08:51.000Z</time>
      </trkpt>
      <trkpt lat="44.54744" lon="6.20893">
        <ele>832.2</ele>
        <time>2020-09-30T15:08:47.000Z</time>
      </trkpt>
      <trkpt lat="44.54734" lon="6.20895">
        <ele>831.2</ele>
        <time>2020-09-30T15:08:44.000Z</time>
      </trkpt>
      <trkpt lat="44.5472" lon="6.20894">
        <ele>830.1</ele>
        <time>2020-09-30T15:08:40.000Z</time>
      </trkpt>
      <trkpt lat="44.54707" lon="6.20889">
        <ele>832.8</ele>
        <time>2020-09-30T15:08:36.000Z</time>
      </trkpt>
      <trkpt lat="44.54694" lon="6.20886">
        <ele>832.9</ele>
        <time>2020-09-30T15:08:32.000Z</time>
      </trkpt>
      <trkpt lat="44.54678" lon="6.20886">
        <ele>832.5</ele>
        <time>2020-09-30T15:08:28.000Z</time>
      </trkpt>
      <trkpt lat="44.54664" lon="6.20892">
        <ele>829.1</ele>
        <time>2020-09-30T15:08:25.000Z</time>
      </trkpt>
      <trkpt lat="44.54651" lon="6.20896">
        <ele>827.2</ele>
        <time>2020-09-30T15:08:22.000Z</time>
      </trkpt>
      <trkpt lat="44.54637" lon="6.209">
        <ele>821.9</ele>
        <time>2020-09-30T15:08:18.000Z</time>
      </trkpt>
      <trkpt lat="44.54625" lon="6.20903">
        <ele>823.6</ele>
        <time>2020-09-30T15:08:13.797Z</time>
      </trkpt>
      <trkpt lat="44.54621" lon="6.20899">
        <ele>825.5</ele>
        <time>2020-09-30T15:08:08.000Z</time>
      </trkpt>
      <trkpt lat="44.54616" lon="6.20901">
        <ele>830.6</ele>
        <time>2020-09-30T15:08:03.910Z</time>
      </trkpt>
      <trkpt lat="44.5461" lon="6.20901">
        <ele>838.7</ele>
        <time>2020-09-30T15:07:16.000Z</time>
      </trkpt>
      <trkpt lat="44.54615" lon="6.20892">
        <ele>833.8</ele>
        <time>2020-09-30T15:06:31.000Z</time>
      </trkpt>
      <trkpt lat="44.5461" lon="6.20898">
        <ele>828.2</ele>
        <time>2020-09-30T15:06:20.000Z</time>
      </trkpt>
      <trkpt lat="44.54616" lon="6.20896">
        <ele>820.5</ele>
        <time>2020-09-30T15:06:12.000Z</time>
      </trkpt>
      <trkpt lat="44.54621" lon="6.20897">
        <ele>822.7</ele>
        <time>2020-09-30T15:05:58.000Z</time>
      </trkpt>
      <trkpt lat="44.54616" lon="6.20898">
        <ele>823.4</ele>
        <time>2020-09-30T15:05:55.000Z</time>
      </trkpt>
      <trkpt lat="44.54601" lon="6.20896">
        <ele>825.6</ele>
        <time>2020-09-30T15:05:51.000Z</time>
      </trkpt>
      <trkpt lat="44.54586" lon="6.209">
        <ele>826.6</ele>
        <time>2020-09-30T15:05:47.068Z</time>
      </trkpt>
      <trkpt lat="44.54572" lon="6.20902">
        <ele>826.9</ele>
        <time>2020-09-30T15:05:44.000Z</time>
      </trkpt>
      <trkpt lat="44.54563" lon="6.20909">
        <ele>825.5</ele>
        <time>2020-09-30T15:05:40.000Z</time>
      </trkpt>
      <trkpt lat="44.54558" lon="6.20921">
        <ele>827.9</ele>
        <time>2020-09-30T15:05:35.803Z</time>
      </trkpt>
      <trkpt lat="44.54557" lon="6.20936">
        <ele>828.1</ele>
        <time>2020-09-30T15:05:33.000Z</time>
      </trkpt>
      <trkpt lat="44.54559" lon="6.20945">
        <ele>829.4</ele>
        <time>2020-09-30T15:05:30.000Z</time>
      </trkpt>
      <trkpt lat="44.54552" lon="6.2095">
        <ele>830.7</ele>
        <time>2020-09-30T15:05:25.698Z</time>
      </trkpt>
      <trkpt lat="44.54548" lon="6.20952">
        <ele>834.5</ele>
        <time>2020-09-30T15:05:23.000Z</time>
      </trkpt>
      <trkpt lat="44.54544" lon="6.20956">
        <ele>835.4</ele>
        <time>2020-09-30T15:05:13.000Z</time>
      </trkpt>
      <trkpt lat="44.54528" lon="6.20948">
        <ele>839.4</ele>
        <time>2020-09-30T15:05:09.000Z</time>
      </trkpt>
      <trkpt lat="44.54515" lon="6.20956">
        <ele>839.1</ele>
        <time>2020-09-30T15:05:05.000Z</time>
      </trkpt>
      <trkpt lat="44.54521" lon="6.20996">
        <ele>847.4</ele>
        <time>2020-09-30T15:05:01.000Z</time>
      </trkpt>
      <trkpt lat="44.54522" lon="6.21045">
        <ele>851.8</ele>
        <time>2020-09-30T15:04:57.000Z</time>
      </trkpt>
      <trkpt lat="44.5453" lon="6.21097">
        <ele>859</ele>
        <time>2020-09-30T15:04:53.000Z</time>
      </trkpt>
      <trkpt lat="44.5454" lon="6.21137">
        <ele>860.3</ele>
        <time>2020-09-30T15:04:50.000Z</time>
      </trkpt>
      <trkpt lat="44.54548" lon="6.21181">
        <ele>861.1</ele>
        <time>2020-09-30T15:04:47.000Z</time>
      </trkpt>
      <trkpt lat="44.54554" lon="6.2124">
        <ele>862.4</ele>
        <time>2020-09-30T15:04:43.000Z</time>
      </trkpt>
      <trkpt lat="44.54573" lon="6.21275">
        <ele>862.4</ele>
        <time>2020-09-30T15:04:40.000Z</time>
      </trkpt>
      <trkpt lat="44.54579" lon="6.21292">
        <ele>867</ele>
        <time>2020-09-30T15:04:35.570Z</time>
      </trkpt>
      <trkpt lat="44.54576" lon="6.213">
        <ele>869.1</ele>
        <time>2020-09-30T15:04:33.000Z</time>
      </trkpt>
      <trkpt lat="44.54581" lon="6.21305">
        <ele>874.4</ele>
        <time>2020-09-30T15:01:09.912Z</time>
      </trkpt>
      <trkpt lat="44.54588" lon="6.21307">
        <ele>876.1</ele>
        <time>2020-09-30T15:00:19.000Z</time>
      </trkpt>
      <trkpt lat="44.54592" lon="6.21311">
        <ele>877.9</ele>
        <time>2020-09-30T15:00:09.000Z</time>
      </trkpt>
      <trkpt lat="44.54595" lon="6.21329">
        <ele>878.3</ele>
        <time>2020-09-30T15:00:05.000Z</time>
      </trkpt>
      <trkpt lat="44.546" lon="6.21364">
        <ele>879.1</ele>
        <time>2020-09-30T15:00:01.000Z</time>
      </trkpt>
      <trkpt lat="44.54608" lon="6.21398">
        <ele>881.4</ele>
        <time>2020-09-30T14:59:57.000Z</time>
      </trkpt>
      <trkpt lat="44.54609" lon="6.21422">
        <ele>881.5</ele>
        <time>2020-09-30T14:59:54.000Z</time>
      </trkpt>
      <trkpt lat="44.54618" lon="6.21455">
        <ele>881.7</ele>
        <time>2020-09-30T14:59:50.000Z</time>
      </trkpt>
      <trkpt lat="44.54626" lon="6.21494">
        <ele>887</ele>
        <time>2020-09-30T14:59:46.000Z</time>
      </trkpt>
      <trkpt lat="44.54627" lon="6.21531">
        <ele>890.2</ele>
        <time>2020-09-30T14:59:42.000Z</time>
      </trkpt>
      <trkpt lat="44.54626" lon="6.21564">
        <ele>890.8</ele>
        <time>2020-09-30T14:59:39.000Z</time>
      </trkpt>
      <trkpt lat="44.54633" lon="6.21613">
        <ele>892.9</ele>
        <time>2020-09-30T14:59:35.000Z</time>
      </trkpt>
      <trkpt lat="44.5464" lon="6.21648">
        <ele>898.4</ele>
        <time>2020-09-30T14:59:32.000Z</time>
      </trkpt>
      <trkpt lat="44.54645" lon="6.21693">
        <ele>903.2</ele>
        <time>2020-09-30T14:59:28.000Z</time>
      </trkpt>
      <trkpt lat="44.54655" lon="6.21735">
        <ele>907</ele>
        <time>2020-09-30T14:59:24.000Z</time>
      </trkpt>
      <trkpt lat="44.54663" lon="6.21767">
        <ele>911.7</ele>
        <time>2020-09-30T14:59:20.000Z</time>
      </trkpt>
      <trkpt lat="44.54673" lon="6.21796">
        <ele>916.2</ele>
        <time>2020-09-30T14:59:16.000Z</time>
      </trkpt>
      <trkpt lat="44.54682" lon="6.21825">
        <ele>916.4</ele>
        <time>2020-09-30T14:59:13.000Z</time>
      </trkpt>
      <trkpt lat="44.54696" lon="6.21866">
        <ele>921.2</ele>
        <time>2020-09-30T14:59:09.000Z</time>
      </trkpt>
      <trkpt lat="44.54705" lon="6.21897">
        <ele>924.1</ele>
        <time>2020-09-30T14:59:06.000Z</time>
      </trkpt>
      <trkpt lat="44.54705" lon="6.21925">
        <ele>926.1</ele>
        <time>2020-09-30T14:59:03.000Z</time>
      </trkpt>
      <trkpt lat="44.54704" lon="6.21957">
        <ele>929.2</ele>
        <time>2020-09-30T14:58:59.000Z</time>
      </trkpt>
      <trkpt lat="44.54697" lon="6.21977">
        <ele>934.3</ele>
        <time>2020-09-30T14:58:56.000Z</time>
      </trkpt>
      <trkpt lat="44.54682" lon="6.22001">
        <ele>934.7</ele>
        <time>2020-09-30T14:58:52.000Z</time>
      </trkpt>
      <trkpt lat="44.54667" lon="6.22024">
        <ele>936.1</ele>
        <time>2020-09-30T14:58:47.762Z</time>
      </trkpt>
      <trkpt lat="44.54657" lon="6.22039">
        <ele>936.9</ele>
        <time>2020-09-30T14:58:45.000Z</time>
      </trkpt>
      <trkpt lat="44.5465" lon="6.22059">
        <ele>940.2</ele>
        <time>2020-09-30T14:58:41.000Z</time>
      </trkpt>
      <trkpt lat="44.54637" lon="6.2207">
        <ele>937.7</ele>
        <time>2020-09-30T14:58:37.000Z</time>
      </trkpt>
      <trkpt lat="44.5462" lon="6.22069">
        <ele>936.3</ele>
        <time>2020-09-30T14:58:34.000Z</time>
      </trkpt>
      <trkpt lat="44.54602" lon="6.22072">
        <ele>936.9</ele>
        <time>2020-09-30T14:58:31.000Z</time>
      </trkpt>
      <trkpt lat="44.5458" lon="6.22092">
        <ele>938.2</ele>
        <time>2020-09-30T14:58:27.000Z</time>
      </trkpt>
      <trkpt lat="44.54565" lon="6.22116">
        <ele>938.4</ele>
        <time>2020-09-30T14:58:24.000Z</time>
      </trkpt>
      <trkpt lat="44.54541" lon="6.22138">
        <ele>937.9</ele>
        <time>2020-09-30T14:58:20.000Z</time>
      </trkpt>
      <trkpt lat="44.54527" lon="6.22159">
        <ele>938.5</ele>
        <time>2020-09-30T14:58:17.000Z</time>
      </trkpt>
      <trkpt lat="44.54518" lon="6.22186">
        <ele>938.7</ele>
        <time>2020-09-30T14:58:14.000Z</time>
      </trkpt>
      <trkpt lat="44.54503" lon="6.22215">
        <ele>941.1</ele>
        <time>2020-09-30T14:58:11.000Z</time>
      </trkpt>
      <trkpt lat="44.54468" lon="6.2223">
        <ele>942</ele>
        <time>2020-09-30T14:58:07.000Z</time>
      </trkpt>
      <trkpt lat="44.54433" lon="6.22237">
        <ele>942.5</ele>
        <time>2020-09-30T14:58:03.000Z</time>
      </trkpt>
      <trkpt lat="44.54413" lon="6.22236">
        <ele>944.7</ele>
        <time>2020-09-30T14:57:59.046Z</time>
      </trkpt>
      <trkpt lat="44.54399" lon="6.22238">
        <ele>942.8</ele>
        <time>2020-09-30T14:57:56.000Z</time>
      </trkpt>
      <trkpt lat="44.54392" lon="6.22244">
        <ele>940.2</ele>
        <time>2020-09-30T14:57:52.388Z</time>
      </trkpt>
      <trkpt lat="44.54385" lon="6.22258">
        <ele>940.1</ele>
        <time>2020-09-30T14:57:49.202Z</time>
      </trkpt>
      <trkpt lat="44.54376" lon="6.22277">
        <ele>941.6</ele>
        <time>2020-09-30T14:57:46.000Z</time>
      </trkpt>
      <trkpt lat="44.54365" lon="6.2229">
        <ele>942</ele>
        <time>2020-09-30T14:57:43.000Z</time>
      </trkpt>
      <trkpt lat="44.54324" lon="6.22289">
        <ele>946.8</ele>
        <time>2020-09-30T14:57:35.055Z</time>
      </trkpt>
      <trkpt lat="44.54316" lon="6.22289">
        <ele>944.3</ele>
        <time>2020-09-30T14:57:31.491Z</time>
      </trkpt>
      <trkpt lat="44.54312" lon="6.22282">
        <ele>941.5</ele>
        <time>2020-09-30T14:57:29.000Z</time>
      </trkpt>
      <trkpt lat="44.54305" lon="6.22279">
        <ele>945.4</ele>
        <time>2020-09-30T14:57:19.000Z</time>
      </trkpt>
      <trkpt lat="44.5431" lon="6.2228">
        <ele>945.6</ele>
        <time>2020-09-30T14:56:53.000Z</time>
      </trkpt>
      <trkpt lat="44.54303" lon="6.22282">
        <ele>942.6</ele>
        <time>2020-09-30T14:56:48.972Z</time>
      </trkpt>
      <trkpt lat="44.54295" lon="6.22282">
        <ele>942.2</ele>
        <time>2020-09-30T14:56:46.000Z</time>
      </trkpt>
      <trkpt lat="44.54285" lon="6.22283">
        <ele>941.4</ele>
        <time>2020-09-30T14:56:43.000Z</time>
      </trkpt>
      <trkpt lat="44.54275" lon="6.22284">
        <ele>942.5</ele>
        <time>2020-09-30T14:56:40.000Z</time>
      </trkpt>
      <trkpt lat="44.54259" lon="6.22283">
        <ele>942.7</ele>
        <time>2020-09-30T14:56:36.000Z</time>
      </trkpt>
      <trkpt lat="44.54244" lon="6.2229">
        <ele>945.5</ele>
        <time>2020-09-30T14:56:32.000Z</time>
      </trkpt>
      <trkpt lat="44.54234" lon="6.22294">
        <ele>943.6</ele>
        <time>2020-09-30T14:56:27.722Z</time>
      </trkpt>
      <trkpt lat="44.54226" lon="6.22298">
        <ele>944.1</ele>
        <time>2020-09-30T14:56:25.000Z</time>
      </trkpt>
      <trkpt lat="44.54212" lon="6.22298">
        <ele>943.5</ele>
        <time>2020-09-30T14:56:21.000Z</time>
      </trkpt>
      <trkpt lat="44.54199" lon="6.22289">
        <ele>942.2</ele>
        <time>2020-09-30T14:56:17.000Z</time>
      </trkpt>
      <trkpt lat="44.5419" lon="6.22276">
        <ele>942.3</ele>
        <time>2020-09-30T14:56:13.000Z</time>
      </trkpt>
      <trkpt lat="44.54182" lon="6.22263">
        <ele>941.9</ele>
        <time>2020-09-30T14:56:09.000Z</time>
      </trkpt>
      <trkpt lat="44.54177" lon="6.22252">
        <ele>939.3</ele>
        <time>2020-09-30T14:56:06.000Z</time>
      </trkpt>
      <trkpt lat="44.54172" lon="6.22242">
        <ele>939.4</ele>
        <time>2020-09-30T14:56:02.397Z</time>
      </trkpt>
      <trkpt lat="44.54161" lon="6.2224">
        <ele>938.6</ele>
        <time>2020-09-30T14:55:58.780Z</time>
      </trkpt>
      <trkpt lat="44.54147" lon="6.22237">
        <ele>937.5</ele>
        <time>2020-09-30T14:55:56.000Z</time>
      </trkpt>
      <trkpt lat="44.54141" lon="6.22234">
        <ele>940.4</ele>
        <time>2020-09-30T14:55:52.387Z</time>
      </trkpt>
      <trkpt lat="44.54126" lon="6.22232">
        <ele>940.4</ele>
        <time>2020-09-30T14:55:49.000Z</time>
      </trkpt>
      <trkpt lat="44.54106" lon="6.22236">
        <ele>937.8</ele>
        <time>2020-09-30T14:55:45.000Z</time>
      </trkpt>
      <trkpt lat="44.54095" lon="6.22248">
        <ele>939.1</ele>
        <time>2020-09-30T14:55:41.000Z</time>
      </trkpt>
      <trkpt lat="44.54085" lon="6.22244">
        <ele>939.7</ele>
        <time>2020-09-30T14:55:36.660Z</time>
      </trkpt>
      <trkpt lat="44.54083" lon="6.22227">
        <ele>941.5</ele>
        <time>2020-09-30T14:55:34.000Z</time>
      </trkpt>
      <trkpt lat="44.54074" lon="6.22214">
        <ele>944.8</ele>
        <time>2020-09-30T14:55:31.000Z</time>
      </trkpt>
      <trkpt lat="44.54056" lon="6.22226">
        <ele>947.9</ele>
        <time>2020-09-30T14:55:28.000Z</time>
      </trkpt>
      <trkpt lat="44.54042" lon="6.22225">
        <ele>953.7</ele>
        <time>2020-09-30T14:55:24.000Z</time>
      </trkpt>
      <trkpt lat="44.54042" lon="6.22197">
        <ele>954.5</ele>
        <time>2020-09-30T14:55:20.000Z</time>
      </trkpt>
      <trkpt lat="44.54013" lon="6.2218">
        <ele>956.4</ele>
        <time>2020-09-30T14:55:16.000Z</time>
      </trkpt>
      <trkpt lat="44.53991" lon="6.2218">
        <ele>957.9</ele>
        <time>2020-09-30T14:55:13.000Z</time>
      </trkpt>
      <trkpt lat="44.53975" lon="6.22158">
        <ele>958.6</ele>
        <time>2020-09-30T14:55:10.000Z</time>
      </trkpt>
      <trkpt lat="44.53958" lon="6.22129">
        <ele>960.1</ele>
        <time>2020-09-30T14:55:06.000Z</time>
      </trkpt>
      <trkpt lat="44.53943" lon="6.22113">
        <ele>962.8</ele>
        <time>2020-09-30T14:55:03.000Z</time>
      </trkpt>
      <trkpt lat="44.53924" lon="6.22078">
        <ele>969.6</ele>
        <time>2020-09-30T14:54:59.000Z</time>
      </trkpt>
      <trkpt lat="44.53922" lon="6.2205">
        <ele>971.6</ele>
        <time>2020-09-30T14:54:56.000Z</time>
      </trkpt>
      <trkpt lat="44.53924" lon="6.22011">
        <ele>977.7</ele>
        <time>2020-09-30T14:54:52.000Z</time>
      </trkpt>
      <trkpt lat="44.53922" lon="6.21978">
        <ele>979.5</ele>
        <time>2020-09-30T14:54:48.000Z</time>
      </trkpt>
      <trkpt lat="44.53902" lon="6.21963">
        <ele>984.3</ele>
        <time>2020-09-30T14:54:44.000Z</time>
      </trkpt>
      <trkpt lat="44.53886" lon="6.21954">
        <ele>986.2</ele>
        <time>2020-09-30T14:54:41.000Z</time>
      </trkpt>
      <trkpt lat="44.53864" lon="6.21956">
        <ele>988.5</ele>
        <time>2020-09-30T14:54:37.163Z</time>
      </trkpt>
      <trkpt lat="44.5385" lon="6.21961">
        <ele>988.5</ele>
        <time>2020-09-30T14:54:34.041Z</time>
      </trkpt>
      <trkpt lat="44.53839" lon="6.21971">
        <ele>990.7</ele>
        <time>2020-09-30T14:54:31.000Z</time>
      </trkpt>
      <trkpt lat="44.53831" lon="6.21989">
        <ele>992.8</ele>
        <time>2020-09-30T14:54:27.000Z</time>
      </trkpt>
      <trkpt lat="44.53824" lon="6.22001">
        <ele>993</ele>
        <time>2020-09-30T14:54:23.000Z</time>
      </trkpt>
      <trkpt lat="44.53813" lon="6.22015">
        <ele>993.4</ele>
        <time>2020-09-30T14:54:19.000Z</time>
      </trkpt>
      <trkpt lat="44.53804" lon="6.22022">
        <ele>995.5</ele>
        <time>2020-09-30T14:54:16.000Z</time>
      </trkpt>
      <trkpt lat="44.53791" lon="6.22027">
        <ele>992.2</ele>
        <time>2020-09-30T14:54:12.000Z</time>
      </trkpt>
      <trkpt lat="44.53781" lon="6.22037">
        <ele>991.5</ele>
        <time>2020-09-30T14:54:08.000Z</time>
      </trkpt>
      <trkpt lat="44.53771" lon="6.22048">
        <ele>989.2</ele>
        <time>2020-09-30T14:54:04.000Z</time>
      </trkpt>
      <trkpt lat="44.5376" lon="6.22062">
        <ele>987.3</ele>
        <time>2020-09-30T14:54:00.000Z</time>
      </trkpt>
      <trkpt lat="44.53745" lon="6.2208">
        <ele>987.9</ele>
        <time>2020-09-30T14:53:56.000Z</time>
      </trkpt>
      <trkpt lat="44.5373" lon="6.22095">
        <ele>986</ele>
        <time>2020-09-30T14:53:53.000Z</time>
      </trkpt>
      <trkpt lat="44.53718" lon="6.22109">
        <ele>985.7</ele>
        <time>2020-09-30T14:53:49.187Z</time>
      </trkpt>
      <trkpt lat="44.53707" lon="6.22117">
        <ele>985.8</ele>
        <time>2020-09-30T14:52:49.000Z</time>
      </trkpt>
      <trkpt lat="44.53712" lon="6.22114">
        <ele>984.5</ele>
        <time>2020-09-30T14:52:42.000Z</time>
      </trkpt>
      <trkpt lat="44.53718" lon="6.22112">
        <ele>982.5</ele>
        <time>2020-09-30T14:52:39.000Z</time>
      </trkpt>
      <trkpt lat="44.53724" lon="6.22105">
        <ele>982.8</ele>
        <time>2020-09-30T14:52:35.000Z</time>
      </trkpt>
      <trkpt lat="44.53718" lon="6.22104">
        <ele>984.1</ele>
        <time>2020-09-30T14:52:32.000Z</time>
      </trkpt>
      <trkpt lat="44.5371" lon="6.22109">
        <ele>983.6</ele>
        <time>2020-09-30T14:52:28.000Z</time>
      </trkpt>
      <trkpt lat="44.53705" lon="6.22113">
        <ele>984.3</ele>
        <time>2020-09-30T14:52:25.000Z</time>
      </trkpt>
      <trkpt lat="44.53699" lon="6.22113">
        <ele>989.4</ele>
        <time>2020-09-30T14:49:48.000Z</time>
      </trkpt>
      <trkpt lat="44.53695" lon="6.2211">
        <ele>988.4</ele>
        <time>2020-09-30T14:49:44.000Z</time>
      </trkpt>
      <trkpt lat="44.53691" lon="6.22109">
        <ele>988.6</ele>
        <time>2020-09-30T14:49:41.000Z</time>
      </trkpt>
      <trkpt lat="44.53681" lon="6.22114">
        <ele>993.4</ele>
        <time>2020-09-30T14:49:29.000Z</time>
      </trkpt>
      <trkpt lat="44.53691" lon="6.22119">
        <ele>994.7</ele>
        <time>2020-09-30T14:49:25.372Z</time>
      </trkpt>
      <trkpt lat="44.53704" lon="6.22126">
        <ele>997.2</ele>
        <time>2020-09-30T14:49:22.000Z</time>
      </trkpt>
      <trkpt lat="44.53719" lon="6.22142">
        <ele>1000.9</ele>
        <time>2020-09-30T14:49:18.000Z</time>
      </trkpt>
      <trkpt lat="44.53728" lon="6.22157">
        <ele>1002.5</ele>
        <time>2020-09-30T14:49:14.000Z</time>
      </trkpt>
      <trkpt lat="44.53742" lon="6.22154">
        <ele>1004.3</ele>
        <time>2020-09-30T14:49:10.000Z</time>
      </trkpt>
      <trkpt lat="44.53753" lon="6.22165">
        <ele>1009</ele>
        <time>2020-09-30T14:49:06.000Z</time>
      </trkpt>
      <trkpt lat="44.53756" lon="6.22193">
        <ele>1012.3</ele>
        <time>2020-09-30T14:49:02.000Z</time>
      </trkpt>
      <trkpt lat="44.53756" lon="6.22213">
        <ele>1011.9</ele>
        <time>2020-09-30T14:48:58.278Z</time>
      </trkpt>
      <trkpt lat="44.53752" lon="6.22222">
        <ele>1013.8</ele>
        <time>2020-09-30T14:48:55.000Z</time>
      </trkpt>
      <trkpt lat="44.53757" lon="6.22227">
        <ele>1016.5</ele>
        <time>2020-09-30T14:48:52.000Z</time>
      </trkpt>
      <trkpt lat="44.53754" lon="6.22234">
        <ele>1018.8</ele>
        <time>2020-09-30T14:48:48.000Z</time>
      </trkpt>
      <trkpt lat="44.53733" lon="6.2223">
        <ele>1017.1</ele>
        <time>2020-09-30T14:48:38.000Z</time>
      </trkpt>
      <trkpt lat="44.53729" lon="6.22224">
        <ele>1017.5</ele>
        <time>2020-09-30T14:48:30.000Z</time>
      </trkpt>
      <trkpt lat="44.53721" lon="6.22217">
        <ele>1014.3</ele>
        <time>2020-09-30T14:48:26.000Z</time>
      </trkpt>
      <trkpt lat="44.53712" lon="6.22219">
        <ele>1019.8</ele>
        <time>2020-09-30T14:48:21.652Z</time>
      </trkpt>
      <trkpt lat="44.53705" lon="6.22215">
        <ele>1020.7</ele>
        <time>2020-09-30T14:48:19.000Z</time>
      </trkpt>
      <trkpt lat="44.53717" lon="6.22236">
        <ele>1024.1</ele>
        <time>2020-09-30T14:48:15.000Z</time>
      </trkpt>
      <trkpt lat="44.53735" lon="6.22256">
        <ele>1027.5</ele>
        <time>2020-09-30T14:48:11.000Z</time>
      </trkpt>
      <trkpt lat="44.5375" lon="6.22273">
        <ele>1031.5</ele>
        <time>2020-09-30T14:48:08.000Z</time>
      </trkpt>
      <trkpt lat="44.53767" lon="6.22291">
        <ele>1034.8</ele>
        <time>2020-09-30T14:48:03.748Z</time>
      </trkpt>
      <trkpt lat="44.53777" lon="6.22301">
        <ele>1034.5</ele>
        <time>2020-09-30T14:48:01.000Z</time>
      </trkpt>
      <trkpt lat="44.53793" lon="6.22315">
        <ele>1040.7</ele>
        <time>2020-09-30T14:47:57.000Z</time>
      </trkpt>
      <trkpt lat="44.53809" lon="6.22329">
        <ele>1042.4</ele>
        <time>2020-09-30T14:47:54.000Z</time>
      </trkpt>
      <trkpt lat="44.53823" lon="6.22352">
        <ele>1046.9</ele>
        <time>2020-09-30T14:47:50.000Z</time>
      </trkpt>
      <trkpt lat="44.53834" lon="6.22378">
        <ele>1053.2</ele>
        <time>2020-09-30T14:47:46.000Z</time>
      </trkpt>
      <trkpt lat="44.53839" lon="6.22406">
        <ele>1057.8</ele>
        <time>2020-09-30T14:47:43.000Z</time>
      </trkpt>
      <trkpt lat="44.5384" lon="6.22434">
        <ele>1063.6</ele>
        <time>2020-09-30T14:47:39.000Z</time>
      </trkpt>
      <trkpt lat="44.53844" lon="6.22456">
        <ele>1068.9</ele>
        <time>2020-09-30T14:47:36.000Z</time>
      </trkpt>
      <trkpt lat="44.53847" lon="6.22475">
        <ele>1071.2</ele>
        <time>2020-09-30T14:47:32.287Z</time>
      </trkpt>
      <trkpt lat="44.53848" lon="6.22492">
        <ele>1076.3</ele>
        <time>2020-09-30T14:47:29.000Z</time>
      </trkpt>
      <trkpt lat="44.53856" lon="6.22506">
        <ele>1076.8</ele>
        <time>2020-09-30T14:47:26.000Z</time>
      </trkpt>
      <trkpt lat="44.53868" lon="6.22527">
        <ele>1079.2</ele>
        <time>2020-09-30T14:47:22.000Z</time>
      </trkpt>
      <trkpt lat="44.53884" lon="6.22558">
        <ele>1087.5</ele>
        <time>2020-09-30T14:47:18.000Z</time>
      </trkpt>
      <trkpt lat="44.53889" lon="6.22582">
        <ele>1088</ele>
        <time>2020-09-30T14:47:15.000Z</time>
      </trkpt>
      <trkpt lat="44.53886" lon="6.22615">
        <ele>1088.6</ele>
        <time>2020-09-30T14:47:11.000Z</time>
      </trkpt>
      <trkpt lat="44.5388" lon="6.22624">
        <ele>1090.9</ele>
        <time>2020-09-30T14:47:07.524Z</time>
      </trkpt>
      <trkpt lat="44.53875" lon="6.22628">
        <ele>1093.2</ele>
        <time>2020-09-30T14:47:05.000Z</time>
      </trkpt>
      <trkpt lat="44.53864" lon="6.22619">
        <ele>1093.9</ele>
        <time>2020-09-30T14:47:02.000Z</time>
      </trkpt>
      <trkpt lat="44.53846" lon="6.22598">
        <ele>1094.8</ele>
        <time>2020-09-30T14:46:58.000Z</time>
      </trkpt>
      <trkpt lat="44.53828" lon="6.22587">
        <ele>1103.2</ele>
        <time>2020-09-30T14:46:55.000Z</time>
      </trkpt>
      <trkpt lat="44.5381" lon="6.2258">
        <ele>1109.2</ele>
        <time>2020-09-30T14:46:52.000Z</time>
      </trkpt>
      <trkpt lat="44.53788" lon="6.22573">
        <ele>1108.9</ele>
        <time>2020-09-30T14:46:48.000Z</time>
      </trkpt>
      <trkpt lat="44.53771" lon="6.22564">
        <ele>1110.6</ele>
        <time>2020-09-30T14:46:45.000Z</time>
      </trkpt>
      <trkpt lat="44.53753" lon="6.22543">
        <ele>1111.7</ele>
        <time>2020-09-30T14:46:38.000Z</time>
      </trkpt>
      <trkpt lat="44.53752" lon="6.22557">
        <ele>1113.6</ele>
        <time>2020-09-30T14:46:35.000Z</time>
      </trkpt>
      <trkpt lat="44.53747" lon="6.22576">
        <ele>1114.5</ele>
        <time>2020-09-30T14:46:31.000Z</time>
      </trkpt>
      <trkpt lat="44.53758" lon="6.22594">
        <ele>1114.9</ele>
        <time>2020-09-30T14:46:28.000Z</time>
      </trkpt>
      <trkpt lat="44.53767" lon="6.2262">
        <ele>1119.4</ele>
        <time>2020-09-30T14:46:25.000Z</time>
      </trkpt>
      <trkpt lat="44.5377" lon="6.22654">
        <ele>1121.8</ele>
        <time>2020-09-30T14:46:21.000Z</time>
      </trkpt>
      <trkpt lat="44.53781" lon="6.22692">
        <ele>1123.6</ele>
        <time>2020-09-30T14:46:17.000Z</time>
      </trkpt>
      <trkpt lat="44.53786" lon="6.22726">
        <ele>1124.5</ele>
        <time>2020-09-30T14:46:14.000Z</time>
      </trkpt>
      <trkpt lat="44.53791" lon="6.22763">
        <ele>1123.4</ele>
        <time>2020-09-30T14:46:11.000Z</time>
      </trkpt>
      <trkpt lat="44.53791" lon="6.22792">
        <ele>1128.4</ele>
        <time>2020-09-30T14:46:08.000Z</time>
      </trkpt>
      <trkpt lat="44.5379" lon="6.22817">
        <ele>1129.8</ele>
        <time>2020-09-30T14:46:04.224Z</time>
      </trkpt>
      <trkpt lat="44.53794" lon="6.22845">
        <ele>1128.1</ele>
        <time>2020-09-30T14:46:01.000Z</time>
      </trkpt>
      <trkpt lat="44.53797" lon="6.22872">
        <ele>1127.2</ele>
        <time>2020-09-30T14:45:58.000Z</time>
      </trkpt>
      <trkpt lat="44.53797" lon="6.22901">
        <ele>1126.3</ele>
        <time>2020-09-30T14:45:54.000Z</time>
      </trkpt>
      <trkpt lat="44.53801" lon="6.22924">
        <ele>1126.1</ele>
        <time>2020-09-30T14:45:51.000Z</time>
      </trkpt>
      <trkpt lat="44.53803" lon="6.22966">
        <ele>1126.5</ele>
        <time>2020-09-30T14:45:47.000Z</time>
      </trkpt>
      <trkpt lat="44.53805" lon="6.23002">
        <ele>1128.2</ele>
        <time>2020-09-30T14:45:43.334Z</time>
      </trkpt>
      <trkpt lat="44.53805" lon="6.23011">
        <ele>1130.5</ele>
        <time>2020-09-30T14:45:40.160Z</time>
      </trkpt>
      <trkpt lat="44.53801" lon="6.23024">
        <ele>1131.8</ele>
        <time>2020-09-30T14:45:31.000Z</time>
      </trkpt>
      <trkpt lat="44.53797" lon="6.23031">
        <ele>1131.7</ele>
        <time>2020-09-30T14:45:21.000Z</time>
      </trkpt>
      <trkpt lat="44.53796" lon="6.23039">
        <ele>1128.6</ele>
        <time>2020-09-30T14:45:17.000Z</time>
      </trkpt>
      <trkpt lat="44.53797" lon="6.23046">
        <ele>1129.5</ele>
        <time>2020-09-30T14:45:09.119Z</time>
      </trkpt>
      <trkpt lat="44.53796" lon="6.23054">
        <ele>1136.1</ele>
        <time>2020-09-30T14:44:07.000Z</time>
      </trkpt>
      <trkpt lat="44.53794" lon="6.2306">
        <ele>1130.8</ele>
        <time>2020-09-30T14:40:46.000Z</time>
      </trkpt>
      <trkpt lat="44.53796" lon="6.23055">
        <ele>1132.2</ele>
        <time>2020-09-30T14:39:56.000Z</time>
      </trkpt>
      <trkpt lat="44.53801" lon="6.23055">
        <ele>1129.5</ele>
        <time>2020-09-30T14:39:42.000Z</time>
      </trkpt>
      <trkpt lat="44.53805" lon="6.23049">
        <ele>1129.1</ele>
        <time>2020-09-30T14:39:35.000Z</time>
      </trkpt>
      <trkpt lat="44.53811" lon="6.23062">
        <ele>1131.7</ele>
        <time>2020-09-30T14:39:30.662Z</time>
      </trkpt>
      <trkpt lat="44.53816" lon="6.23082">
        <ele>1132</ele>
        <time>2020-09-30T14:39:28.000Z</time>
      </trkpt>
      <trkpt lat="44.53821" lon="6.23105">
        <ele>1132</ele>
        <time>2020-09-30T14:39:24.000Z</time>
      </trkpt>
      <trkpt lat="44.53822" lon="6.23125">
        <ele>1130.9</ele>
        <time>2020-09-30T14:39:21.000Z</time>
      </trkpt>
      <trkpt lat="44.53828" lon="6.23157">
        <ele>1129.9</ele>
        <time>2020-09-30T14:39:17.000Z</time>
      </trkpt>
      <trkpt lat="44.5383" lon="6.23171">
        <ele>1132.8</ele>
        <time>2020-09-30T14:39:14.000Z</time>
      </trkpt>
      <trkpt lat="44.53829" lon="6.23188">
        <ele>1131.8</ele>
        <time>2020-09-30T14:39:10.000Z</time>
      </trkpt>
      <trkpt lat="44.53828" lon="6.23207">
        <ele>1132.7</ele>
        <time>2020-09-30T14:39:06.000Z</time>
      </trkpt>
      <trkpt lat="44.53832" lon="6.23218">
        <ele>1132</ele>
        <time>2020-09-30T14:39:02.000Z</time>
      </trkpt>
      <trkpt lat="44.53833" lon="6.23236">
        <ele>1129.6</ele>
        <time>2020-09-30T14:38:58.000Z</time>
      </trkpt>
      <trkpt lat="44.53837" lon="6.23266">
        <ele>1133.1</ele>
        <time>2020-09-30T14:38:55.000Z</time>
      </trkpt>
      <trkpt lat="44.5384" lon="6.23282">
        <ele>1133.1</ele>
        <time>2020-09-30T14:38:51.370Z</time>
      </trkpt>
      <trkpt lat="44.53847" lon="6.23301">
        <ele>1133.7</ele>
        <time>2020-09-30T14:38:48.000Z</time>
      </trkpt>
      <trkpt lat="44.53849" lon="6.23316">
        <ele>1133.6</ele>
        <time>2020-09-30T14:38:45.000Z</time>
      </trkpt>
      <trkpt lat="44.53848" lon="6.23328">
        <ele>1136</ele>
        <time>2020-09-30T14:38:42.000Z</time>
      </trkpt>
      <trkpt lat="44.53848" lon="6.23346">
        <ele>1134.7</ele>
        <time>2020-09-30T14:38:38.000Z</time>
      </trkpt>
      <trkpt lat="44.53851" lon="6.23359">
        <ele>1132.5</ele>
        <time>2020-09-30T14:38:33.957Z</time>
      </trkpt>
      <trkpt lat="44.53855" lon="6.23372">
        <ele>1133.1</ele>
        <time>2020-09-30T14:38:31.000Z</time>
      </trkpt>
      <trkpt lat="44.53858" lon="6.23379">
        <ele>1131.6</ele>
        <time>2020-09-30T14:38:28.000Z</time>
      </trkpt>
      <trkpt lat="44.53861" lon="6.23388">
        <ele>1135.4</ele>
        <time>2020-09-30T14:38:25.000Z</time>
      </trkpt>
      <trkpt lat="44.53861" lon="6.234">
        <ele>1132.8</ele>
        <time>2020-09-30T14:38:21.000Z</time>
      </trkpt>
      <trkpt lat="44.53862" lon="6.23409">
        <ele>1132.5</ele>
        <time>2020-09-30T14:38:18.000Z</time>
      </trkpt>
      <trkpt lat="44.53862" lon="6.23424">
        <ele>1130.7</ele>
        <time>2020-09-30T14:38:14.000Z</time>
      </trkpt>
      <trkpt lat="44.53863" lon="6.23435">
        <ele>1129.2</ele>
        <time>2020-09-30T14:38:10.000Z</time>
      </trkpt>
      <trkpt lat="44.53861" lon="6.23446">
        <ele>1128.6</ele>
        <time>2020-09-30T14:38:06.000Z</time>
      </trkpt>
      <trkpt lat="44.53863" lon="6.23459">
        <ele>1128.4</ele>
        <time>2020-09-30T14:38:01.895Z</time>
      </trkpt>
      <trkpt lat="44.53865" lon="6.23468">
        <ele>1124.1</ele>
        <time>2020-09-30T14:37:59.000Z</time>
      </trkpt>
      <trkpt lat="44.53866" lon="6.23476">
        <ele>1121.7</ele>
        <time>2020-09-30T14:37:55.000Z</time>
      </trkpt>
      <trkpt lat="44.53867" lon="6.23482">
        <ele>1117.1</ele>
        <time>2020-09-30T14:37:51.000Z</time>
      </trkpt>
      <trkpt lat="44.53873" lon="6.23488">
        <ele>1112.3</ele>
        <time>2020-09-30T14:37:47.000Z</time>
      </trkpt>
      <trkpt lat="44.53878" lon="6.23491">
        <ele>1110.2</ele>
        <time>2020-09-30T14:37:44.000Z</time>
      </trkpt>
      <trkpt lat="44.53886" lon="6.23497">
        <ele>1111.2</ele>
        <time>2020-09-30T14:37:40.000Z</time>
      </trkpt>
      <trkpt lat="44.53894" lon="6.23504">
        <ele>1110.9</ele>
        <time>2020-09-30T14:37:36.000Z</time>
      </trkpt>
      <trkpt lat="44.539" lon="6.23511">
        <ele>1111.4</ele>
        <time>2020-09-30T14:37:33.000Z</time>
      </trkpt>
      <trkpt lat="44.53906" lon="6.2352">
        <ele>1109.3</ele>
        <time>2020-09-30T14:37:29.000Z</time>
      </trkpt>
      <trkpt lat="44.53912" lon="6.23529">
        <ele>1106.6</ele>
        <time>2020-09-30T14:37:25.000Z</time>
      </trkpt>
      <trkpt lat="44.53918" lon="6.23535">
        <ele>1110.7</ele>
        <time>2020-09-30T14:37:22.000Z</time>
      </trkpt>
      <trkpt lat="44.53928" lon="6.23539">
        <ele>1107.1</ele>
        <time>2020-09-30T14:37:19.000Z</time>
      </trkpt>
      <trkpt lat="44.53942" lon="6.23536">
        <ele>1107.4</ele>
        <time>2020-09-30T14:37:15.000Z</time>
      </trkpt>
      <trkpt lat="44.53958" lon="6.23535">
        <ele>1109.4</ele>
        <time>2020-09-30T14:37:11.000Z</time>
      </trkpt>
      <trkpt lat="44.53973" lon="6.23538">
        <ele>1109.3</ele>
        <time>2020-09-30T14:37:08.000Z</time>
      </trkpt>
      <trkpt lat="44.53983" lon="6.2355">
        <ele>1102.4</ele>
        <time>2020-09-30T14:36:58.000Z</time>
      </trkpt>
      <trkpt lat="44.53981" lon="6.23556">
        <ele>1102.4</ele>
        <time>2020-09-30T14:36:34.000Z</time>
      </trkpt>
      <trkpt lat="44.53982" lon="6.23563">
        <ele>1103.7</ele>
        <time>2020-09-30T14:36:31.000Z</time>
      </trkpt>
      <trkpt lat="44.53983" lon="6.23572">
        <ele>1102.9</ele>
        <time>2020-09-30T14:36:27.000Z</time>
      </trkpt>
      <trkpt lat="44.53985" lon="6.23578">
        <ele>1102.5</ele>
        <time>2020-09-30T14:36:23.000Z</time>
      </trkpt>
      <trkpt lat="44.53987" lon="6.23595">
        <ele>1098.7</ele>
        <time>2020-09-30T14:36:19.000Z</time>
      </trkpt>
      <trkpt lat="44.53986" lon="6.23608">
        <ele>1098.8</ele>
        <time>2020-09-30T14:36:15.000Z</time>
      </trkpt>
      <trkpt lat="44.53984" lon="6.23616">
        <ele>1097.7</ele>
        <time>2020-09-30T14:36:11.000Z</time>
      </trkpt>
      <trkpt lat="44.53982" lon="6.23628">
        <ele>1096.5</ele>
        <time>2020-09-30T14:36:07.000Z</time>
      </trkpt>
      <trkpt lat="44.5398" lon="6.23635">
        <ele>1095.1</ele>
        <time>2020-09-30T14:36:04.000Z</time>
      </trkpt>
      <trkpt lat="44.53977" lon="6.23642">
        <ele>1092.3</ele>
        <time>2020-09-30T14:36:00.356Z</time>
      </trkpt>
      <trkpt lat="44.53975" lon="6.23651">
        <ele>1089.4</ele>
        <time>2020-09-30T14:35:57.000Z</time>
      </trkpt>
      <trkpt lat="44.53977" lon="6.23664">
        <ele>1084.1</ele>
        <time>2020-09-30T14:35:53.000Z</time>
      </trkpt>
      <trkpt lat="44.53978" lon="6.23678">
        <ele>1083</ele>
        <time>2020-09-30T14:35:50.000Z</time>
      </trkpt>
      <trkpt lat="44.53973" lon="6.23679">
        <ele>1082</ele>
        <time>2020-09-30T14:35:46.000Z</time>
      </trkpt>
      <trkpt lat="44.53966" lon="6.23672">
        <ele>1081.2</ele>
        <time>2020-09-30T14:35:42.000Z</time>
      </trkpt>
      <trkpt lat="44.53961" lon="6.23668">
        <ele>1080.2</ele>
        <time>2020-09-30T14:35:39.000Z</time>
      </trkpt>
      <trkpt lat="44.53954" lon="6.23667">
        <ele>1077.9</ele>
        <time>2020-09-30T14:35:35.000Z</time>
      </trkpt>
      <trkpt lat="44.53947" lon="6.23668">
        <ele>1073.9</ele>
        <time>2020-09-30T14:35:31.000Z</time>
      </trkpt>
      <trkpt lat="44.53942" lon="6.23676">
        <ele>1074.1</ele>
        <time>2020-09-30T14:35:27.000Z</time>
      </trkpt>
      <trkpt lat="44.53939" lon="6.23692">
        <ele>1071.6</ele>
        <time>2020-09-30T14:35:23.000Z</time>
      </trkpt>
      <trkpt lat="44.53933" lon="6.23701">
        <ele>1069.1</ele>
        <time>2020-09-30T14:35:20.000Z</time>
      </trkpt>
      <trkpt lat="44.53925" lon="6.23711">
        <ele>1065.8</ele>
        <time>2020-09-30T14:35:16.000Z</time>
      </trkpt>
      <trkpt lat="44.53913" lon="6.23718">
        <ele>1062.8</ele>
        <time>2020-09-30T14:35:12.000Z</time>
      </trkpt>
      <trkpt lat="44.53902" lon="6.23726">
        <ele>1060.8</ele>
        <time>2020-09-30T14:35:08.000Z</time>
      </trkpt>
      <trkpt lat="44.53895" lon="6.23729">
        <ele>1060.3</ele>
        <time>2020-09-30T14:35:05.000Z</time>
      </trkpt>
      <trkpt lat="44.53888" lon="6.23732">
        <ele>1059</ele>
        <time>2020-09-30T14:35:01.491Z</time>
      </trkpt>
      <trkpt lat="44.53881" lon="6.23733">
        <ele>1062.8</ele>
        <time>2020-09-30T14:34:58.215Z</time>
      </trkpt>
      <trkpt lat="44.53874" lon="6.23732">
        <ele>1062.3</ele>
        <time>2020-09-30T14:34:54.491Z</time>
      </trkpt>
      <trkpt lat="44.53867" lon="6.2373">
        <ele>1059.6</ele>
        <time>2020-09-30T14:34:51.047Z</time>
      </trkpt>
      <trkpt lat="44.53859" lon="6.23724">
        <ele>1060.6</ele>
        <time>2020-09-30T14:34:48.000Z</time>
      </trkpt>
      <trkpt lat="44.53855" lon="6.2371">
        <ele>1058.5</ele>
        <time>2020-09-30T14:34:44.000Z</time>
      </trkpt>
      <trkpt lat="44.5385" lon="6.237">
        <ele>1057.3</ele>
        <time>2020-09-30T14:34:41.000Z</time>
      </trkpt>
      <trkpt lat="44.53842" lon="6.23692">
        <ele>1055.3</ele>
        <time>2020-09-30T14:34:37.000Z</time>
      </trkpt>
      <trkpt lat="44.53831" lon="6.23686">
        <ele>1055.2</ele>
        <time>2020-09-30T14:34:33.000Z</time>
      </trkpt>
      <trkpt lat="44.53824" lon="6.23686">
        <ele>1053.9</ele>
        <time>2020-09-30T14:34:30.000Z</time>
      </trkpt>
      <trkpt lat="44.53823" lon="6.23696">
        <ele>1051.4</ele>
        <time>2020-09-30T14:34:26.000Z</time>
      </trkpt>
      <trkpt lat="44.53823" lon="6.23708">
        <ele>1050.4</ele>
        <time>2020-09-30T14:34:23.000Z</time>
      </trkpt>
      <trkpt lat="44.53828" lon="6.23725">
        <ele>1048.7</ele>
        <time>2020-09-30T14:34:19.000Z</time>
      </trkpt>
      <trkpt lat="44.53833" lon="6.23737">
        <ele>1049.4</ele>
        <time>2020-09-30T14:34:16.000Z</time>
      </trkpt>
      <trkpt lat="44.53835" lon="6.23746">
        <ele>1046.3</ele>
        <time>2020-09-30T14:34:12.000Z</time>
      </trkpt>
      <trkpt lat="44.53833" lon="6.23756">
        <ele>1043</ele>
        <time>2020-09-30T14:34:09.000Z</time>
      </trkpt>
      <trkpt lat="44.53824" lon="6.23765">
        <ele>1042.3</ele>
        <time>2020-09-30T14:34:06.000Z</time>
      </trkpt>
      <trkpt lat="44.53812" lon="6.23777">
        <ele>1042.2</ele>
        <time>2020-09-30T14:34:02.000Z</time>
      </trkpt>
      <trkpt lat="44.53803" lon="6.23788">
        <ele>1040.2</ele>
        <time>2020-09-30T14:33:59.000Z</time>
      </trkpt>
      <trkpt lat="44.53795" lon="6.23802">
        <ele>1038.5</ele>
        <time>2020-09-30T14:33:55.000Z</time>
      </trkpt>
      <trkpt lat="44.53794" lon="6.2382">
        <ele>1039</ele>
        <time>2020-09-30T14:33:51.000Z</time>
      </trkpt>
      <trkpt lat="44.53795" lon="6.23835">
        <ele>1038.2</ele>
        <time>2020-09-30T14:33:48.000Z</time>
      </trkpt>
      <trkpt lat="44.53793" lon="6.23857">
        <ele>1037.4</ele>
        <time>2020-09-30T14:33:45.000Z</time>
      </trkpt>
      <trkpt lat="44.53794" lon="6.23884">
        <ele>1038.4</ele>
        <time>2020-09-30T14:33:41.000Z</time>
      </trkpt>
      <trkpt lat="44.53792" lon="6.23913">
        <ele>1039.8</ele>
        <time>2020-09-30T14:33:38.000Z</time>
      </trkpt>
      <trkpt lat="44.53792" lon="6.23941">
        <ele>1042.5</ele>
        <time>2020-09-30T14:33:35.000Z</time>
      </trkpt>
      <trkpt lat="44.53792" lon="6.23956">
        <ele>1042.7</ele>
        <time>2020-09-30T14:33:32.000Z</time>
      </trkpt>
      <trkpt lat="44.53787" lon="6.23971">
        <ele>1042.6</ele>
        <time>2020-09-30T14:33:27.860Z</time>
      </trkpt>
      <trkpt lat="44.53789" lon="6.23988">
        <ele>1042.2</ele>
        <time>2020-09-30T14:33:25.000Z</time>
      </trkpt>
      <trkpt lat="44.53797" lon="6.24014">
        <ele>1041.9</ele>
        <time>2020-09-30T14:33:21.000Z</time>
      </trkpt>
      <trkpt lat="44.53814" lon="6.24025">
        <ele>1043</ele>
        <time>2020-09-30T14:33:17.000Z</time>
      </trkpt>
      <trkpt lat="44.53829" lon="6.24025">
        <ele>1043.3</ele>
        <time>2020-09-30T14:33:14.000Z</time>
      </trkpt>
      <trkpt lat="44.53846" lon="6.24032">
        <ele>1045.3</ele>
        <time>2020-09-30T14:33:10.000Z</time>
      </trkpt>
      <trkpt lat="44.53853" lon="6.24041">
        <ele>1044.9</ele>
        <time>2020-09-30T14:33:07.000Z</time>
      </trkpt>
      <trkpt lat="44.53862" lon="6.24051">
        <ele>1044.5</ele>
        <time>2020-09-30T14:33:04.000Z</time>
      </trkpt>
      <trkpt lat="44.53868" lon="6.24066">
        <ele>1040.7</ele>
        <time>2020-09-30T14:33:01.000Z</time>
      </trkpt>
      <trkpt lat="44.53869" lon="6.24082">
        <ele>1040.6</ele>
        <time>2020-09-30T14:32:58.000Z</time>
      </trkpt>
      <trkpt lat="44.53871" lon="6.24109">
        <ele>1040.9</ele>
        <time>2020-09-30T14:32:54.000Z</time>
      </trkpt>
      <trkpt lat="44.53875" lon="6.24133">
        <ele>1043.4</ele>
        <time>2020-09-30T14:32:50.298Z</time>
      </trkpt>
      <trkpt lat="44.53873" lon="6.24154">
        <ele>1044</ele>
        <time>2020-09-30T14:32:47.000Z</time>
      </trkpt>
      <trkpt lat="44.53869" lon="6.24176">
        <ele>1042.8</ele>
        <time>2020-09-30T14:32:42.687Z</time>
      </trkpt>
      <trkpt lat="44.53868" lon="6.24194">
        <ele>1043</ele>
        <time>2020-09-30T14:32:40.000Z</time>
      </trkpt>
      <trkpt lat="44.53869" lon="6.24217">
        <ele>1045.9</ele>
        <time>2020-09-30T14:32:37.000Z</time>
      </trkpt>
      <trkpt lat="44.53867" lon="6.24235">
        <ele>1046.3</ele>
        <time>2020-09-30T14:32:34.000Z</time>
      </trkpt>
      <trkpt lat="44.53864" lon="6.24249">
        <ele>1047.7</ele>
        <time>2020-09-30T14:32:31.000Z</time>
      </trkpt>
      <trkpt lat="44.53861" lon="6.24263">
        <ele>1046</ele>
        <time>2020-09-30T14:32:28.000Z</time>
      </trkpt>
      <trkpt lat="44.53859" lon="6.24281">
        <ele>1046.1</ele>
        <time>2020-09-30T14:32:24.373Z</time>
      </trkpt>
      <trkpt lat="44.53856" lon="6.24299">
        <ele>1047</ele>
        <time>2020-09-30T14:32:21.000Z</time>
      </trkpt>
      <trkpt lat="44.53852" lon="6.2432">
        <ele>1047</ele>
        <time>2020-09-30T14:32:17.000Z</time>
      </trkpt>
      <trkpt lat="44.5385" lon="6.24337">
        <ele>1046.3</ele>
        <time>2020-09-30T14:32:14.000Z</time>
      </trkpt>
      <trkpt lat="44.53849" lon="6.24355">
        <ele>1046.5</ele>
        <time>2020-09-30T14:32:09.867Z</time>
      </trkpt>
      <trkpt lat="44.5385" lon="6.24374">
        <ele>1047</ele>
        <time>2020-09-30T14:32:07.000Z</time>
      </trkpt>
      <trkpt lat="44.53852" lon="6.2439">
        <ele>1049.3</ele>
        <time>2020-09-30T14:32:04.000Z</time>
      </trkpt>
      <trkpt lat="44.53854" lon="6.24404">
        <ele>1048.7</ele>
        <time>2020-09-30T14:32:01.000Z</time>
      </trkpt>
      <trkpt lat="44.53855" lon="6.24419">
        <ele>1049.6</ele>
        <time>2020-09-30T14:31:58.000Z</time>
      </trkpt>
      <trkpt lat="44.53858" lon="6.24434">
        <ele>1050.5</ele>
        <time>2020-09-30T14:31:54.368Z</time>
      </trkpt>
      <trkpt lat="44.53858" lon="6.24454">
        <ele>1050.4</ele>
        <time>2020-09-30T14:31:51.000Z</time>
      </trkpt>
      <trkpt lat="44.53857" lon="6.24471">
        <ele>1050.3</ele>
        <time>2020-09-30T14:31:48.000Z</time>
      </trkpt>
      <trkpt lat="44.53856" lon="6.24494">
        <ele>1049.9</ele>
        <time>2020-09-30T14:31:45.000Z</time>
      </trkpt>
      <trkpt lat="44.53857" lon="6.24512">
        <ele>1049.2</ele>
        <time>2020-09-30T14:31:42.000Z</time>
      </trkpt>
      <trkpt lat="44.53858" lon="6.24532">
        <ele>1050.2</ele>
        <time>2020-09-30T14:31:37.932Z</time>
      </trkpt>
      <trkpt lat="44.53859" lon="6.2455">
        <ele>1049.1</ele>
        <time>2020-09-30T14:31:34.858Z</time>
      </trkpt>
      <trkpt lat="44.53861" lon="6.24568">
        <ele>1049.6</ele>
        <time>2020-09-30T14:31:32.000Z</time>
      </trkpt>
      <trkpt lat="44.53863" lon="6.24583">
        <ele>1048.2</ele>
        <time>2020-09-30T14:31:28.432Z</time>
      </trkpt>
      <trkpt lat="44.53865" lon="6.246">
        <ele>1048.2</ele>
        <time>2020-09-30T14:31:24.672Z</time>
      </trkpt>
      <trkpt lat="44.53865" lon="6.24616">
        <ele>1047.3</ele>
        <time>2020-09-30T14:31:22.000Z</time>
      </trkpt>
      <trkpt lat="44.53865" lon="6.24631">
        <ele>1047.6</ele>
        <time>2020-09-30T14:31:19.000Z</time>
      </trkpt>
      <trkpt lat="44.53861" lon="6.24645">
        <ele>1046.7</ele>
        <time>2020-09-30T14:31:15.280Z</time>
      </trkpt>
      <trkpt lat="44.53857" lon="6.24661">
        <ele>1046</ele>
        <time>2020-09-30T14:31:11.893Z</time>
      </trkpt>
      <trkpt lat="44.53853" lon="6.24673">
        <ele>1046.9</ele>
        <time>2020-09-30T14:31:09.000Z</time>
      </trkpt>
      <trkpt lat="44.53849" lon="6.24686">
        <ele>1044.2</ele>
        <time>2020-09-30T14:31:05.235Z</time>
      </trkpt>
      <trkpt lat="44.53844" lon="6.24701">
        <ele>1046.5</ele>
        <time>2020-09-30T14:31:02.000Z</time>
      </trkpt>
      <trkpt lat="44.53839" lon="6.24715">
        <ele>1047</ele>
        <time>2020-09-30T14:30:58.354Z</time>
      </trkpt>
      <trkpt lat="44.53834" lon="6.2473">
        <ele>1045.1</ele>
        <time>2020-09-30T14:30:55.000Z</time>
      </trkpt>
      <trkpt lat="44.53828" lon="6.24742">
        <ele>1043.8</ele>
        <time>2020-09-30T14:30:51.202Z</time>
      </trkpt>
      <trkpt lat="44.53821" lon="6.24751">
        <ele>1044.6</ele>
        <time>2020-09-30T14:30:48.093Z</time>
      </trkpt>
      <trkpt lat="44.53815" lon="6.2476">
        <ele>1043.3</ele>
        <time>2020-09-30T14:30:45.000Z</time>
      </trkpt>
      <trkpt lat="44.53809" lon="6.24765">
        <ele>1042.8</ele>
        <time>2020-09-30T14:30:41.294Z</time>
      </trkpt>
      <trkpt lat="44.53801" lon="6.24772">
        <ele>1043.6</ele>
        <time>2020-09-30T14:30:37.733Z</time>
      </trkpt>
      <trkpt lat="44.53795" lon="6.24779">
        <ele>1040.5</ele>
        <time>2020-09-30T14:30:35.000Z</time>
      </trkpt>
      <trkpt lat="44.53789" lon="6.24785">
        <ele>1039.6</ele>
        <time>2020-09-30T14:30:32.000Z</time>
      </trkpt>
      <trkpt lat="44.53781" lon="6.24796">
        <ele>1041.6</ele>
        <time>2020-09-30T14:30:28.056Z</time>
      </trkpt>
      <trkpt lat="44.53776" lon="6.24807">
        <ele>1041</ele>
        <time>2020-09-30T14:30:25.023Z</time>
      </trkpt>
      <trkpt lat="44.53774" lon="6.24816">
        <ele>1037.2</ele>
        <time>2020-09-30T14:30:21.299Z</time>
      </trkpt>
      <trkpt lat="44.53776" lon="6.2483">
        <ele>1040.8</ele>
        <time>2020-09-30T14:30:14.981Z</time>
      </trkpt>
      <trkpt lat="44.53779" lon="6.24835">
        <ele>1043.9</ele>
        <time>2020-09-30T14:30:09.000Z</time>
      </trkpt>
      <trkpt lat="44.53783" lon="6.24843">
        <ele>1044.1</ele>
        <time>2020-09-30T14:30:06.000Z</time>
      </trkpt>
      <trkpt lat="44.53788" lon="6.2485">
        <ele>1043.4</ele>
        <time>2020-09-30T14:30:02.397Z</time>
      </trkpt>
      <trkpt lat="44.53793" lon="6.24854">
        <ele>1044.1</ele>
        <time>2020-09-30T14:29:59.375Z</time>
      </trkpt>
      <trkpt lat="44.53797" lon="6.24857">
        <ele>1042.8</ele>
        <time>2020-09-30T14:29:56.052Z</time>
      </trkpt>
      <trkpt lat="44.53804" lon="6.24862">
        <ele>1042.7</ele>
        <time>2020-09-30T14:29:53.000Z</time>
      </trkpt>
      <trkpt lat="44.53811" lon="6.24871">
        <ele>1044.1</ele>
        <time>2020-09-30T14:29:49.175Z</time>
      </trkpt>
      <trkpt lat="44.53816" lon="6.24876">
        <ele>1044.2</ele>
        <time>2020-09-30T14:29:46.000Z</time>
      </trkpt>
      <trkpt lat="44.53822" lon="6.24881">
        <ele>1043.7</ele>
        <time>2020-09-30T14:29:39.000Z</time>
      </trkpt>
      <trkpt lat="44.53819" lon="6.24873">
        <ele>1045.6</ele>
        <time>2020-09-30T14:29:31.643Z</time>
      </trkpt>
      <trkpt lat="44.53842" lon="6.24877">
        <ele>1047.7</ele>
        <time>2020-09-30T14:29:29.000Z</time>
      </trkpt>
      <trkpt lat="44.53866" lon="6.24897">
        <ele>1057.6</ele>
        <time>2020-09-30T14:26:46.000Z</time>
      </trkpt>
      <trkpt lat="44.53861" lon="6.24901">
        <ele>1055.2</ele>
        <time>2020-09-30T14:26:28.000Z</time>
      </trkpt>
      <trkpt lat="44.53856" lon="6.24915">
        <ele>1056.4</ele>
        <time>2020-09-30T14:26:21.000Z</time>
      </trkpt>
      <trkpt lat="44.53862" lon="6.24926">
        <ele>1061.2</ele>
        <time>2020-09-30T14:26:17.000Z</time>
      </trkpt>
      <trkpt lat="44.53868" lon="6.24937">
        <ele>1060</ele>
        <time>2020-09-30T14:26:14.000Z</time>
      </trkpt>
      <trkpt lat="44.53876" lon="6.2495">
        <ele>1060.6</ele>
        <time>2020-09-30T14:26:10.000Z</time>
      </trkpt>
      <trkpt lat="44.53888" lon="6.24964">
        <ele>1061.7</ele>
        <time>2020-09-30T14:26:06.000Z</time>
      </trkpt>
      <trkpt lat="44.53896" lon="6.24976">
        <ele>1062.8</ele>
        <time>2020-09-30T14:26:02.000Z</time>
      </trkpt>
      <trkpt lat="44.53913" lon="6.24987">
        <ele>1060.2</ele>
        <time>2020-09-30T14:25:58.000Z</time>
      </trkpt>
      <trkpt lat="44.53922" lon="6.24994">
        <ele>1063.5</ele>
        <time>2020-09-30T14:25:54.336Z</time>
      </trkpt>
      <trkpt lat="44.5393" lon="6.25009">
        <ele>1063.9</ele>
        <time>2020-09-30T14:25:51.000Z</time>
      </trkpt>
      <trkpt lat="44.53944" lon="6.25033">
        <ele>1060.9</ele>
        <time>2020-09-30T14:25:47.000Z</time>
      </trkpt>
      <trkpt lat="44.53957" lon="6.25063">
        <ele>1063.4</ele>
        <time>2020-09-30T14:25:43.000Z</time>
      </trkpt>
      <trkpt lat="44.53961" lon="6.25086">
        <ele>1061.6</ele>
        <time>2020-09-30T14:25:38.560Z</time>
      </trkpt>
      <trkpt lat="44.53962" lon="6.25093">
        <ele>1060.8</ele>
        <time>2020-09-30T14:25:36.000Z</time>
      </trkpt>
      <trkpt lat="44.53964" lon="6.25103">
        <ele>1063</ele>
        <time>2020-09-30T14:25:32.000Z</time>
      </trkpt>
      <trkpt lat="44.5397" lon="6.25112">
        <ele>1062.9</ele>
        <time>2020-09-30T14:25:29.000Z</time>
      </trkpt>
      <trkpt lat="44.5398" lon="6.25123">
        <ele>1063.4</ele>
        <time>2020-09-30T14:25:25.000Z</time>
      </trkpt>
      <trkpt lat="44.53994" lon="6.2514">
        <ele>1064.1</ele>
        <time>2020-09-30T14:25:21.000Z</time>
      </trkpt>
      <trkpt lat="44.54002" lon="6.25155">
        <ele>1068.7</ele>
        <time>2020-09-30T14:25:17.000Z</time>
      </trkpt>
      <trkpt lat="44.54009" lon="6.2517">
        <ele>1067</ele>
        <time>2020-09-30T14:25:13.291Z</time>
      </trkpt>
      <trkpt lat="44.54018" lon="6.25185">
        <ele>1066.4</ele>
        <time>2020-09-30T14:25:10.212Z</time>
      </trkpt>
      <trkpt lat="44.54029" lon="6.25203">
        <ele>1062.9</ele>
        <time>2020-09-30T14:25:07.000Z</time>
      </trkpt>
      <trkpt lat="44.54032" lon="6.25209">
        <ele>1065.4</ele>
        <time>2020-09-30T14:25:03.000Z</time>
      </trkpt>
      <trkpt lat="44.54035" lon="6.25221">
        <ele>1067</ele>
        <time>2020-09-30T14:24:56.000Z</time>
      </trkpt>
      <trkpt lat="44.54038" lon="6.25227">
        <ele>1067.2</ele>
        <time>2020-09-30T14:24:46.000Z</time>
      </trkpt>
      <trkpt lat="44.54043" lon="6.25231">
        <ele>1061.4</ele>
        <time>2020-09-30T14:24:38.815Z</time>
      </trkpt>
      <trkpt lat="44.54047" lon="6.25236">
        <ele>1059.7</ele>
        <time>2020-09-30T14:24:11.000Z</time>
      </trkpt>
      <trkpt lat="44.5405" lon="6.25243">
        <ele>1059.9</ele>
        <time>2020-09-30T14:23:59.754Z</time>
      </trkpt>
      <trkpt lat="44.54055" lon="6.25247">
        <ele>1062.3</ele>
        <time>2020-09-30T14:23:47.000Z</time>
      </trkpt>
      <trkpt lat="44.54062" lon="6.25266">
        <ele>1063.6</ele>
        <time>2020-09-30T14:23:43.000Z</time>
      </trkpt>
      <trkpt lat="44.54073" lon="6.253">
        <ele>1069.9</ele>
        <time>2020-09-30T14:23:39.189Z</time>
      </trkpt>
      <trkpt lat="44.54073" lon="6.25322">
        <ele>1076.5</ele>
        <time>2020-09-30T14:23:36.000Z</time>
      </trkpt>
      <trkpt lat="44.54072" lon="6.25341">
        <ele>1078.6</ele>
        <time>2020-09-30T14:23:32.000Z</time>
      </trkpt>
      <trkpt lat="44.54076" lon="6.25384">
        <ele>1080.6</ele>
        <time>2020-09-30T14:23:28.000Z</time>
      </trkpt>
      <trkpt lat="44.54074" lon="6.25409">
        <ele>1079.1</ele>
        <time>2020-09-30T14:23:25.000Z</time>
      </trkpt>
      <trkpt lat="44.54074" lon="6.25431">
        <ele>1078.7</ele>
        <time>2020-09-30T14:23:21.446Z</time>
      </trkpt>
      <trkpt lat="44.54075" lon="6.25448">
        <ele>1083.7</ele>
        <time>2020-09-30T14:23:18.266Z</time>
      </trkpt>
      <trkpt lat="44.54075" lon="6.25456">
        <ele>1083.1</ele>
        <time>2020-09-30T14:23:14.751Z</time>
      </trkpt>
      <trkpt lat="44.54078" lon="6.25467">
        <ele>1074</ele>
        <time>2020-09-30T14:19:37.000Z</time>
      </trkpt>
      <trkpt lat="44.54074" lon="6.25478">
        <ele>1076.5</ele>
        <time>2020-09-30T14:19:30.000Z</time>
      </trkpt>
      <trkpt lat="44.54074" lon="6.25487">
        <ele>1075.4</ele>
        <time>2020-09-30T14:19:26.000Z</time>
      </trkpt>
      <trkpt lat="44.54071" lon="6.25496">
        <ele>1077.1</ele>
        <time>2020-09-30T14:19:23.000Z</time>
      </trkpt>
      <trkpt lat="44.54069" lon="6.25512">
        <ele>1078.4</ele>
        <time>2020-09-30T14:19:19.000Z</time>
      </trkpt>
      <trkpt lat="44.5407" lon="6.25538">
        <ele>1084.2</ele>
        <time>2020-09-30T14:19:15.000Z</time>
      </trkpt>
      <trkpt lat="44.54067" lon="6.25552">
        <ele>1085.7</ele>
        <time>2020-09-30T14:19:12.000Z</time>
      </trkpt>
      <trkpt lat="44.54056" lon="6.25572">
        <ele>1084.9</ele>
        <time>2020-09-30T14:19:09.000Z</time>
      </trkpt>
      <trkpt lat="44.54043" lon="6.25603">
        <ele>1086.1</ele>
        <time>2020-09-30T14:19:05.000Z</time>
      </trkpt>
      <trkpt lat="44.5403" lon="6.25632">
        <ele>1086.3</ele>
        <time>2020-09-30T14:19:01.000Z</time>
      </trkpt>
      <trkpt lat="44.54018" lon="6.25657">
        <ele>1090.4</ele>
        <time>2020-09-30T14:18:57.000Z</time>
      </trkpt>
      <trkpt lat="44.54003" lon="6.25678">
        <ele>1092</ele>
        <time>2020-09-30T14:18:53.000Z</time>
      </trkpt>
      <trkpt lat="44.53993" lon="6.25688">
        <ele>1097.3</ele>
        <time>2020-09-30T14:18:50.000Z</time>
      </trkpt>
      <trkpt lat="44.5398" lon="6.25695">
        <ele>1100.6</ele>
        <time>2020-09-30T14:18:46.000Z</time>
      </trkpt>
      <trkpt lat="44.5397" lon="6.25695">
        <ele>1102.8</ele>
        <time>2020-09-30T14:18:43.000Z</time>
      </trkpt>
      <trkpt lat="44.53959" lon="6.25688">
        <ele>1104.4</ele>
        <time>2020-09-30T14:18:39.000Z</time>
      </trkpt>
      <trkpt lat="44.53949" lon="6.25682">
        <ele>1106.9</ele>
        <time>2020-09-30T14:18:35.062Z</time>
      </trkpt>
      <trkpt lat="44.5394" lon="6.25676">
        <ele>1108.9</ele>
        <time>2020-09-30T14:18:32.000Z</time>
      </trkpt>
      <trkpt lat="44.53934" lon="6.25671">
        <ele>1112.9</ele>
        <time>2020-09-30T14:18:28.502Z</time>
      </trkpt>
      <trkpt lat="44.53928" lon="6.25666">
        <ele>1113.5</ele>
        <time>2020-09-30T14:18:25.385Z</time>
      </trkpt>
      <trkpt lat="44.5392" lon="6.2566">
        <ele>1115</ele>
        <time>2020-09-30T14:18:22.000Z</time>
      </trkpt>
      <trkpt lat="44.53911" lon="6.25653">
        <ele>1115.4</ele>
        <time>2020-09-30T14:18:17.882Z</time>
      </trkpt>
      <trkpt lat="44.539" lon="6.25648">
        <ele>1118.7</ele>
        <time>2020-09-30T14:18:15.000Z</time>
      </trkpt>
      <trkpt lat="44.53881" lon="6.25636">
        <ele>1120.4</ele>
        <time>2020-09-30T14:18:10.488Z</time>
      </trkpt>
      <trkpt lat="44.53873" lon="6.25639">
        <ele>1125.5</ele>
        <time>2020-09-30T14:18:07.005Z</time>
      </trkpt>
      <trkpt lat="44.53863" lon="6.25644">
        <ele>1129.5</ele>
        <time>2020-09-30T14:18:04.000Z</time>
      </trkpt>
      <trkpt lat="44.5386" lon="6.25651">
        <ele>1128.6</ele>
        <time>2020-09-30T14:18:00.186Z</time>
      </trkpt>
      <trkpt lat="44.53857" lon="6.2566">
        <ele>1128.5</ele>
        <time>2020-09-30T14:17:53.238Z</time>
      </trkpt>
      <trkpt lat="44.53854" lon="6.25666">
        <ele>1128.9</ele>
        <time>2020-09-30T14:17:50.000Z</time>
      </trkpt>
      <trkpt lat="44.5385" lon="6.25674">
        <ele>1130.2</ele>
        <time>2020-09-30T14:17:47.000Z</time>
      </trkpt>
      <trkpt lat="44.53837" lon="6.25681">
        <ele>1131.4</ele>
        <time>2020-09-30T14:17:43.000Z</time>
      </trkpt>
      <trkpt lat="44.53824" lon="6.25681">
        <ele>1133</ele>
        <time>2020-09-30T14:17:40.000Z</time>
      </trkpt>
      <trkpt lat="44.53806" lon="6.25682">
        <ele>1133.8</ele>
        <time>2020-09-30T14:17:36.000Z</time>
      </trkpt>
      <trkpt lat="44.53796" lon="6.25684">
        <ele>1137.1</ele>
        <time>2020-09-30T14:17:32.000Z</time>
      </trkpt>
      <trkpt lat="44.53789" lon="6.25692">
        <ele>1135</ele>
        <time>2020-09-30T14:17:29.000Z</time>
      </trkpt>
      <trkpt lat="44.53775" lon="6.25705">
        <ele>1135.7</ele>
        <time>2020-09-30T14:17:25.000Z</time>
      </trkpt>
      <trkpt lat="44.53768" lon="6.25714">
        <ele>1130.4</ele>
        <time>2020-09-30T14:17:22.000Z</time>
      </trkpt>
      <trkpt lat="44.53763" lon="6.25723">
        <ele>1135.7</ele>
        <time>2020-09-30T14:17:18.485Z</time>
      </trkpt>
      <trkpt lat="44.53751" lon="6.25737">
        <ele>1135.3</ele>
        <time>2020-09-30T14:17:15.000Z</time>
      </trkpt>
      <trkpt lat="44.53733" lon="6.25751">
        <ele>1134.8</ele>
        <time>2020-09-30T14:17:11.000Z</time>
      </trkpt>
      <trkpt lat="44.53721" lon="6.25764">
        <ele>1135.6</ele>
        <time>2020-09-30T14:17:07.000Z</time>
      </trkpt>
      <trkpt lat="44.53715" lon="6.25773">
        <ele>1136.5</ele>
        <time>2020-09-30T14:17:04.000Z</time>
      </trkpt>
      <trkpt lat="44.53709" lon="6.25783">
        <ele>1136.4</ele>
        <time>2020-09-30T14:17:01.000Z</time>
      </trkpt>
      <trkpt lat="44.53696" lon="6.25798">
        <ele>1140.7</ele>
        <time>2020-09-30T14:16:57.000Z</time>
      </trkpt>
      <trkpt lat="44.53683" lon="6.2581">
        <ele>1141.1</ele>
        <time>2020-09-30T14:16:54.000Z</time>
      </trkpt>
      <trkpt lat="44.53671" lon="6.2582">
        <ele>1143</ele>
        <time>2020-09-30T14:16:49.764Z</time>
      </trkpt>
      <trkpt lat="44.53663" lon="6.25824">
        <ele>1140.9</ele>
        <time>2020-09-30T14:16:47.000Z</time>
      </trkpt>
      <trkpt lat="44.53654" lon="6.25832">
        <ele>1140.2</ele>
        <time>2020-09-30T14:16:44.000Z</time>
      </trkpt>
      <trkpt lat="44.53648" lon="6.25836">
        <ele>1138.3</ele>
        <time>2020-09-30T14:16:39.939Z</time>
      </trkpt>
      <trkpt lat="44.53643" lon="6.25836">
        <ele>1137.5</ele>
        <time>2020-09-30T14:16:37.000Z</time>
      </trkpt>
      <trkpt lat="44.53636" lon="6.25837">
        <ele>1138.6</ele>
        <time>2020-09-30T14:16:34.000Z</time>
      </trkpt>
      <trkpt lat="44.53631" lon="6.25838">
        <ele>1131.2</ele>
        <time>2020-09-30T14:16:29.905Z</time>
      </trkpt>
      <trkpt lat="44.53626" lon="6.25834">
        <ele>1129.7</ele>
        <time>2020-09-30T14:16:23.000Z</time>
      </trkpt>
      <trkpt lat="44.53617" lon="6.25833">
        <ele>1130.4</ele>
        <time>2020-09-30T14:16:18.979Z</time>
      </trkpt>
      <trkpt lat="44.53612" lon="6.25836">
        <ele>1128.8</ele>
        <time>2020-09-30T14:16:16.000Z</time>
      </trkpt>
      <trkpt lat="44.5361" lon="6.25842">
        <ele>1127.9</ele>
        <time>2020-09-30T14:16:13.000Z</time>
      </trkpt>
      <trkpt lat="44.53606" lon="6.25845">
        <ele>1129.4</ele>
        <time>2020-09-30T14:14:58.000Z</time>
      </trkpt>
      <trkpt lat="44.53609" lon="6.2585">
        <ele>1131.4</ele>
        <time>2020-09-30T14:14:44.000Z</time>
      </trkpt>
      <trkpt lat="44.53605" lon="6.25856">
        <ele>1120.2</ele>
        <time>2020-09-30T14:14:37.000Z</time>
      </trkpt>
      <trkpt lat="44.53602" lon="6.25866">
        <ele>1115.1</ele>
        <time>2020-09-30T14:14:33.000Z</time>
      </trkpt>
      <trkpt lat="44.53594" lon="6.25875">
        <ele>1115.6</ele>
        <time>2020-09-30T14:14:29.000Z</time>
      </trkpt>
      <trkpt lat="44.53588" lon="6.25879">
        <ele>1115.4</ele>
        <time>2020-09-30T14:14:26.000Z</time>
      </trkpt>
      <trkpt lat="44.53581" lon="6.25885">
        <ele>1115.7</ele>
        <time>2020-09-30T14:14:22.000Z</time>
      </trkpt>
      <trkpt lat="44.53575" lon="6.25891">
        <ele>1117.2</ele>
        <time>2020-09-30T14:14:18.000Z</time>
      </trkpt>
      <trkpt lat="44.53569" lon="6.25897">
        <ele>1112.3</ele>
        <time>2020-09-30T14:14:14.280Z</time>
      </trkpt>
      <trkpt lat="44.53566" lon="6.25904">
        <ele>1115.2</ele>
        <time>2020-09-30T14:14:11.213Z</time>
      </trkpt>
      <trkpt lat="44.53565" lon="6.25915">
        <ele>1111</ele>
        <time>2020-09-30T14:14:08.000Z</time>
      </trkpt>
      <trkpt lat="44.53564" lon="6.25924">
        <ele>1110.8</ele>
        <time>2020-09-30T14:14:05.000Z</time>
      </trkpt>
      <trkpt lat="44.53562" lon="6.25934">
        <ele>1111.8</ele>
        <time>2020-09-30T14:14:02.000Z</time>
      </trkpt>
      <trkpt lat="44.53559" lon="6.25941">
        <ele>1112.6</ele>
        <time>2020-09-30T14:13:59.000Z</time>
      </trkpt>
      <trkpt lat="44.53557" lon="6.2595">
        <ele>1112.6</ele>
        <time>2020-09-30T14:13:55.000Z</time>
      </trkpt>
      <trkpt lat="44.53554" lon="6.25962">
        <ele>1111.8</ele>
        <time>2020-09-30T14:13:51.000Z</time>
      </trkpt>
      <trkpt lat="44.53552" lon="6.25971">
        <ele>1116.9</ele>
        <time>2020-09-30T14:13:47.458Z</time>
      </trkpt>
      <trkpt lat="44.53547" lon="6.2598">
        <ele>1114.3</ele>
        <time>2020-09-30T14:13:44.000Z</time>
      </trkpt>
      <trkpt lat="44.53542" lon="6.25985">
        <ele>1114.6</ele>
        <time>2020-09-30T14:13:41.000Z</time>
      </trkpt>
      <trkpt lat="44.53534" lon="6.25993">
        <ele>1114</ele>
        <time>2020-09-30T14:13:37.000Z</time>
      </trkpt>
      <trkpt lat="44.53524" lon="6.25999">
        <ele>1113.9</ele>
        <time>2020-09-30T14:13:33.000Z</time>
      </trkpt>
      <trkpt lat="44.53517" lon="6.26001">
        <ele>1110.5</ele>
        <time>2020-09-30T14:13:30.000Z</time>
      </trkpt>
      <trkpt lat="44.5351" lon="6.26005">
        <ele>1107</ele>
        <time>2020-09-30T14:13:27.000Z</time>
      </trkpt>
      <trkpt lat="44.53499" lon="6.2601">
        <ele>1109.7</ele>
        <time>2020-09-30T14:13:23.000Z</time>
      </trkpt>
      <trkpt lat="44.53493" lon="6.26011">
        <ele>1110</ele>
        <time>2020-09-30T14:13:20.000Z</time>
      </trkpt>
      <trkpt lat="44.53488" lon="6.26015">
        <ele>1108.9</ele>
        <time>2020-09-30T14:13:17.000Z</time>
      </trkpt>
      <trkpt lat="44.53482" lon="6.26021">
        <ele>1108.6</ele>
        <time>2020-09-30T14:13:13.127Z</time>
      </trkpt>
      <trkpt lat="44.53477" lon="6.26025">
        <ele>1107.5</ele>
        <time>2020-09-30T14:13:10.000Z</time>
      </trkpt>
      <trkpt lat="44.53473" lon="6.26028">
        <ele>1106.9</ele>
        <time>2020-09-30T14:13:07.000Z</time>
      </trkpt>
      <trkpt lat="44.53467" lon="6.26035">
        <ele>1109</ele>
        <time>2020-09-30T14:13:03.000Z</time>
      </trkpt>
      <trkpt lat="44.53464" lon="6.26042">
        <ele>1107.5</ele>
        <time>2020-09-30T14:12:59.338Z</time>
      </trkpt>
      <trkpt lat="44.53461" lon="6.26052">
        <ele>1106.6</ele>
        <time>2020-09-30T14:12:56.000Z</time>
      </trkpt>
      <trkpt lat="44.53458" lon="6.26062">
        <ele>1102.8</ele>
        <time>2020-09-30T14:12:51.678Z</time>
      </trkpt>
      <trkpt lat="44.53455" lon="6.26072">
        <ele>1101.8</ele>
        <time>2020-09-30T14:12:49.000Z</time>
      </trkpt>
      <trkpt lat="44.53452" lon="6.26083">
        <ele>1098.5</ele>
        <time>2020-09-30T14:12:45.000Z</time>
      </trkpt>
      <trkpt lat="44.53449" lon="6.26094">
        <ele>1095.9</ele>
        <time>2020-09-30T14:12:41.488Z</time>
      </trkpt>
      <trkpt lat="44.53445" lon="6.26106">
        <ele>1095</ele>
        <time>2020-09-30T14:12:38.000Z</time>
      </trkpt>
      <trkpt lat="44.53442" lon="6.26117">
        <ele>1091.8</ele>
        <time>2020-09-30T14:12:34.482Z</time>
      </trkpt>
      <trkpt lat="44.53439" lon="6.26125">
        <ele>1090.6</ele>
        <time>2020-09-30T14:12:32.000Z</time>
      </trkpt>
      <trkpt lat="44.53433" lon="6.26138">
        <ele>1088.7</ele>
        <time>2020-09-30T14:12:28.000Z</time>
      </trkpt>
      <trkpt lat="44.5343" lon="6.2615">
        <ele>1087.9</ele>
        <time>2020-09-30T14:12:25.000Z</time>
      </trkpt>
      <trkpt lat="44.53428" lon="6.2616">
        <ele>1087.6</ele>
        <time>2020-09-30T14:12:22.000Z</time>
      </trkpt>
      <trkpt lat="44.53426" lon="6.26174">
        <ele>1086.8</ele>
        <time>2020-09-30T14:12:18.000Z</time>
      </trkpt>
      <trkpt lat="44.53423" lon="6.2619">
        <ele>1085.6</ele>
        <time>2020-09-30T14:12:14.000Z</time>
      </trkpt>
      <trkpt lat="44.53419" lon="6.26203">
        <ele>1086.3</ele>
        <time>2020-09-30T14:12:10.000Z</time>
      </trkpt>
      <trkpt lat="44.53415" lon="6.26214">
        <ele>1086.4</ele>
        <time>2020-09-30T14:12:07.000Z</time>
      </trkpt>
      <trkpt lat="44.53412" lon="6.26223">
        <ele>1084</ele>
        <time>2020-09-30T14:12:04.000Z</time>
      </trkpt>
      <trkpt lat="44.5341" lon="6.26234">
        <ele>1082.2</ele>
        <time>2020-09-30T14:12:01.000Z</time>
      </trkpt>
      <trkpt lat="44.53406" lon="6.26254">
        <ele>1080.2</ele>
        <time>2020-09-30T14:11:56.983Z</time>
      </trkpt>
      <trkpt lat="44.53401" lon="6.26267">
        <ele>1081.5</ele>
        <time>2020-09-30T14:11:54.000Z</time>
      </trkpt>
      <trkpt lat="44.53395" lon="6.26269">
        <ele>1082.1</ele>
        <time>2020-09-30T14:11:50.168Z</time>
      </trkpt>
      <trkpt lat="44.5339" lon="6.26262">
        <ele>1077.2</ele>
        <time>2020-09-30T14:11:40.000Z</time>
      </trkpt>
      <trkpt lat="44.53385" lon="6.26254">
        <ele>1079.3</ele>
        <time>2020-09-30T14:11:36.000Z</time>
      </trkpt>
      <trkpt lat="44.53367" lon="6.26229">
        <ele>1078.5</ele>
        <time>2020-09-30T14:11:32.000Z</time>
      </trkpt>
      <trkpt lat="44.53351" lon="6.26194">
        <ele>1080.7</ele>
        <time>2020-09-30T14:11:28.000Z</time>
      </trkpt>
      <trkpt lat="44.53337" lon="6.26158">
        <ele>1083</ele>
        <time>2020-09-30T14:11:24.000Z</time>
      </trkpt>
      <trkpt lat="44.53325" lon="6.26129">
        <ele>1085</ele>
        <time>2020-09-30T14:11:20.000Z</time>
      </trkpt>
      <trkpt lat="44.53316" lon="6.26112">
        <ele>1083.8</ele>
        <time>2020-09-30T14:11:15.741Z</time>
      </trkpt>
      <trkpt lat="44.5331" lon="6.26101">
        <ele>1084.7</ele>
        <time>2020-09-30T14:11:12.720Z</time>
      </trkpt>
      <trkpt lat="44.53306" lon="6.26089">
        <ele>1083.9</ele>
        <time>2020-09-30T14:11:10.000Z</time>
      </trkpt>
      <trkpt lat="44.53302" lon="6.26075">
        <ele>1082.4</ele>
        <time>2020-09-30T14:11:06.000Z</time>
      </trkpt>
      <trkpt lat="44.53299" lon="6.26061">
        <ele>1082.9</ele>
        <time>2020-09-30T14:11:02.000Z</time>
      </trkpt>
      <trkpt lat="44.53298" lon="6.2605">
        <ele>1081.3</ele>
        <time>2020-09-30T14:10:59.000Z</time>
      </trkpt>
      <trkpt lat="44.53298" lon="6.26033">
        <ele>1079.3</ele>
        <time>2020-09-30T14:10:55.000Z</time>
      </trkpt>
      <trkpt lat="44.53297" lon="6.26016">
        <ele>1077.6</ele>
        <time>2020-09-30T14:10:51.000Z</time>
      </trkpt>
      <trkpt lat="44.53295" lon="6.25998">
        <ele>1074.9</ele>
        <time>2020-09-30T14:10:48.000Z</time>
      </trkpt>
      <trkpt lat="44.53293" lon="6.2598">
        <ele>1075.5</ele>
        <time>2020-09-30T14:10:45.000Z</time>
      </trkpt>
      <trkpt lat="44.53289" lon="6.25959">
        <ele>1074.5</ele>
        <time>2020-09-30T14:10:41.000Z</time>
      </trkpt>
      <trkpt lat="44.53287" lon="6.25939">
        <ele>1074.7</ele>
        <time>2020-09-30T14:10:38.000Z</time>
      </trkpt>
      <trkpt lat="44.53286" lon="6.25915">
        <ele>1073.2</ele>
        <time>2020-09-30T14:10:34.000Z</time>
      </trkpt>
      <trkpt lat="44.53285" lon="6.25899">
        <ele>1073.2</ele>
        <time>2020-09-30T14:10:31.000Z</time>
      </trkpt>
      <trkpt lat="44.53284" lon="6.25872">
        <ele>1071.9</ele>
        <time>2020-09-30T14:10:27.000Z</time>
      </trkpt>
      <trkpt lat="44.53291" lon="6.2585">
        <ele>1071.9</ele>
        <time>2020-09-30T14:10:23.000Z</time>
      </trkpt>
      <trkpt lat="44.53298" lon="6.25825">
        <ele>1071.8</ele>
        <time>2020-09-30T14:10:19.000Z</time>
      </trkpt>
      <trkpt lat="44.53301" lon="6.258">
        <ele>1076.4</ele>
        <time>2020-09-30T14:10:15.000Z</time>
      </trkpt>
      <trkpt lat="44.53303" lon="6.25777">
        <ele>1074.4</ele>
        <time>2020-09-30T14:10:12.000Z</time>
      </trkpt>
      <trkpt lat="44.53305" lon="6.25752">
        <ele>1074</ele>
        <time>2020-09-30T14:10:09.000Z</time>
      </trkpt>
      <trkpt lat="44.53306" lon="6.25724">
        <ele>1073.3</ele>
        <time>2020-09-30T14:10:05.000Z</time>
      </trkpt>
      <trkpt lat="44.53306" lon="6.25703">
        <ele>1070.4</ele>
        <time>2020-09-30T14:10:02.000Z</time>
      </trkpt>
      <trkpt lat="44.53305" lon="6.25684">
        <ele>1071.1</ele>
        <time>2020-09-30T14:09:59.000Z</time>
      </trkpt>
      <trkpt lat="44.53299" lon="6.25662">
        <ele>1073.1</ele>
        <time>2020-09-30T14:09:55.234Z</time>
      </trkpt>
      <trkpt lat="44.53282" lon="6.25645">
        <ele>1075.2</ele>
        <time>2020-09-30T14:09:51.734Z</time>
      </trkpt>
      <trkpt lat="44.5328" lon="6.25636">
        <ele>1076.1</ele>
        <time>2020-09-30T14:09:49.000Z</time>
      </trkpt>
      <trkpt lat="44.53268" lon="6.25622">
        <ele>1077.2</ele>
        <time>2020-09-30T14:09:46.000Z</time>
      </trkpt>
      <trkpt lat="44.53256" lon="6.25599">
        <ele>1076.8</ele>
        <time>2020-09-30T14:09:43.000Z</time>
      </trkpt>
      <trkpt lat="44.53245" lon="6.25571">
        <ele>1083.8</ele>
        <time>2020-09-30T14:09:35.000Z</time>
      </trkpt>
      <trkpt lat="44.5324" lon="6.25558">
        <ele>1087.1</ele>
        <time>2020-09-30T14:08:16.000Z</time>
      </trkpt>
      <trkpt lat="44.5324" lon="6.25565">
        <ele>1087.9</ele>
        <time>2020-09-30T14:08:06.000Z</time>
      </trkpt>
      <trkpt lat="44.53235" lon="6.25547">
        <ele>1090.7</ele>
        <time>2020-09-30T14:08:02.000Z</time>
      </trkpt>
      <trkpt lat="44.53218" lon="6.25509">
        <ele>1090.8</ele>
        <time>2020-09-30T14:07:58.000Z</time>
      </trkpt>
      <trkpt lat="44.53202" lon="6.25482">
        <ele>1088.6</ele>
        <time>2020-09-30T14:07:55.000Z</time>
      </trkpt>
      <trkpt lat="44.53189" lon="6.25448">
        <ele>1088.2</ele>
        <time>2020-09-30T14:07:51.000Z</time>
      </trkpt>
      <trkpt lat="44.53188" lon="6.25429">
        <ele>1087</ele>
        <time>2020-09-30T14:07:48.000Z</time>
      </trkpt>
      <trkpt lat="44.53189" lon="6.25412">
        <ele>1092.4</ele>
        <time>2020-09-30T14:07:44.238Z</time>
      </trkpt>
      <trkpt lat="44.53195" lon="6.25385">
        <ele>1090.5</ele>
        <time>2020-09-30T14:07:41.000Z</time>
      </trkpt>
      <trkpt lat="44.53204" lon="6.25349">
        <ele>1087.2</ele>
        <time>2020-09-30T14:07:37.000Z</time>
      </trkpt>
      <trkpt lat="44.532" lon="6.25324">
        <ele>1086.9</ele>
        <time>2020-09-30T14:07:34.000Z</time>
      </trkpt>
      <trkpt lat="44.53196" lon="6.2526">
        <ele>1087</ele>
        <time>2020-09-30T14:07:30.000Z</time>
      </trkpt>
      <trkpt lat="44.53185" lon="6.25244">
        <ele>1083.7</ele>
        <time>2020-09-30T14:07:27.000Z</time>
      </trkpt>
      <trkpt lat="44.53179" lon="6.25236">
        <ele>1079</ele>
        <time>2020-09-30T14:07:23.262Z</time>
      </trkpt>
      <trkpt lat="44.5318" lon="6.25225">
        <ele>1071.9</ele>
        <time>2020-09-30T14:07:19.760Z</time>
      </trkpt>
      <trkpt lat="44.53183" lon="6.25213">
        <ele>1076.9</ele>
        <time>2020-09-30T14:07:14.000Z</time>
      </trkpt>
      <trkpt lat="44.53187" lon="6.25207">
        <ele>1081.8</ele>
        <time>2020-09-30T14:07:09.941Z</time>
      </trkpt>
      <trkpt lat="44.53196" lon="6.25199">
        <ele>1084.1</ele>
        <time>2020-09-30T14:07:07.000Z</time>
      </trkpt>
      <trkpt lat="44.53208" lon="6.25188">
        <ele>1087.1</ele>
        <time>2020-09-30T14:07:03.000Z</time>
      </trkpt>
      <trkpt lat="44.53216" lon="6.25182">
        <ele>1086.1</ele>
        <time>2020-09-30T14:06:59.106Z</time>
      </trkpt>
      <trkpt lat="44.53223" lon="6.25179">
        <ele>1085.6</ele>
        <time>2020-09-30T14:06:56.000Z</time>
      </trkpt>
      <trkpt lat="44.53229" lon="6.25176">
        <ele>1084.9</ele>
        <time>2020-09-30T14:06:53.000Z</time>
      </trkpt>
      <trkpt lat="44.53235" lon="6.25173">
        <ele>1083.7</ele>
        <time>2020-09-30T14:06:49.273Z</time>
      </trkpt>
      <trkpt lat="44.53241" lon="6.25169">
        <ele>1081.9</ele>
        <time>2020-09-30T14:06:45.616Z</time>
      </trkpt>
      <trkpt lat="44.53251" lon="6.25164">
        <ele>1084.8</ele>
        <time>2020-09-30T14:06:39.472Z</time>
      </trkpt>
      <trkpt lat="44.53259" lon="6.25157">
        <ele>1087.5</ele>
        <time>2020-09-30T14:06:33.000Z</time>
      </trkpt>
      <trkpt lat="44.53263" lon="6.25155">
        <ele>1088.1</ele>
        <time>2020-09-30T14:06:30.000Z</time>
      </trkpt>
      <trkpt lat="44.53272" lon="6.25153">
        <ele>1090.3</ele>
        <time>2020-09-30T14:06:23.035Z</time>
      </trkpt>
      <trkpt lat="44.53276" lon="6.2516">
        <ele>1090.7</ele>
        <time>2020-09-30T14:06:17.000Z</time>
      </trkpt>
      <trkpt lat="44.53281" lon="6.25161">
        <ele>1089.7</ele>
        <time>2020-09-30T14:06:09.935Z</time>
      </trkpt>
      <trkpt lat="44.53286" lon="6.25158">
        <ele>1087.8</ele>
        <time>2020-09-30T14:06:04.000Z</time>
      </trkpt>
      <trkpt lat="44.53291" lon="6.25154">
        <ele>1085.6</ele>
        <time>2020-09-30T14:06:01.000Z</time>
      </trkpt>
      <trkpt lat="44.53299" lon="6.25153">
        <ele>1086.1</ele>
        <time>2020-09-30T14:05:57.000Z</time>
      </trkpt>
      <trkpt lat="44.53307" lon="6.25157">
        <ele>1083.7</ele>
        <time>2020-09-30T14:05:53.000Z</time>
      </trkpt>
      <trkpt lat="44.53313" lon="6.25158">
        <ele>1083.1</ele>
        <time>2020-09-30T14:05:49.505Z</time>
      </trkpt>
      <trkpt lat="44.53322" lon="6.2515">
        <ele>1079.2</ele>
        <time>2020-09-30T14:05:46.000Z</time>
      </trkpt>
      <trkpt lat="44.5333" lon="6.25142">
        <ele>1075.9</ele>
        <time>2020-09-30T14:05:42.000Z</time>
      </trkpt>
      <trkpt lat="44.53336" lon="6.2513">
        <ele>1071.6</ele>
        <time>2020-09-30T14:05:38.000Z</time>
      </trkpt>
      <trkpt lat="44.53343" lon="6.25119">
        <ele>1068.3</ele>
        <time>2020-09-30T14:05:34.140Z</time>
      </trkpt>
      <trkpt lat="44.53349" lon="6.25108">
        <ele>1067.9</ele>
        <time>2020-09-30T14:05:31.000Z</time>
      </trkpt>
      <trkpt lat="44.53355" lon="6.25101">
        <ele>1068.9</ele>
        <time>2020-09-30T14:05:28.000Z</time>
      </trkpt>
      <trkpt lat="44.53359" lon="6.2509">
        <ele>1068.2</ele>
        <time>2020-09-30T14:05:23.805Z</time>
      </trkpt>
      <trkpt lat="44.53363" lon="6.25081">
        <ele>1067.4</ele>
        <time>2020-09-30T14:05:20.645Z</time>
      </trkpt>
      <trkpt lat="44.53368" lon="6.25072">
        <ele>1065.3</ele>
        <time>2020-09-30T14:05:18.000Z</time>
      </trkpt>
      <trkpt lat="44.53373" lon="6.25062">
        <ele>1067.5</ele>
        <time>2020-09-30T14:05:15.000Z</time>
      </trkpt>
      <trkpt lat="44.53381" lon="6.25054">
        <ele>1070.4</ele>
        <time>2020-09-30T14:05:12.000Z</time>
      </trkpt>
      <trkpt lat="44.53391" lon="6.25051">
        <ele>1069.9</ele>
        <time>2020-09-30T14:05:08.000Z</time>
      </trkpt>
      <trkpt lat="44.53398" lon="6.25047">
        <ele>1069.7</ele>
        <time>2020-09-30T14:05:04.105Z</time>
      </trkpt>
      <trkpt lat="44.53409" lon="6.25044">
        <ele>1069</ele>
        <time>2020-09-30T14:05:00.221Z</time>
      </trkpt>
      <trkpt lat="44.53418" lon="6.25041">
        <ele>1070.7</ele>
        <time>2020-09-30T14:04:57.000Z</time>
      </trkpt>
      <trkpt lat="44.53425" lon="6.25039">
        <ele>1072</ele>
        <time>2020-09-30T14:04:54.000Z</time>
      </trkpt>
      <trkpt lat="44.53431" lon="6.25036">
        <ele>1073.5</ele>
        <time>2020-09-30T14:04:50.000Z</time>
      </trkpt>
      <trkpt lat="44.53438" lon="6.25034">
        <ele>1072.6</ele>
        <time>2020-09-30T14:04:46.000Z</time>
      </trkpt>
      <trkpt lat="44.53445" lon="6.25029">
        <ele>1072.4</ele>
        <time>2020-09-30T14:04:43.000Z</time>
      </trkpt>
      <trkpt lat="44.53454" lon="6.25023">
        <ele>1070.6</ele>
        <time>2020-09-30T14:04:40.000Z</time>
      </trkpt>
      <trkpt lat="44.53464" lon="6.2502">
        <ele>1068.5</ele>
        <time>2020-09-30T14:04:36.000Z</time>
      </trkpt>
      <trkpt lat="44.5347" lon="6.25011">
        <ele>1069.2</ele>
        <time>2020-09-30T14:04:33.000Z</time>
      </trkpt>
      <trkpt lat="44.5348" lon="6.24989">
        <ele>1068.3</ele>
        <time>2020-09-30T14:04:29.000Z</time>
      </trkpt>
      <trkpt lat="44.53487" lon="6.24965">
        <ele>1069.1</ele>
        <time>2020-09-30T14:04:25.000Z</time>
      </trkpt>
      <trkpt lat="44.53495" lon="6.24954">
        <ele>1067.6</ele>
        <time>2020-09-30T14:04:22.000Z</time>
      </trkpt>
      <trkpt lat="44.53506" lon="6.2494">
        <ele>1070.1</ele>
        <time>2020-09-30T14:04:18.000Z</time>
      </trkpt>
      <trkpt lat="44.53514" lon="6.24924">
        <ele>1072.1</ele>
        <time>2020-09-30T14:04:15.000Z</time>
      </trkpt>
      <trkpt lat="44.53519" lon="6.24894">
        <ele>1074.1</ele>
        <time>2020-09-30T14:04:11.000Z</time>
      </trkpt>
      <trkpt lat="44.53526" lon="6.2488">
        <ele>1071.7</ele>
        <time>2020-09-30T14:04:08.000Z</time>
      </trkpt>
      <trkpt lat="44.53528" lon="6.24858">
        <ele>1071.4</ele>
        <time>2020-09-30T14:04:05.000Z</time>
      </trkpt>
      <trkpt lat="44.53523" lon="6.24836">
        <ele>1067.6</ele>
        <time>2020-09-30T14:04:02.000Z</time>
      </trkpt>
      <trkpt lat="44.53526" lon="6.24816">
        <ele>1071</ele>
        <time>2020-09-30T14:03:59.000Z</time>
      </trkpt>
      <trkpt lat="44.53536" lon="6.24794">
        <ele>1069.6</ele>
        <time>2020-09-30T14:03:55.236Z</time>
      </trkpt>
      <trkpt lat="44.53542" lon="6.24779">
        <ele>1069.7</ele>
        <time>2020-09-30T14:03:52.000Z</time>
      </trkpt>
      <trkpt lat="44.53546" lon="6.24755">
        <ele>1070.6</ele>
        <time>2020-09-30T14:03:49.000Z</time>
      </trkpt>
      <trkpt lat="44.53539" lon="6.24731">
        <ele>1072.3</ele>
        <time>2020-09-30T14:03:45.000Z</time>
      </trkpt>
      <trkpt lat="44.53546" lon="6.24717">
        <ele>1072.5</ele>
        <time>2020-09-30T14:03:42.000Z</time>
      </trkpt>
      <trkpt lat="44.53557" lon="6.24693">
        <ele>1070.4</ele>
        <time>2020-09-30T14:03:38.000Z</time>
      </trkpt>
      <trkpt lat="44.53567" lon="6.2467">
        <ele>1071.7</ele>
        <time>2020-09-30T14:03:34.000Z</time>
      </trkpt>
      <trkpt lat="44.53574" lon="6.2465">
        <ele>1071.7</ele>
        <time>2020-09-30T14:03:31.000Z</time>
      </trkpt>
      <trkpt lat="44.53582" lon="6.24633">
        <ele>1069.5</ele>
        <time>2020-09-30T14:03:28.000Z</time>
      </trkpt>
      <trkpt lat="44.53594" lon="6.2462">
        <ele>1069.7</ele>
        <time>2020-09-30T14:03:25.000Z</time>
      </trkpt>
      <trkpt lat="44.53604" lon="6.24607">
        <ele>1068.8</ele>
        <time>2020-09-30T14:03:21.000Z</time>
      </trkpt>
      <trkpt lat="44.53611" lon="6.24598">
        <ele>1070.2</ele>
        <time>2020-09-30T14:03:18.000Z</time>
      </trkpt>
      <trkpt lat="44.53619" lon="6.24589">
        <ele>1071.5</ele>
        <time>2020-09-30T14:03:14.000Z</time>
      </trkpt>
      <trkpt lat="44.53625" lon="6.24585">
        <ele>1072.8</ele>
        <time>2020-09-30T14:03:11.000Z</time>
      </trkpt>
      <trkpt lat="44.53634" lon="6.24577">
        <ele>1071.9</ele>
        <time>2020-09-30T14:03:07.000Z</time>
      </trkpt>
      <trkpt lat="44.5364" lon="6.24568">
        <ele>1069</ele>
        <time>2020-09-30T14:03:04.000Z</time>
      </trkpt>
      <trkpt lat="44.53643" lon="6.24557">
        <ele>1066.9</ele>
        <time>2020-09-30T14:03:01.000Z</time>
      </trkpt>
      <trkpt lat="44.53646" lon="6.24545">
        <ele>1067.5</ele>
        <time>2020-09-30T14:02:57.463Z</time>
      </trkpt>
      <trkpt lat="44.53649" lon="6.24534">
        <ele>1065.8</ele>
        <time>2020-09-30T14:02:54.077Z</time>
      </trkpt>
      <trkpt lat="44.53651" lon="6.24523">
        <ele>1067.3</ele>
        <time>2020-09-30T14:02:50.752Z</time>
      </trkpt>
      <trkpt lat="44.53655" lon="6.2451">
        <ele>1066.2</ele>
        <time>2020-09-30T14:02:47.491Z</time>
      </trkpt>
      <trkpt lat="44.53658" lon="6.245">
        <ele>1065.8</ele>
        <time>2020-09-30T14:02:44.467Z</time>
      </trkpt>
      <trkpt lat="44.5366" lon="6.24491">
        <ele>1066.5</ele>
        <time>2020-09-30T14:02:41.439Z</time>
      </trkpt>
      <trkpt lat="44.53657" lon="6.2448">
        <ele>1065.8</ele>
        <time>2020-09-30T14:02:38.078Z</time>
      </trkpt>
      <trkpt lat="44.53657" lon="6.24466">
        <ele>1066.2</ele>
        <time>2020-09-30T14:02:35.000Z</time>
      </trkpt>
      <trkpt lat="44.53658" lon="6.24452">
        <ele>1065.1</ele>
        <time>2020-09-30T14:02:30.660Z</time>
      </trkpt>
      <trkpt lat="44.5366" lon="6.2444">
        <ele>1062.3</ele>
        <time>2020-09-30T14:02:28.000Z</time>
      </trkpt>
      <trkpt lat="44.5366" lon="6.24421">
        <ele>1063.2</ele>
        <time>2020-09-30T14:02:24.000Z</time>
      </trkpt>
      <trkpt lat="44.5366" lon="6.24407">
        <ele>1062.1</ele>
        <time>2020-09-30T14:02:21.000Z</time>
      </trkpt>
      <trkpt lat="44.53662" lon="6.24392">
        <ele>1062</ele>
        <time>2020-09-30T14:02:17.000Z</time>
      </trkpt>
      <trkpt lat="44.53663" lon="6.24381">
        <ele>1063.1</ele>
        <time>2020-09-30T14:02:14.000Z</time>
      </trkpt>
      <trkpt lat="44.53664" lon="6.24367">
        <ele>1063.3</ele>
        <time>2020-09-30T14:02:10.335Z</time>
      </trkpt>
      <trkpt lat="44.53667" lon="6.24354">
        <ele>1062.8</ele>
        <time>2020-09-30T14:02:07.000Z</time>
      </trkpt>
      <trkpt lat="44.53669" lon="6.24341">
        <ele>1060.6</ele>
        <time>2020-09-30T14:02:04.000Z</time>
      </trkpt>
      <trkpt lat="44.5367" lon="6.24328">
        <ele>1059.3</ele>
        <time>2020-09-30T14:02:01.000Z</time>
      </trkpt>
      <trkpt lat="44.5367" lon="6.24315">
        <ele>1060.7</ele>
        <time>2020-09-30T14:01:57.392Z</time>
      </trkpt>
      <trkpt lat="44.53667" lon="6.24299">
        <ele>1060.9</ele>
        <time>2020-09-30T14:01:54.000Z</time>
      </trkpt>
      <trkpt lat="44.53658" lon="6.24285">
        <ele>1061.5</ele>
        <time>2020-09-30T14:01:50.000Z</time>
      </trkpt>
      <trkpt lat="44.53651" lon="6.24269">
        <ele>1057.4</ele>
        <time>2020-09-30T14:01:46.000Z</time>
      </trkpt>
      <trkpt lat="44.53648" lon="6.24251">
        <ele>1057.2</ele>
        <time>2020-09-30T14:01:42.000Z</time>
      </trkpt>
      <trkpt lat="44.53647" lon="6.24233">
        <ele>1057.3</ele>
        <time>2020-09-30T14:01:38.000Z</time>
      </trkpt>
      <trkpt lat="44.53645" lon="6.24215">
        <ele>1056.3</ele>
        <time>2020-09-30T14:01:34.000Z</time>
      </trkpt>
      <trkpt lat="44.53648" lon="6.24201">
        <ele>1056.6</ele>
        <time>2020-09-30T14:01:30.000Z</time>
      </trkpt>
      <trkpt lat="44.53656" lon="6.24198">
        <ele>1057</ele>
        <time>2020-09-30T14:01:26.381Z</time>
      </trkpt>
      <trkpt lat="44.5367" lon="6.242">
        <ele>1057.6</ele>
        <time>2020-09-30T14:01:22.777Z</time>
      </trkpt>
      <trkpt lat="44.53686" lon="6.24201">
        <ele>1057.2</ele>
        <time>2020-09-30T14:01:19.000Z</time>
      </trkpt>
      <trkpt lat="44.53695" lon="6.24197">
        <ele>1055.9</ele>
        <time>2020-09-30T14:01:16.000Z</time>
      </trkpt>
      <trkpt lat="44.53702" lon="6.24185">
        <ele>1055</ele>
        <time>2020-09-30T14:01:11.775Z</time>
      </trkpt>
      <trkpt lat="44.53704" lon="6.24169">
        <ele>1054.1</ele>
        <time>2020-09-30T14:01:09.000Z</time>
      </trkpt>
      <trkpt lat="44.53702" lon="6.24155">
        <ele>1055.1</ele>
        <time>2020-09-30T14:01:06.000Z</time>
      </trkpt>
      <trkpt lat="44.53696" lon="6.2414">
        <ele>1057.9</ele>
        <time>2020-09-30T14:01:03.000Z</time>
      </trkpt>
      <trkpt lat="44.53688" lon="6.2413">
        <ele>1056.8</ele>
        <time>2020-09-30T14:01:00.000Z</time>
      </trkpt>
      <trkpt lat="44.5368" lon="6.24118">
        <ele>1055.7</ele>
        <time>2020-09-30T14:00:55.603Z</time>
      </trkpt>
      <trkpt lat="44.53676" lon="6.24106">
        <ele>1053.8</ele>
        <time>2020-09-30T14:00:50.000Z</time>
      </trkpt>
      <trkpt lat="44.5368" lon="6.24104">
        <ele>1051.1</ele>
        <time>2020-09-30T14:00:47.000Z</time>
      </trkpt>
      <trkpt lat="44.53689" lon="6.241">
        <ele>1046.3</ele>
        <time>2020-09-30T14:00:43.000Z</time>
      </trkpt>
      <trkpt lat="44.53695" lon="6.24088">
        <ele>1047</ele>
        <time>2020-09-30T14:00:39.000Z</time>
      </trkpt>
      <trkpt lat="44.53699" lon="6.24073">
        <ele>1044.7</ele>
        <time>2020-09-30T14:00:35.000Z</time>
      </trkpt>
      <trkpt lat="44.53701" lon="6.24053">
        <ele>1043.7</ele>
        <time>2020-09-30T14:00:30.652Z</time>
      </trkpt>
      <trkpt lat="44.53702" lon="6.24032">
        <ele>1040.7</ele>
        <time>2020-09-30T14:00:28.000Z</time>
      </trkpt>
      <trkpt lat="44.53705" lon="6.24007">
        <ele>1040.8</ele>
        <time>2020-09-30T14:00:25.000Z</time>
      </trkpt>
      <trkpt lat="44.53704" lon="6.2398">
        <ele>1042.5</ele>
        <time>2020-09-30T14:00:20.882Z</time>
      </trkpt>
      <trkpt lat="44.53704" lon="6.2397">
        <ele>1041.5</ele>
        <time>2020-09-30T14:00:18.000Z</time>
      </trkpt>
      <trkpt lat="44.53704" lon="6.2396">
        <ele>1042.2</ele>
        <time>2020-09-30T14:00:14.277Z</time>
      </trkpt>
      <trkpt lat="44.53704" lon="6.23951">
        <ele>1040.3</ele>
        <time>2020-09-30T14:00:10.893Z</time>
      </trkpt>
      <trkpt lat="44.53704" lon="6.23941">
        <ele>1043</ele>
        <time>2020-09-30T14:00:04.000Z</time>
      </trkpt>
      <trkpt lat="44.53703" lon="6.23932">
        <ele>1044.6</ele>
        <time>2020-09-30T13:59:57.000Z</time>
      </trkpt>
      <trkpt lat="44.53705" lon="6.23925">
        <ele>1045.5</ele>
        <time>2020-09-30T13:59:53.000Z</time>
      </trkpt>
      <trkpt lat="44.53711" lon="6.23917">
        <ele>1044.1</ele>
        <time>2020-09-30T13:59:49.000Z</time>
      </trkpt>
      <trkpt lat="44.53718" lon="6.23903">
        <ele>1044.1</ele>
        <time>2020-09-30T13:59:45.000Z</time>
      </trkpt>
      <trkpt lat="44.53721" lon="6.23884">
        <ele>1043.4</ele>
        <time>2020-09-30T13:59:42.000Z</time>
      </trkpt>
      <trkpt lat="44.53724" lon="6.23861">
        <ele>1044.6</ele>
        <time>2020-09-30T13:59:38.000Z</time>
      </trkpt>
      <trkpt lat="44.53725" lon="6.23854">
        <ele>1045.2</ele>
        <time>2020-09-30T13:59:34.000Z</time>
      </trkpt>
      <trkpt lat="44.53725" lon="6.23842">
        <ele>1040.5</ele>
        <time>2020-09-30T13:59:27.000Z</time>
      </trkpt>
      <trkpt lat="44.53726" lon="6.23833">
        <ele>1044.7</ele>
        <time>2020-09-30T13:59:23.000Z</time>
      </trkpt>
      <trkpt lat="44.53726" lon="6.23821">
        <ele>1044.3</ele>
        <time>2020-09-30T13:59:20.000Z</time>
      </trkpt>
      <trkpt lat="44.53727" lon="6.2381">
        <ele>1044.8</ele>
        <time>2020-09-30T13:59:17.000Z</time>
      </trkpt>
      <trkpt lat="44.53727" lon="6.23795">
        <ele>1043.2</ele>
        <time>2020-09-30T13:59:13.000Z</time>
      </trkpt>
      <trkpt lat="44.53728" lon="6.23787">
        <ele>1043.7</ele>
        <time>2020-09-30T13:59:10.000Z</time>
      </trkpt>
      <trkpt lat="44.53734" lon="6.23784">
        <ele>1043.8</ele>
        <time>2020-09-30T13:59:05.661Z</time>
      </trkpt>
      <trkpt lat="44.5374" lon="6.23792">
        <ele>1045.2</ele>
        <time>2020-09-30T13:59:03.000Z</time>
      </trkpt>
      <trkpt lat="44.53745" lon="6.23801">
        <ele>1046</ele>
        <time>2020-09-30T13:58:59.281Z</time>
      </trkpt>
      <trkpt lat="44.53754" lon="6.23812">
        <ele>1047</ele>
        <time>2020-09-30T13:58:56.000Z</time>
      </trkpt>
      <trkpt lat="44.53766" lon="6.23819">
        <ele>1048.4</ele>
        <time>2020-09-30T13:58:50.000Z</time>
      </trkpt>
      <trkpt lat="44.53778" lon="6.23811">
        <ele>1048.8</ele>
        <time>2020-09-30T13:58:47.000Z</time>
      </trkpt>
      <trkpt lat="44.53793" lon="6.23805">
        <ele>1048.4</ele>
        <time>2020-09-30T13:58:44.000Z</time>
      </trkpt>
      <trkpt lat="44.53811" lon="6.23801">
        <ele>1047.3</ele>
        <time>2020-09-30T13:58:41.000Z</time>
      </trkpt>
      <trkpt lat="44.53844" lon="6.23808">
        <ele>1045.4</ele>
        <time>2020-09-30T13:58:38.000Z</time>
      </trkpt>
      <trkpt lat="44.53853" lon="6.23805">
        <ele>1042.9</ele>
        <time>2020-09-30T13:58:33.914Z</time>
      </trkpt>
      <trkpt lat="44.53858" lon="6.23805">
        <ele>1038.6</ele>
        <time>2020-09-30T13:58:30.584Z</time>
      </trkpt>
      <trkpt lat="44.53864" lon="6.23811">
        <ele>1035.3</ele>
        <time>2020-09-30T13:58:28.000Z</time>
      </trkpt>
      <trkpt lat="44.53871" lon="6.23818">
        <ele>1030.9</ele>
        <time>2020-09-30T13:58:23.961Z</time>
      </trkpt>
      <trkpt lat="44.53877" lon="6.23822">
        <ele>1027.3</ele>
        <time>2020-09-30T13:58:21.000Z</time>
      </trkpt>
      <trkpt lat="44.53883" lon="6.23827">
        <ele>1032.4</ele>
        <time>2020-09-30T13:58:14.000Z</time>
      </trkpt>
      <trkpt lat="44.53888" lon="6.23829">
        <ele>1032.2</ele>
        <time>2020-09-30T13:58:11.000Z</time>
      </trkpt>
      <trkpt lat="44.53893" lon="6.23833">
        <ele>1034.7</ele>
        <time>2020-09-30T13:58:03.962Z</time>
      </trkpt>
      <trkpt lat="44.539" lon="6.23837">
        <ele>1032.8</ele>
        <time>2020-09-30T13:57:57.307Z</time>
      </trkpt>
      <trkpt lat="44.53904" lon="6.2384">
        <ele>1031.8</ele>
        <time>2020-09-30T13:57:54.119Z</time>
      </trkpt>
      <trkpt lat="44.53907" lon="6.23845">
        <ele>1030.7</ele>
        <time>2020-09-30T13:57:51.060Z</time>
      </trkpt>
      <trkpt lat="44.53915" lon="6.23855">
        <ele>1029.4</ele>
        <time>2020-09-30T13:57:47.440Z</time>
      </trkpt>
      <trkpt lat="44.53921" lon="6.23862">
        <ele>1027.2</ele>
        <time>2020-09-30T13:57:44.404Z</time>
      </trkpt>
      <trkpt lat="44.53925" lon="6.23873">
        <ele>1027</ele>
        <time>2020-09-30T13:57:41.175Z</time>
      </trkpt>
      <trkpt lat="44.53932" lon="6.23885">
        <ele>1030</ele>
        <time>2020-09-30T13:57:38.138Z</time>
      </trkpt>
      <trkpt lat="44.53942" lon="6.23903">
        <ele>1030</ele>
        <time>2020-09-30T13:57:34.846Z</time>
      </trkpt>
      <trkpt lat="44.53947" lon="6.23922">
        <ele>1028</ele>
        <time>2020-09-30T13:55:41.705Z</time>
      </trkpt>
      <trkpt lat="44.53942" lon="6.23922">
        <ele>1018</ele>
        <time>2020-09-30T13:55:18.000Z</time>
      </trkpt>
      <trkpt lat="44.53946" lon="6.23928">
        <ele>1023.3</ele>
        <time>2020-09-30T13:55:14.000Z</time>
      </trkpt>
      <trkpt lat="44.53951" lon="6.23934">
        <ele>1022.8</ele>
        <time>2020-09-30T13:55:10.145Z</time>
      </trkpt>
      <trkpt lat="44.53957" lon="6.2394">
        <ele>1023.9</ele>
        <time>2020-09-30T13:55:07.000Z</time>
      </trkpt>
      <trkpt lat="44.53965" lon="6.2394">
        <ele>1022.7</ele>
        <time>2020-09-30T13:55:03.000Z</time>
      </trkpt>
      <trkpt lat="44.53975" lon="6.23934">
        <ele>1021.5</ele>
        <time>2020-09-30T13:54:59.375Z</time>
      </trkpt>
      <trkpt lat="44.53986" lon="6.23931">
        <ele>1018.3</ele>
        <time>2020-09-30T13:54:56.000Z</time>
      </trkpt>
      <trkpt lat="44.53999" lon="6.23929">
        <ele>1016.3</ele>
        <time>2020-09-30T13:54:52.000Z</time>
      </trkpt>
      <trkpt lat="44.54009" lon="6.23928">
        <ele>1014.4</ele>
        <time>2020-09-30T13:54:49.000Z</time>
      </trkpt>
      <trkpt lat="44.54018" lon="6.2393">
        <ele>1013.2</ele>
        <time>2020-09-30T13:54:46.000Z</time>
      </trkpt>
      <trkpt lat="44.5403" lon="6.2393">
        <ele>1011.3</ele>
        <time>2020-09-30T13:54:42.136Z</time>
      </trkpt>
      <trkpt lat="44.54042" lon="6.23928">
        <ele>1010.7</ele>
        <time>2020-09-30T13:54:39.000Z</time>
      </trkpt>
      <trkpt lat="44.54054" lon="6.23925">
        <ele>1010.4</ele>
        <time>2020-09-30T13:54:36.000Z</time>
      </trkpt>
      <trkpt lat="44.54068" lon="6.2392">
        <ele>1006</ele>
        <time>2020-09-30T13:54:33.000Z</time>
      </trkpt>
      <trkpt lat="44.54088" lon="6.23906">
        <ele>1005</ele>
        <time>2020-09-30T13:54:29.000Z</time>
      </trkpt>
      <trkpt lat="44.54102" lon="6.23894">
        <ele>1005.9</ele>
        <time>2020-09-30T13:54:26.000Z</time>
      </trkpt>
      <trkpt lat="44.54118" lon="6.23882">
        <ele>1007.2</ele>
        <time>2020-09-30T13:54:22.000Z</time>
      </trkpt>
      <trkpt lat="44.54134" lon="6.23865">
        <ele>1003.8</ele>
        <time>2020-09-30T13:54:18.000Z</time>
      </trkpt>
      <trkpt lat="44.54146" lon="6.23849">
        <ele>1001.4</ele>
        <time>2020-09-30T13:54:15.000Z</time>
      </trkpt>
      <trkpt lat="44.54155" lon="6.23824">
        <ele>1002.6</ele>
        <time>2020-09-30T13:54:11.000Z</time>
      </trkpt>
      <trkpt lat="44.54165" lon="6.23792">
        <ele>1003</ele>
        <time>2020-09-30T13:54:07.000Z</time>
      </trkpt>
      <trkpt lat="44.54171" lon="6.23773">
        <ele>1001.7</ele>
        <time>2020-09-30T13:54:03.088Z</time>
      </trkpt>
      <trkpt lat="44.54178" lon="6.23753">
        <ele>1001.8</ele>
        <time>2020-09-30T13:54:00.000Z</time>
      </trkpt>
      <trkpt lat="44.54184" lon="6.23731">
        <ele>1005.1</ele>
        <time>2020-09-30T13:53:56.125Z</time>
      </trkpt>
      <trkpt lat="44.54188" lon="6.2371">
        <ele>1007.3</ele>
        <time>2020-09-30T13:53:53.000Z</time>
      </trkpt>
      <trkpt lat="44.5419" lon="6.23699">
        <ele>1011.7</ele>
        <time>2020-09-30T13:53:50.000Z</time>
      </trkpt>
      <trkpt lat="44.5419" lon="6.23687">
        <ele>1010.6</ele>
        <time>2020-09-30T13:53:46.000Z</time>
      </trkpt>
      <trkpt lat="44.5419" lon="6.23678">
        <ele>1009.9</ele>
        <time>2020-09-30T13:53:42.349Z</time>
      </trkpt>
      <trkpt lat="44.54192" lon="6.23668">
        <ele>1011.5</ele>
        <time>2020-09-30T13:53:39.000Z</time>
      </trkpt>
      <trkpt lat="44.54195" lon="6.2366">
        <ele>1011.3</ele>
        <time>2020-09-30T13:53:36.000Z</time>
      </trkpt>
      <trkpt lat="44.54197" lon="6.23648">
        <ele>1010.8</ele>
        <time>2020-09-30T13:53:33.000Z</time>
      </trkpt>
      <trkpt lat="44.54198" lon="6.23635">
        <ele>1010.6</ele>
        <time>2020-09-30T13:53:29.000Z</time>
      </trkpt>
      <trkpt lat="44.54198" lon="6.23609">
        <ele>1010.2</ele>
        <time>2020-09-30T13:53:24.716Z</time>
      </trkpt>
      <trkpt lat="44.54198" lon="6.23598">
        <ele>1009</ele>
        <time>2020-09-30T13:53:22.000Z</time>
      </trkpt>
      <trkpt lat="44.54199" lon="6.23586">
        <ele>1007.2</ele>
        <time>2020-09-30T13:53:19.000Z</time>
      </trkpt>
      <trkpt lat="44.54198" lon="6.23575">
        <ele>1003.3</ele>
        <time>2020-09-30T13:53:15.137Z</time>
      </trkpt>
      <trkpt lat="44.54198" lon="6.23561">
        <ele>1000.3</ele>
        <time>2020-09-30T13:53:11.631Z</time>
      </trkpt>
      <trkpt lat="44.54197" lon="6.23553">
        <ele>999</ele>
        <time>2020-09-30T13:53:09.000Z</time>
      </trkpt>
      <trkpt lat="44.54192" lon="6.23542">
        <ele>999.3</ele>
        <time>2020-09-30T13:53:05.000Z</time>
      </trkpt>
      <trkpt lat="44.5419" lon="6.23531">
        <ele>998.8</ele>
        <time>2020-09-30T13:53:02.000Z</time>
      </trkpt>
      <trkpt lat="44.54189" lon="6.2352">
        <ele>997.9</ele>
        <time>2020-09-30T13:52:59.000Z</time>
      </trkpt>
      <trkpt lat="44.54194" lon="6.23504">
        <ele>998.1</ele>
        <time>2020-09-30T13:52:55.000Z</time>
      </trkpt>
      <trkpt lat="44.542" lon="6.23492">
        <ele>996.4</ele>
        <time>2020-09-30T13:52:51.000Z</time>
      </trkpt>
      <trkpt lat="44.54204" lon="6.23482">
        <ele>996.8</ele>
        <time>2020-09-30T13:52:48.000Z</time>
      </trkpt>
      <trkpt lat="44.54205" lon="6.2347">
        <ele>1001.5</ele>
        <time>2020-09-30T13:52:44.000Z</time>
      </trkpt>
      <trkpt lat="44.54203" lon="6.23461">
        <ele>996.9</ele>
        <time>2020-09-30T13:52:41.000Z</time>
      </trkpt>
      <trkpt lat="44.54199" lon="6.23451">
        <ele>995.9</ele>
        <time>2020-09-30T13:52:38.000Z</time>
      </trkpt>
      <trkpt lat="44.54194" lon="6.23434">
        <ele>995.8</ele>
        <time>2020-09-30T13:52:34.000Z</time>
      </trkpt>
      <trkpt lat="44.5419" lon="6.23421">
        <ele>996.8</ele>
        <time>2020-09-30T13:52:31.000Z</time>
      </trkpt>
      <trkpt lat="44.54187" lon="6.23406">
        <ele>997.7</ele>
        <time>2020-09-30T13:52:27.365Z</time>
      </trkpt>
      <trkpt lat="44.54187" lon="6.23385">
        <ele>995.2</ele>
        <time>2020-09-30T13:52:23.672Z</time>
      </trkpt>
      <trkpt lat="44.54184" lon="6.23358">
        <ele>994.9</ele>
        <time>2020-09-30T13:52:20.000Z</time>
      </trkpt>
      <trkpt lat="44.54182" lon="6.23344">
        <ele>992.9</ele>
        <time>2020-09-30T13:52:17.000Z</time>
      </trkpt>
      <trkpt lat="44.54178" lon="6.23328">
        <ele>992.7</ele>
        <time>2020-09-30T13:52:12.811Z</time>
      </trkpt>
      <trkpt lat="44.54175" lon="6.23314">
        <ele>992.4</ele>
        <time>2020-09-30T13:52:10.000Z</time>
      </trkpt>
      <trkpt lat="44.54174" lon="6.23295">
        <ele>993.2</ele>
        <time>2020-09-30T13:52:06.000Z</time>
      </trkpt>
      <trkpt lat="44.54178" lon="6.23284">
        <ele>993.5</ele>
        <time>2020-09-30T13:52:02.000Z</time>
      </trkpt>
      <trkpt lat="44.54181" lon="6.2327">
        <ele>995.7</ele>
        <time>2020-09-30T13:51:59.000Z</time>
      </trkpt>
      <trkpt lat="44.54181" lon="6.23255">
        <ele>997.3</ele>
        <time>2020-09-30T13:51:56.000Z</time>
      </trkpt>
      <trkpt lat="44.54191" lon="6.23237">
        <ele>993.3</ele>
        <time>2020-09-30T13:51:49.000Z</time>
      </trkpt>
      <trkpt lat="44.54196" lon="6.23229">
        <ele>992.9</ele>
        <time>2020-09-30T13:51:45.000Z</time>
      </trkpt>
      <trkpt lat="44.54196" lon="6.23218">
        <ele>992.4</ele>
        <time>2020-09-30T13:51:38.000Z</time>
      </trkpt>
      <trkpt lat="44.54199" lon="6.23203">
        <ele>993</ele>
        <time>2020-09-30T13:51:34.000Z</time>
      </trkpt>
      <trkpt lat="44.54204" lon="6.23188">
        <ele>991.6</ele>
        <time>2020-09-30T13:51:30.000Z</time>
      </trkpt>
      <trkpt lat="44.54216" lon="6.23167">
        <ele>991.7</ele>
        <time>2020-09-30T13:51:26.000Z</time>
      </trkpt>
      <trkpt lat="44.54225" lon="6.23152">
        <ele>992.5</ele>
        <time>2020-09-30T13:51:22.000Z</time>
      </trkpt>
      <trkpt lat="44.54233" lon="6.2314">
        <ele>987.6</ele>
        <time>2020-09-30T13:51:18.000Z</time>
      </trkpt>
      <trkpt lat="44.54238" lon="6.23125">
        <ele>985</ele>
        <time>2020-09-30T13:51:14.000Z</time>
      </trkpt>
      <trkpt lat="44.54242" lon="6.23109">
        <ele>988.1</ele>
        <time>2020-09-30T13:51:10.000Z</time>
      </trkpt>
      <trkpt lat="44.54246" lon="6.23095">
        <ele>987.2</ele>
        <time>2020-09-30T13:51:06.000Z</time>
      </trkpt>
      <trkpt lat="44.54252" lon="6.23088">
        <ele>987.8</ele>
        <time>2020-09-30T13:51:03.000Z</time>
      </trkpt>
      <trkpt lat="44.54263" lon="6.2308">
        <ele>986.5</ele>
        <time>2020-09-30T13:50:58.811Z</time>
      </trkpt>
      <trkpt lat="44.5427" lon="6.23072">
        <ele>988.4</ele>
        <time>2020-09-30T13:50:55.357Z</time>
      </trkpt>
      <trkpt lat="44.54277" lon="6.23064">
        <ele>990.6</ele>
        <time>2020-09-30T13:50:52.000Z</time>
      </trkpt>
      <trkpt lat="44.54283" lon="6.23057">
        <ele>990.7</ele>
        <time>2020-09-30T13:50:48.032Z</time>
      </trkpt>
      <trkpt lat="44.54291" lon="6.23047">
        <ele>990.4</ele>
        <time>2020-09-30T13:50:45.000Z</time>
      </trkpt>
      <trkpt lat="44.54298" lon="6.2304">
        <ele>988.5</ele>
        <time>2020-09-30T13:50:42.000Z</time>
      </trkpt>
      <trkpt lat="44.54307" lon="6.23035">
        <ele>988</ele>
        <time>2020-09-30T13:50:38.499Z</time>
      </trkpt>
      <trkpt lat="44.54318" lon="6.23031">
        <ele>986.4</ele>
        <time>2020-09-30T13:50:36.000Z</time>
      </trkpt>
      <trkpt lat="44.54334" lon="6.23026">
        <ele>984.9</ele>
        <time>2020-09-30T13:50:32.000Z</time>
      </trkpt>
      <trkpt lat="44.5435" lon="6.23035">
        <ele>986.8</ele>
        <time>2020-09-30T13:50:28.293Z</time>
      </trkpt>
      <trkpt lat="44.54358" lon="6.23029">
        <ele>990.9</ele>
        <time>2020-09-30T13:50:25.000Z</time>
      </trkpt>
      <trkpt lat="44.54361" lon="6.23021">
        <ele>990.1</ele>
        <time>2020-09-30T13:50:22.000Z</time>
      </trkpt>
      <trkpt lat="44.54364" lon="6.23008">
        <ele>987.8</ele>
        <time>2020-09-30T13:50:18.000Z</time>
      </trkpt>
      <trkpt lat="44.54369" lon="6.22994">
        <ele>987.7</ele>
        <time>2020-09-30T13:50:14.000Z</time>
      </trkpt>
      <trkpt lat="44.54373" lon="6.22982">
        <ele>987.1</ele>
        <time>2020-09-30T13:50:11.000Z</time>
      </trkpt>
      <trkpt lat="44.54378" lon="6.22969">
        <ele>988.6</ele>
        <time>2020-09-30T13:50:06.824Z</time>
      </trkpt>
      <trkpt lat="44.54381" lon="6.22959">
        <ele>986.7</ele>
        <time>2020-09-30T13:50:04.000Z</time>
      </trkpt>
      <trkpt lat="44.54383" lon="6.22952">
        <ele>989.8</ele>
        <time>2020-09-30T13:50:00.000Z</time>
      </trkpt>
      <trkpt lat="44.54388" lon="6.22942">
        <ele>990.5</ele>
        <time>2020-09-30T13:49:57.000Z</time>
      </trkpt>
      <trkpt lat="44.54395" lon="6.22917">
        <ele>991.5</ele>
        <time>2020-09-30T13:49:53.000Z</time>
      </trkpt>
      <trkpt lat="44.54397" lon="6.22893">
        <ele>991.1</ele>
        <time>2020-09-30T13:49:50.000Z</time>
      </trkpt>
      <trkpt lat="44.54396" lon="6.22857">
        <ele>993</ele>
        <time>2020-09-30T13:49:46.000Z</time>
      </trkpt>
      <trkpt lat="44.54392" lon="6.22825">
        <ele>994.4</ele>
        <time>2020-09-30T13:49:42.000Z</time>
      </trkpt>
      <trkpt lat="44.5439" lon="6.22794">
        <ele>997.5</ele>
        <time>2020-09-30T13:49:38.000Z</time>
      </trkpt>
      <trkpt lat="44.5439" lon="6.22763">
        <ele>1002.3</ele>
        <time>2020-09-30T13:49:34.000Z</time>
      </trkpt>
      <trkpt lat="44.54385" lon="6.22753">
        <ele>1001.9</ele>
        <time>2020-09-30T13:49:31.000Z</time>
      </trkpt>
      <trkpt lat="44.54382" lon="6.22737">
        <ele>1000.7</ele>
        <time>2020-09-30T13:49:27.000Z</time>
      </trkpt>
      <trkpt lat="44.54378" lon="6.22722">
        <ele>999.9</ele>
        <time>2020-09-30T13:49:23.344Z</time>
      </trkpt>
      <trkpt lat="44.54376" lon="6.22713">
        <ele>999.5</ele>
        <time>2020-09-30T13:49:19.825Z</time>
      </trkpt>
      <trkpt lat="44.54374" lon="6.22702">
        <ele>998.1</ele>
        <time>2020-09-30T13:47:50.000Z</time>
      </trkpt>
      <trkpt lat="44.54371" lon="6.22707">
        <ele>996</ele>
        <time>2020-09-30T13:47:46.000Z</time>
      </trkpt>
      <trkpt lat="44.54365" lon="6.22714">
        <ele>993</ele>
        <time>2020-09-30T13:47:38.198Z</time>
      </trkpt>
      <trkpt lat="44.54361" lon="6.22706">
        <ele>990.8</ele>
        <time>2020-09-30T13:47:34.337Z</time>
      </trkpt>
      <trkpt lat="44.54362" lon="6.22695">
        <ele>991.9</ele>
        <time>2020-09-30T13:47:31.163Z</time>
      </trkpt>
      <trkpt lat="44.54369" lon="6.22694">
        <ele>997.6</ele>
        <time>2020-09-30T13:47:24.701Z</time>
      </trkpt>
      <trkpt lat="44.54372" lon="6.227">
        <ele>996.3</ele>
        <time>2020-09-30T13:47:10.000Z</time>
      </trkpt>
      <trkpt lat="44.54368" lon="6.22705">
        <ele>998.5</ele>
        <time>2020-09-30T13:46:49.000Z</time>
      </trkpt>
      <trkpt lat="44.54365" lon="6.22712">
        <ele>995.2</ele>
        <time>2020-09-30T13:46:44.787Z</time>
      </trkpt>
      <trkpt lat="44.5436" lon="6.22715">
        <ele>992.8</ele>
        <time>2020-09-30T13:46:36.000Z</time>
      </trkpt>
      <trkpt lat="44.54365" lon="6.22711">
        <ele>992.9</ele>
        <time>2020-09-30T13:46:33.000Z</time>
      </trkpt>
      <trkpt lat="44.54369" lon="6.22706">
        <ele>992.6</ele>
        <time>2020-09-30T13:46:30.000Z</time>
      </trkpt>
      <trkpt lat="44.54372" lon="6.227">
        <ele>993.4</ele>
        <time>2020-09-30T13:46:13.000Z</time>
      </trkpt>
      <trkpt lat="44.54371" lon="6.22692">
        <ele>994.8</ele>
        <time>2020-09-30T13:46:03.121Z</time>
      </trkpt>
      <trkpt lat="44.54368" lon="6.227">
        <ele>995.9</ele>
        <time>2020-09-30T13:45:57.000Z</time>
      </trkpt>
      <trkpt lat="44.54367" lon="6.22709">
        <ele>991.4</ele>
        <time>2020-09-30T13:45:48.000Z</time>
      </trkpt>
      <trkpt lat="44.54364" lon="6.22719">
        <ele>990.2</ele>
        <time>2020-09-30T13:45:43.383Z</time>
      </trkpt>
      <trkpt lat="44.54356" lon="6.22721">
        <ele>991.4</ele>
        <time>2020-09-30T13:45:36.444Z</time>
      </trkpt>
      <trkpt lat="44.54356" lon="6.22711">
        <ele>989.3</ele>
        <time>2020-09-30T13:45:29.497Z</time>
      </trkpt>
      <trkpt lat="44.5436" lon="6.22704">
        <ele>992</ele>
        <time>2020-09-30T13:45:26.000Z</time>
      </trkpt>
      <trkpt lat="44.54365" lon="6.22692">
        <ele>996</ele>
        <time>2020-09-30T13:45:19.015Z</time>
      </trkpt>
      <trkpt lat="44.54363" lon="6.22681">
        <ele>992.4</ele>
        <time>2020-09-30T13:45:16.000Z</time>
      </trkpt>
      <trkpt lat="44.54361" lon="6.2267">
        <ele>992.5</ele>
        <time>2020-09-30T13:45:12.399Z</time>
      </trkpt>
      <trkpt lat="44.54359" lon="6.22659">
        <ele>990.7</ele>
        <time>2020-09-30T13:45:09.178Z</time>
      </trkpt>
      <trkpt lat="44.54356" lon="6.22644">
        <ele>990.1</ele>
        <time>2020-09-30T13:45:06.000Z</time>
      </trkpt>
      <trkpt lat="44.54353" lon="6.22633">
        <ele>987.8</ele>
        <time>2020-09-30T13:45:01.814Z</time>
      </trkpt>
      <trkpt lat="44.54351" lon="6.2262">
        <ele>984.6</ele>
        <time>2020-09-30T13:44:58.483Z</time>
      </trkpt>
      <trkpt lat="44.54344" lon="6.22607">
        <ele>982.5</ele>
        <time>2020-09-30T13:44:54.884Z</time>
      </trkpt>
      <trkpt lat="44.54339" lon="6.22596">
        <ele>981.3</ele>
        <time>2020-09-30T13:44:52.000Z</time>
      </trkpt>
      <trkpt lat="44.54336" lon="6.22585">
        <ele>979.6</ele>
        <time>2020-09-30T13:44:48.269Z</time>
      </trkpt>
      <trkpt lat="44.54334" lon="6.22566">
        <ele>979</ele>
        <time>2020-09-30T13:44:45.000Z</time>
      </trkpt>
      <trkpt lat="44.54333" lon="6.22551">
        <ele>977.2</ele>
        <time>2020-09-30T13:44:41.363Z</time>
      </trkpt>
      <trkpt lat="44.54333" lon="6.22535">
        <ele>978.3</ele>
        <time>2020-09-30T13:44:37.823Z</time>
      </trkpt>
      <trkpt lat="44.54327" lon="6.22517">
        <ele>978.6</ele>
        <time>2020-09-30T13:44:35.000Z</time>
      </trkpt>
      <trkpt lat="44.54315" lon="6.22504">
        <ele>977.3</ele>
        <time>2020-09-30T13:44:31.252Z</time>
      </trkpt>
      <trkpt lat="44.54307" lon="6.22495">
        <ele>976</ele>
        <time>2020-09-30T13:44:27.773Z</time>
      </trkpt>
      <trkpt lat="44.54301" lon="6.22489">
        <ele>977.4</ele>
        <time>2020-09-30T13:44:24.503Z</time>
      </trkpt>
      <trkpt lat="44.54296" lon="6.22481">
        <ele>976.7</ele>
        <time>2020-09-30T13:44:21.341Z</time>
      </trkpt>
      <trkpt lat="44.54287" lon="6.22466">
        <ele>973.8</ele>
        <time>2020-09-30T13:44:15.000Z</time>
      </trkpt>
      <trkpt lat="44.54284" lon="6.22452">
        <ele>970.2</ele>
        <time>2020-09-30T13:44:10.505Z</time>
      </trkpt>
      <trkpt lat="44.54283" lon="6.22439">
        <ele>970.4</ele>
        <time>2020-09-30T13:44:07.241Z</time>
      </trkpt>
      <trkpt lat="44.54283" lon="6.22426">
        <ele>971.1</ele>
        <time>2020-09-30T13:44:04.000Z</time>
      </trkpt>
      <trkpt lat="44.54282" lon="6.22415">
        <ele>974.2</ele>
        <time>2020-09-30T13:44:00.047Z</time>
      </trkpt>
      <trkpt lat="44.54279" lon="6.22405">
        <ele>975.3</ele>
        <time>2020-09-30T13:43:56.822Z</time>
      </trkpt>
      <trkpt lat="44.5428" lon="6.22395">
        <ele>975.1</ele>
        <time>2020-09-30T13:43:54.000Z</time>
      </trkpt>
      <trkpt lat="44.54285" lon="6.2239">
        <ele>972.2</ele>
        <time>2020-09-30T13:43:50.199Z</time>
      </trkpt>
      <trkpt lat="44.54291" lon="6.2238">
        <ele>971.2</ele>
        <time>2020-09-30T13:43:47.000Z</time>
      </trkpt>
      <trkpt lat="44.54298" lon="6.22367">
        <ele>968.5</ele>
        <time>2020-09-30T13:43:43.107Z</time>
      </trkpt>
      <trkpt lat="44.54304" lon="6.22356">
        <ele>969.9</ele>
        <time>2020-09-30T13:43:39.848Z</time>
      </trkpt>
      <trkpt lat="44.54308" lon="6.2235">
        <ele>969.7</ele>
        <time>2020-09-30T13:43:37.000Z</time>
      </trkpt>
      <trkpt lat="44.54305" lon="6.2236">
        <ele>970.7</ele>
        <time>2020-09-30T13:43:33.022Z</time>
      </trkpt>
      <trkpt lat="44.54298" lon="6.22379">
        <ele>974.2</ele>
        <time>2020-09-30T13:43:30.000Z</time>
      </trkpt>
      <trkpt lat="44.54292" lon="6.22382">
        <ele>975</ele>
        <time>2020-09-30T13:43:26.342Z</time>
      </trkpt>
      <trkpt lat="44.54294" lon="6.22369">
        <ele>970.2</ele>
        <time>2020-09-30T13:43:19.404Z</time>
      </trkpt>
      <trkpt lat="44.54298" lon="6.22363">
        <ele>972.1</ele>
        <time>2020-09-30T13:43:16.272Z</time>
      </trkpt>
      <trkpt lat="44.54306" lon="6.22353">
        <ele>971.7</ele>
        <time>2020-09-30T13:43:12.903Z</time>
      </trkpt>
      <trkpt lat="44.54312" lon="6.22347">
        <ele>974</ele>
        <time>2020-09-30T13:43:10.000Z</time>
      </trkpt>
      <trkpt lat="44.54316" lon="6.22338">
        <ele>973.9</ele>
        <time>2020-09-30T13:43:06.344Z</time>
      </trkpt>
      <trkpt lat="44.54317" lon="6.22326">
        <ele>974.1</ele>
        <time>2020-09-30T13:43:02.905Z</time>
      </trkpt>
      <trkpt lat="44.5432" lon="6.22316">
        <ele>968.4</ele>
        <time>2020-09-30T13:43:00.000Z</time>
      </trkpt>
      <trkpt lat="44.54325" lon="6.22309">
        <ele>968.6</ele>
        <time>2020-09-30T13:42:56.119Z</time>
      </trkpt>
      <trkpt lat="44.54335" lon="6.22302">
        <ele>964.7</ele>
        <time>2020-09-30T13:42:53.000Z</time>
      </trkpt>
      <trkpt lat="44.54342" lon="6.22294">
        <ele>964</ele>
        <time>2020-09-30T13:42:50.000Z</time>
      </trkpt>
      <trkpt lat="44.54343" lon="6.22284">
        <ele>957.6</ele>
        <time>2020-09-30T13:42:46.066Z</time>
      </trkpt>
      <trkpt lat="44.54335" lon="6.22277">
        <ele>957.6</ele>
        <time>2020-09-30T13:42:42.881Z</time>
      </trkpt>
      <trkpt lat="44.54324" lon="6.22274">
        <ele>957.9</ele>
        <time>2020-09-30T13:42:40.000Z</time>
      </trkpt>
      <trkpt lat="44.54317" lon="6.2227">
        <ele>959.1</ele>
        <time>2020-09-30T13:42:36.460Z</time>
      </trkpt>
      <trkpt lat="44.54311" lon="6.22268">
        <ele>959.7</ele>
        <time>2020-09-30T13:42:33.233Z</time>
      </trkpt>
      <trkpt lat="44.54306" lon="6.22269">
        <ele>959.3</ele>
        <time>2020-09-30T13:42:30.209Z</time>
      </trkpt>
      <trkpt lat="44.54299" lon="6.22264">
        <ele>958</ele>
        <time>2020-09-30T13:42:17.186Z</time>
      </trkpt>
      <trkpt lat="44.5429" lon="6.22269">
        <ele>957</ele>
        <time>2020-09-30T13:42:13.900Z</time>
      </trkpt>
      <trkpt lat="44.54285" lon="6.22276">
        <ele>957.6</ele>
        <time>2020-09-30T13:42:10.629Z</time>
      </trkpt>
      <trkpt lat="44.54284" lon="6.22283">
        <ele>958.1</ele>
        <time>2020-09-30T13:42:08.000Z</time>
      </trkpt>
      <trkpt lat="44.54289" lon="6.22287">
        <ele>960.6</ele>
        <time>2020-09-30T13:42:04.363Z</time>
      </trkpt>
      <trkpt lat="44.54291" lon="6.22295">
        <ele>960.5</ele>
        <time>2020-09-30T13:42:01.247Z</time>
      </trkpt>
      <trkpt lat="44.54294" lon="6.22305">
        <ele>960.3</ele>
        <time>2020-09-30T13:41:57.603Z</time>
      </trkpt>
      <trkpt lat="44.54305" lon="6.22311">
        <ele>965</ele>
        <time>2020-09-30T13:41:55.000Z</time>
      </trkpt>
      <trkpt lat="44.54313" lon="6.22317">
        <ele>968.1</ele>
        <time>2020-09-30T13:41:51.382Z</time>
      </trkpt>
      <trkpt lat="44.54316" lon="6.22322">
        <ele>967.9</ele>
        <time>2020-09-30T13:41:47.860Z</time>
      </trkpt>
      <trkpt lat="44.5431" lon="6.22338">
        <ele>972</ele>
        <time>2020-09-30T13:41:45.000Z</time>
      </trkpt>
      <trkpt lat="44.54297" lon="6.22359">
        <ele>974.1</ele>
        <time>2020-09-30T13:41:42.000Z</time>
      </trkpt>
      <trkpt lat="44.54279" lon="6.22396">
        <ele>974</ele>
        <time>2020-09-30T13:41:12.490Z</time>
      </trkpt>
      <trkpt lat="44.5428" lon="6.22403">
        <ele>973.1</ele>
        <time>2020-09-30T13:41:08.711Z</time>
      </trkpt>
      <trkpt lat="44.54284" lon="6.22394">
        <ele>970.5</ele>
        <time>2020-09-30T13:41:02.170Z</time>
      </trkpt>
      <trkpt lat="44.54284" lon="6.22386">
        <ele>970.8</ele>
        <time>2020-09-30T13:40:58.191Z</time>
      </trkpt>
      <trkpt lat="44.54287" lon="6.2238">
        <ele>966.8</ele>
        <time>2020-09-30T13:40:48.000Z</time>
      </trkpt>
      <trkpt lat="44.54291" lon="6.22372">
        <ele>970.1</ele>
        <time>2020-09-30T13:39:52.000Z</time>
      </trkpt>
      <trkpt lat="44.54296" lon="6.22376">
        <ele>968.2</ele>
        <time>2020-09-30T13:39:49.000Z</time>
      </trkpt>
      <trkpt lat="44.54299" lon="6.22372">
        <ele>965.6</ele>
        <time>2020-09-30T13:39:44.788Z</time>
      </trkpt>
      <trkpt lat="44.54304" lon="6.22365">
        <ele>958</ele>
        <time>2020-09-30T13:39:42.000Z</time>
      </trkpt>
      <trkpt lat="44.5431" lon="6.22354">
        <ele>955.2</ele>
        <time>2020-09-30T13:39:38.000Z</time>
      </trkpt>
      <trkpt lat="44.54315" lon="6.22345">
        <ele>954.6</ele>
        <time>2020-09-30T13:39:34.112Z</time>
      </trkpt>
      <trkpt lat="44.54318" lon="6.22339">
        <ele>952.7</ele>
        <time>2020-09-30T13:39:31.000Z</time>
      </trkpt>
      <trkpt lat="44.54321" lon="6.22326">
        <ele>951.9</ele>
        <time>2020-09-30T13:39:27.000Z</time>
      </trkpt>
      <trkpt lat="44.54322" lon="6.22315">
        <ele>951.4</ele>
        <time>2020-09-30T13:39:23.041Z</time>
      </trkpt>
      <trkpt lat="44.54326" lon="6.22308">
        <ele>952.5</ele>
        <time>2020-09-30T13:39:19.786Z</time>
      </trkpt>
      <trkpt lat="44.54331" lon="6.223">
        <ele>950.1</ele>
        <time>2020-09-30T13:39:17.000Z</time>
      </trkpt>
      <trkpt lat="44.54334" lon="6.22293">
        <ele>949.7</ele>
        <time>2020-09-30T13:39:13.270Z</time>
      </trkpt>
      <trkpt lat="44.5434" lon="6.22297">
        <ele>947</ele>
        <time>2020-09-30T13:39:09.691Z</time>
      </trkpt>
      <trkpt lat="44.54347" lon="6.22308">
        <ele>947.7</ele>
        <time>2020-09-30T13:39:07.000Z</time>
      </trkpt>
      <trkpt lat="44.54358" lon="6.22306">
        <ele>947.1</ele>
        <time>2020-09-30T13:39:04.000Z</time>
      </trkpt>
      <trkpt lat="44.54375" lon="6.22279">
        <ele>947.9</ele>
        <time>2020-09-30T13:39:00.000Z</time>
      </trkpt>
      <trkpt lat="44.54389" lon="6.22254">
        <ele>948.5</ele>
        <time>2020-09-30T13:38:57.000Z</time>
      </trkpt>
      <trkpt lat="44.54411" lon="6.22257">
        <ele>949.5</ele>
        <time>2020-09-30T13:38:52.778Z</time>
      </trkpt>
      <trkpt lat="44.54419" lon="6.22256">
        <ele>949.4</ele>
        <time>2020-09-30T13:38:50.000Z</time>
      </trkpt>
      <trkpt lat="44.54427" lon="6.22255">
        <ele>949.2</ele>
        <time>2020-09-30T13:38:46.217Z</time>
      </trkpt>
      <trkpt lat="44.54434" lon="6.22251">
        <ele>944.8</ele>
        <time>2020-09-30T13:38:43.000Z</time>
      </trkpt>
      <trkpt lat="44.54444" lon="6.22248">
        <ele>943.1</ele>
        <time>2020-09-30T13:38:39.000Z</time>
      </trkpt>
      <trkpt lat="44.54452" lon="6.22244">
        <ele>942.7</ele>
        <time>2020-09-30T13:38:36.000Z</time>
      </trkpt>
      <trkpt lat="44.54459" lon="6.22238">
        <ele>940.4</ele>
        <time>2020-09-30T13:38:32.000Z</time>
      </trkpt>
      <trkpt lat="44.54466" lon="6.22236">
        <ele>940.1</ele>
        <time>2020-09-30T13:38:28.000Z</time>
      </trkpt>
      <trkpt lat="44.5448" lon="6.2223">
        <ele>936.8</ele>
        <time>2020-09-30T13:38:24.000Z</time>
      </trkpt>
      <trkpt lat="44.54499" lon="6.22216">
        <ele>940.8</ele>
        <time>2020-09-30T13:38:20.344Z</time>
      </trkpt>
      <trkpt lat="44.54506" lon="6.22206">
        <ele>940.4</ele>
        <time>2020-09-30T13:38:16.564Z</time>
      </trkpt>
      <trkpt lat="44.54517" lon="6.22185">
        <ele>939.1</ele>
        <time>2020-09-30T13:38:14.000Z</time>
      </trkpt>
      <trkpt lat="44.54521" lon="6.22176">
        <ele>937.9</ele>
        <time>2020-09-30T13:38:09.501Z</time>
      </trkpt>
      <trkpt lat="44.54524" lon="6.22169">
        <ele>937.2</ele>
        <time>2020-09-30T13:38:07.000Z</time>
      </trkpt>
      <trkpt lat="44.54525" lon="6.22162">
        <ele>938.4</ele>
        <time>2020-09-30T13:37:59.000Z</time>
      </trkpt>
      <trkpt lat="44.54532" lon="6.22159">
        <ele>938.4</ele>
        <time>2020-09-30T13:35:40.000Z</time>
      </trkpt>
      <trkpt lat="44.54528" lon="6.22163">
        <ele>938.6</ele>
        <time>2020-09-30T13:35:09.000Z</time>
      </trkpt>
      <trkpt lat="44.54531" lon="6.22158">
        <ele>938.5</ele>
        <time>2020-09-30T13:35:05.000Z</time>
      </trkpt>
      <trkpt lat="44.54539" lon="6.22152">
        <ele>937.2</ele>
        <time>2020-09-30T13:35:01.000Z</time>
      </trkpt>
      <trkpt lat="44.54553" lon="6.22142">
        <ele>938.1</ele>
        <time>2020-09-30T13:34:57.000Z</time>
      </trkpt>
      <trkpt lat="44.54565" lon="6.22127">
        <ele>938.6</ele>
        <time>2020-09-30T13:34:54.000Z</time>
      </trkpt>
      <trkpt lat="44.54583" lon="6.22102">
        <ele>934.6</ele>
        <time>2020-09-30T13:34:50.000Z</time>
      </trkpt>
      <trkpt lat="44.54602" lon="6.22082">
        <ele>938.3</ele>
        <time>2020-09-30T13:34:46.000Z</time>
      </trkpt>
      <trkpt lat="44.54619" lon="6.22083">
        <ele>937.6</ele>
        <time>2020-09-30T13:34:43.000Z</time>
      </trkpt>
      <trkpt lat="44.5464" lon="6.2207">
        <ele>937</ele>
        <time>2020-09-30T13:34:39.000Z</time>
      </trkpt>
      <trkpt lat="44.54656" lon="6.22048">
        <ele>939.7</ele>
        <time>2020-09-30T13:34:35.000Z</time>
      </trkpt>
      <trkpt lat="44.54665" lon="6.22035">
        <ele>938.4</ele>
        <time>2020-09-30T13:34:32.000Z</time>
      </trkpt>
      <trkpt lat="44.54671" lon="6.22027">
        <ele>934.2</ele>
        <time>2020-09-30T13:34:29.000Z</time>
      </trkpt>
      <trkpt lat="44.54676" lon="6.22017">
        <ele>930.8</ele>
        <time>2020-09-30T13:34:25.398Z</time>
      </trkpt>
      <trkpt lat="44.54681" lon="6.22008">
        <ele>931.1</ele>
        <time>2020-09-30T13:34:22.346Z</time>
      </trkpt>
      <trkpt lat="44.54687" lon="6.22">
        <ele>929.5</ele>
        <time>2020-09-30T13:34:18.861Z</time>
      </trkpt>
      <trkpt lat="44.5469" lon="6.21991">
        <ele>927.9</ele>
        <time>2020-09-30T13:34:16.000Z</time>
      </trkpt>
      <trkpt lat="44.54693" lon="6.21983">
        <ele>928.8</ele>
        <time>2020-09-30T13:34:13.000Z</time>
      </trkpt>
      <trkpt lat="44.54695" lon="6.21974">
        <ele>925.8</ele>
        <time>2020-09-30T13:34:09.000Z</time>
      </trkpt>
      <trkpt lat="44.54698" lon="6.21966">
        <ele>926.1</ele>
        <time>2020-09-30T13:34:06.000Z</time>
      </trkpt>
      <trkpt lat="44.54703" lon="6.21955">
        <ele>927.7</ele>
        <time>2020-09-30T13:34:02.000Z</time>
      </trkpt>
      <trkpt lat="44.54704" lon="6.21944">
        <ele>925.9</ele>
        <time>2020-09-30T13:33:58.000Z</time>
      </trkpt>
      <trkpt lat="44.54704" lon="6.21932">
        <ele>922.9</ele>
        <time>2020-09-30T13:33:54.000Z</time>
      </trkpt>
      <trkpt lat="44.54708" lon="6.2192">
        <ele>923.9</ele>
        <time>2020-09-30T13:33:50.000Z</time>
      </trkpt>
      <trkpt lat="44.54708" lon="6.21907">
        <ele>922.6</ele>
        <time>2020-09-30T13:33:46.000Z</time>
      </trkpt>
      <trkpt lat="44.54708" lon="6.21898">
        <ele>922</ele>
        <time>2020-09-30T13:33:43.000Z</time>
      </trkpt>
      <trkpt lat="44.54706" lon="6.21885">
        <ele>917.1</ele>
        <time>2020-09-30T13:33:40.000Z</time>
      </trkpt>
      <trkpt lat="44.54702" lon="6.21872">
        <ele>915.4</ele>
        <time>2020-09-30T13:33:36.000Z</time>
      </trkpt>
      <trkpt lat="44.54699" lon="6.21862">
        <ele>917.9</ele>
        <time>2020-09-30T13:33:33.000Z</time>
      </trkpt>
      <trkpt lat="44.54694" lon="6.21849">
        <ele>913.9</ele>
        <time>2020-09-30T13:33:29.000Z</time>
      </trkpt>
      <trkpt lat="44.54689" lon="6.2184">
        <ele>914</ele>
        <time>2020-09-30T13:33:26.000Z</time>
      </trkpt>
      <trkpt lat="44.54682" lon="6.21828">
        <ele>912.2</ele>
        <time>2020-09-30T13:33:22.000Z</time>
      </trkpt>
      <trkpt lat="44.54678" lon="6.2182">
        <ele>910.5</ele>
        <time>2020-09-30T13:33:19.000Z</time>
      </trkpt>
      <trkpt lat="44.54676" lon="6.21812">
        <ele>909.6</ele>
        <time>2020-09-30T13:33:15.000Z</time>
      </trkpt>
      <trkpt lat="44.54672" lon="6.21804">
        <ele>906.4</ele>
        <time>2020-09-30T13:33:12.000Z</time>
      </trkpt>
      <trkpt lat="44.54668" lon="6.21795">
        <ele>907.2</ele>
        <time>2020-09-30T13:33:09.000Z</time>
      </trkpt>
      <trkpt lat="44.54663" lon="6.21782">
        <ele>907.8</ele>
        <time>2020-09-30T13:33:05.000Z</time>
      </trkpt>
      <trkpt lat="44.5466" lon="6.21773">
        <ele>904.2</ele>
        <time>2020-09-30T13:33:00.694Z</time>
      </trkpt>
      <trkpt lat="44.54654" lon="6.21763">
        <ele>902.8</ele>
        <time>2020-09-30T13:32:58.000Z</time>
      </trkpt>
      <trkpt lat="44.54653" lon="6.21748">
        <ele>901.8</ele>
        <time>2020-09-30T13:32:53.658Z</time>
      </trkpt>
      <trkpt lat="44.54654" lon="6.21736">
        <ele>900.9</ele>
        <time>2020-09-30T13:32:51.000Z</time>
      </trkpt>
      <trkpt lat="44.5465" lon="6.21725">
        <ele>897.3</ele>
        <time>2020-09-30T13:32:47.000Z</time>
      </trkpt>
      <trkpt lat="44.54646" lon="6.2171">
        <ele>896.3</ele>
        <time>2020-09-30T13:32:43.000Z</time>
      </trkpt>
      <trkpt lat="44.54643" lon="6.217">
        <ele>895.6</ele>
        <time>2020-09-30T13:32:40.000Z</time>
      </trkpt>
      <trkpt lat="44.54639" lon="6.21688">
        <ele>895</ele>
        <time>2020-09-30T13:32:36.000Z</time>
      </trkpt>
      <trkpt lat="44.54637" lon="6.21677">
        <ele>894.9</ele>
        <time>2020-09-30T13:32:33.000Z</time>
      </trkpt>
      <trkpt lat="44.54637" lon="6.21665">
        <ele>894.5</ele>
        <time>2020-09-30T13:32:30.000Z</time>
      </trkpt>
      <trkpt lat="44.54635" lon="6.21651">
        <ele>891.6</ele>
        <time>2020-09-30T13:32:26.000Z</time>
      </trkpt>
      <trkpt lat="44.54631" lon="6.21637">
        <ele>891.4</ele>
        <time>2020-09-30T13:32:22.119Z</time>
      </trkpt>
      <trkpt lat="44.54631" lon="6.21623">
        <ele>890.3</ele>
        <time>2020-09-30T13:32:18.733Z</time>
      </trkpt>
      <trkpt lat="44.54631" lon="6.21607">
        <ele>891.1</ele>
        <time>2020-09-30T13:32:16.000Z</time>
      </trkpt>
      <trkpt lat="44.5463" lon="6.21594">
        <ele>885.1</ele>
        <time>2020-09-30T13:32:12.337Z</time>
      </trkpt>
      <trkpt lat="44.54627" lon="6.21576">
        <ele>885.1</ele>
        <time>2020-09-30T13:32:09.000Z</time>
      </trkpt>
      <trkpt lat="44.54625" lon="6.21555">
        <ele>878.3</ele>
        <time>2020-09-30T13:32:05.000Z</time>
      </trkpt>
      <trkpt lat="44.54624" lon="6.2154">
        <ele>877.8</ele>
        <time>2020-09-30T13:32:00.999Z</time>
      </trkpt>
      <trkpt lat="44.54619" lon="6.21522">
        <ele>876.6</ele>
        <time>2020-09-30T13:31:58.000Z</time>
      </trkpt>
      <trkpt lat="44.54616" lon="6.21506">
        <ele>878</ele>
        <time>2020-09-30T13:31:54.000Z</time>
      </trkpt>
      <trkpt lat="44.54615" lon="6.21492">
        <ele>876.9</ele>
        <time>2020-09-30T13:31:50.000Z</time>
      </trkpt>
      <trkpt lat="44.54614" lon="6.21474">
        <ele>873.6</ele>
        <time>2020-09-30T13:31:46.000Z</time>
      </trkpt>
      <trkpt lat="44.54613" lon="6.21464">
        <ele>875.6</ele>
        <time>2020-09-30T13:31:43.000Z</time>
      </trkpt>
      <trkpt lat="44.5461" lon="6.21448">
        <ele>872.1</ele>
        <time>2020-09-30T13:31:39.000Z</time>
      </trkpt>
      <trkpt lat="44.54605" lon="6.21431">
        <ele>869.8</ele>
        <time>2020-09-30T13:31:35.000Z</time>
      </trkpt>
      <trkpt lat="44.54602" lon="6.21415">
        <ele>865.7</ele>
        <time>2020-09-30T13:31:32.000Z</time>
      </trkpt>
      <trkpt lat="44.54598" lon="6.21393">
        <ele>864.3</ele>
        <time>2020-09-30T13:31:28.000Z</time>
      </trkpt>
      <trkpt lat="44.54595" lon="6.21375">
        <ele>861.9</ele>
        <time>2020-09-30T13:31:24.462Z</time>
      </trkpt>
      <trkpt lat="44.54591" lon="6.21346">
        <ele>861.5</ele>
        <time>2020-09-30T13:31:21.000Z</time>
      </trkpt>
      <trkpt lat="44.54588" lon="6.21326">
        <ele>860.8</ele>
        <time>2020-09-30T13:31:16.961Z</time>
      </trkpt>
      <trkpt lat="44.54586" lon="6.2132">
        <ele>864</ele>
        <time>2020-09-30T13:31:14.000Z</time>
      </trkpt>
      <trkpt lat="44.54581" lon="6.21314">
        <ele>867.8</ele>
        <time>2020-09-30T13:30:26.000Z</time>
      </trkpt>
      <trkpt lat="44.54577" lon="6.21309">
        <ele>866.1</ele>
        <time>2020-09-30T13:30:22.000Z</time>
      </trkpt>
      <trkpt lat="44.54572" lon="6.21299">
        <ele>863.6</ele>
        <time>2020-09-30T13:30:18.000Z</time>
      </trkpt>
      <trkpt lat="44.54568" lon="6.21287">
        <ele>863.9</ele>
        <time>2020-09-30T13:30:15.000Z</time>
      </trkpt>
      <trkpt lat="44.54564" lon="6.21269">
        <ele>863</ele>
        <time>2020-09-30T13:30:11.000Z</time>
      </trkpt>
      <trkpt lat="44.5456" lon="6.21255">
        <ele>861.7</ele>
        <time>2020-09-30T13:30:07.000Z</time>
      </trkpt>
      <trkpt lat="44.54554" lon="6.21242">
        <ele>860.8</ele>
        <time>2020-09-30T13:30:03.000Z</time>
      </trkpt>
      <trkpt lat="44.54551" lon="6.21233">
        <ele>860.7</ele>
        <time>2020-09-30T13:29:59.359Z</time>
      </trkpt>
      <trkpt lat="44.54549" lon="6.21225">
        <ele>862.4</ele>
        <time>2020-09-30T13:29:56.332Z</time>
      </trkpt>
      <trkpt lat="44.5455" lon="6.21214">
        <ele>861.6</ele>
        <time>2020-09-30T13:29:53.000Z</time>
      </trkpt>
      <trkpt lat="44.5455" lon="6.21198">
        <ele>855.3</ele>
        <time>2020-09-30T13:29:46.000Z</time>
      </trkpt>
      <trkpt lat="44.54551" lon="6.21187">
        <ele>853.3</ele>
        <time>2020-09-30T13:29:42.000Z</time>
      </trkpt>
      <trkpt lat="44.54551" lon="6.21172">
        <ele>851.3</ele>
        <time>2020-09-30T13:29:38.000Z</time>
      </trkpt>
      <trkpt lat="44.54547" lon="6.21159">
        <ele>848.5</ele>
        <time>2020-09-30T13:29:35.000Z</time>
      </trkpt>
      <trkpt lat="44.54542" lon="6.21144">
        <ele>845.1</ele>
        <time>2020-09-30T13:29:31.000Z</time>
      </trkpt>
      <trkpt lat="44.5454" lon="6.21135">
        <ele>847.9</ele>
        <time>2020-09-30T13:29:27.235Z</time>
      </trkpt>
      <trkpt lat="44.54536" lon="6.21127">
        <ele>851.5</ele>
        <time>2020-09-30T13:29:24.000Z</time>
      </trkpt>
      <trkpt lat="44.54532" lon="6.21116">
        <ele>849.5</ele>
        <time>2020-09-30T13:29:20.000Z</time>
      </trkpt>
      <trkpt lat="44.54528" lon="6.211">
        <ele>845.9</ele>
        <time>2020-09-30T13:29:16.000Z</time>
      </trkpt>
      <trkpt lat="44.54525" lon="6.21093">
        <ele>844.3</ele>
        <time>2020-09-30T13:29:13.000Z</time>
      </trkpt>
      <trkpt lat="44.54528" lon="6.21081">
        <ele>843.5</ele>
        <time>2020-09-30T13:29:09.000Z</time>
      </trkpt>
      <trkpt lat="44.54527" lon="6.21071">
        <ele>841.2</ele>
        <time>2020-09-30T13:29:05.543Z</time>
      </trkpt>
      <trkpt lat="44.54524" lon="6.21061">
        <ele>839.2</ele>
        <time>2020-09-30T13:29:02.000Z</time>
      </trkpt>
      <trkpt lat="44.54522" lon="6.21052">
        <ele>843.2</ele>
        <time>2020-09-30T13:28:59.000Z</time>
      </trkpt>
      <trkpt lat="44.54521" lon="6.21042">
        <ele>842.2</ele>
        <time>2020-09-30T13:28:55.281Z</time>
      </trkpt>
      <trkpt lat="44.54521" lon="6.21027">
        <ele>840.1</ele>
        <time>2020-09-30T13:28:52.000Z</time>
      </trkpt>
      <trkpt lat="44.54518" lon="6.21015">
        <ele>835.8</ele>
        <time>2020-09-30T13:28:48.000Z</time>
      </trkpt>
      <trkpt lat="44.54515" lon="6.21004">
        <ele>836.5</ele>
        <time>2020-09-30T13:28:45.000Z</time>
      </trkpt>
      <trkpt lat="44.54514" lon="6.20995">
        <ele>837.2</ele>
        <time>2020-09-30T13:28:42.000Z</time>
      </trkpt>
      <trkpt lat="44.54513" lon="6.20984">
        <ele>834.2</ele>
        <time>2020-09-30T13:28:38.000Z</time>
      </trkpt>
      <trkpt lat="44.54513" lon="6.20977">
        <ele>834.3</ele>
        <time>2020-09-30T13:28:35.000Z</time>
      </trkpt>
      <trkpt lat="44.5451" lon="6.20967">
        <ele>834.7</ele>
        <time>2020-09-30T13:28:31.000Z</time>
      </trkpt>
      <trkpt lat="44.54509" lon="6.20961">
        <ele>836.1</ele>
        <time>2020-09-30T13:28:28.000Z</time>
      </trkpt>
      <trkpt lat="44.54513" lon="6.20957">
        <ele>834</ele>
        <time>2020-09-30T13:28:24.176Z</time>
      </trkpt>
      <trkpt lat="44.54519" lon="6.20957">
        <ele>833.3</ele>
        <time>2020-09-30T13:28:20.802Z</time>
      </trkpt>
      <trkpt lat="44.54525" lon="6.20959">
        <ele>833.8</ele>
        <time>2020-09-30T13:28:18.000Z</time>
      </trkpt>
      <trkpt lat="44.54531" lon="6.2096">
        <ele>833.2</ele>
        <time>2020-09-30T13:28:15.000Z</time>
      </trkpt>
      <trkpt lat="44.54537" lon="6.20952">
        <ele>831.5</ele>
        <time>2020-09-30T13:28:12.000Z</time>
      </trkpt>
      <trkpt lat="44.54532" lon="6.20937">
        <ele>832.8</ele>
        <time>2020-09-30T13:28:07.821Z</time>
      </trkpt>
      <trkpt lat="44.5452" lon="6.20923">
        <ele>832</ele>
        <time>2020-09-30T13:28:04.416Z</time>
      </trkpt>
      <trkpt lat="44.54513" lon="6.20915">
        <ele>831.2</ele>
        <time>2020-09-30T13:28:00.896Z</time>
      </trkpt>
      <trkpt lat="44.54504" lon="6.20907">
        <ele>833.6</ele>
        <time>2020-09-30T13:27:58.000Z</time>
      </trkpt>
      <trkpt lat="44.5449" lon="6.20897">
        <ele>832.6</ele>
        <time>2020-09-30T13:27:54.054Z</time>
      </trkpt>
      <trkpt lat="44.54476" lon="6.20882">
        <ele>834.4</ele>
        <time>2020-09-30T13:27:47.753Z</time>
      </trkpt>
      <trkpt lat="44.54472" lon="6.20876">
        <ele>830.2</ele>
        <time>2020-09-30T13:27:45.000Z</time>
      </trkpt>
      <trkpt lat="44.54462" lon="6.20863">
        <ele>830.2</ele>
        <time>2020-09-30T13:27:42.000Z</time>
      </trkpt>
      <trkpt lat="44.54446" lon="6.20845">
        <ele>831.7</ele>
        <time>2020-09-30T13:27:38.000Z</time>
      </trkpt>
      <trkpt lat="44.54433" lon="6.20829">
        <ele>828.3</ele>
        <time>2020-09-30T13:27:35.000Z</time>
      </trkpt>
      <trkpt lat="44.54415" lon="6.2081">
        <ele>829.2</ele>
        <time>2020-09-30T13:27:32.000Z</time>
      </trkpt>
      <trkpt lat="44.54399" lon="6.20795">
        <ele>829.1</ele>
        <time>2020-09-30T13:27:28.000Z</time>
      </trkpt>
      <trkpt lat="44.54391" lon="6.20788">
        <ele>826.6</ele>
        <time>2020-09-30T13:27:24.068Z</time>
      </trkpt>
      <trkpt lat="44.54386" lon="6.20786">
        <ele>827</ele>
        <time>2020-09-30T13:27:20.948Z</time>
      </trkpt>
      <trkpt lat="44.5438" lon="6.20791">
        <ele>825.6</ele>
        <time>2020-09-30T13:26:28.793Z</time>
      </trkpt>
      <trkpt lat="44.54381" lon="6.20797">
        <ele>825.5</ele>
        <time>2020-09-30T13:26:00.353Z</time>
      </trkpt>
      <trkpt lat="44.54373" lon="6.20804">
        <ele>830.3</ele>
        <time>2020-09-30T13:25:54.000Z</time>
      </trkpt>
      <trkpt lat="44.54371" lon="6.20811">
        <ele>831.6</ele>
        <time>2020-09-30T13:25:50.263Z</time>
      </trkpt>
      <trkpt lat="44.54367" lon="6.20825">
        <ele>832.6</ele>
        <time>2020-09-30T13:25:47.000Z</time>
      </trkpt>
      <trkpt lat="44.54363" lon="6.2084">
        <ele>833.1</ele>
        <time>2020-09-30T13:25:44.000Z</time>
      </trkpt>
      <trkpt lat="44.54354" lon="6.20855">
        <ele>831</ele>
        <time>2020-09-30T13:25:41.000Z</time>
      </trkpt>
      <trkpt lat="44.54346" lon="6.20866">
        <ele>829.6</ele>
        <time>2020-09-30T13:25:37.000Z</time>
      </trkpt>
      <trkpt lat="44.5434" lon="6.20872">
        <ele>828.3</ele>
        <time>2020-09-30T13:25:33.486Z</time>
      </trkpt>
      <trkpt lat="44.54334" lon="6.20877">
        <ele>830.9</ele>
        <time>2020-09-30T13:25:27.219Z</time>
      </trkpt>
      <trkpt lat="44.54331" lon="6.20885">
        <ele>829.5</ele>
        <time>2020-09-30T13:25:24.000Z</time>
      </trkpt>
      <trkpt lat="44.54325" lon="6.20896">
        <ele>831.1</ele>
        <time>2020-09-30T13:25:17.000Z</time>
      </trkpt>
      <trkpt lat="44.54319" lon="6.20903">
        <ele>831.9</ele>
        <time>2020-09-30T13:25:11.000Z</time>
      </trkpt>
      <trkpt lat="44.54312" lon="6.20902">
        <ele>834.7</ele>
        <time>2020-09-30T13:24:57.000Z</time>
      </trkpt>
      <trkpt lat="44.54307" lon="6.20913">
        <ele>833.5</ele>
        <time>2020-09-30T13:24:53.000Z</time>
      </trkpt>
      <trkpt lat="44.54296" lon="6.20929">
        <ele>838.3</ele>
        <time>2020-09-30T13:24:50.000Z</time>
      </trkpt>
      <trkpt lat="44.54284" lon="6.20944">
        <ele>837.1</ele>
        <time>2020-09-30T13:24:47.000Z</time>
      </trkpt>
      <trkpt lat="44.54269" lon="6.20953">
        <ele>840.9</ele>
        <time>2020-09-30T13:24:43.251Z</time>
      </trkpt>
      <trkpt lat="44.54257" lon="6.20956">
        <ele>839.6</ele>
        <time>2020-09-30T13:24:39.855Z</time>
      </trkpt>
      <trkpt lat="44.54252" lon="6.20962">
        <ele>839.1</ele>
        <time>2020-09-30T13:23:58.000Z</time>
      </trkpt>
      <trkpt lat="44.54248" lon="6.20967">
        <ele>837.9</ele>
        <time>2020-09-30T13:23:40.000Z</time>
      </trkpt>
      <trkpt lat="44.54247" lon="6.20974">
        <ele>841.1</ele>
        <time>2020-09-30T13:20:31.000Z</time>
      </trkpt>
      <trkpt lat="44.54239" lon="6.20982">
        <ele>842.7</ele>
        <time>2020-09-30T13:20:28.000Z</time>
      </trkpt>
      <trkpt lat="44.54218" lon="6.20996">
        <ele>847.2</ele>
        <time>2020-09-30T13:20:24.000Z</time>
      </trkpt>
      <trkpt lat="44.54205" lon="6.21001">
        <ele>846.9</ele>
        <time>2020-09-30T13:20:20.000Z</time>
      </trkpt>
      <trkpt lat="44.54193" lon="6.21003">
        <ele>846.6</ele>
        <time>2020-09-30T13:20:17.000Z</time>
      </trkpt>
      <trkpt lat="44.54184" lon="6.21007">
        <ele>847</ele>
        <time>2020-09-30T13:20:14.000Z</time>
      </trkpt>
      <trkpt lat="44.54176" lon="6.21008">
        <ele>845</ele>
        <time>2020-09-30T13:20:10.000Z</time>
      </trkpt>
      <trkpt lat="44.54168" lon="6.21005">
        <ele>847</ele>
        <time>2020-09-30T13:20:05.855Z</time>
      </trkpt>
      <trkpt lat="44.54163" lon="6.20997">
        <ele>846.6</ele>
        <time>2020-09-30T13:20:03.000Z</time>
      </trkpt>
      <trkpt lat="44.54164" lon="6.20991">
        <ele>852.8</ele>
        <time>2020-09-30T13:19:58.746Z</time>
      </trkpt>
      <trkpt lat="44.54163" lon="6.20977">
        <ele>855.8</ele>
        <time>2020-09-30T13:19:53.000Z</time>
      </trkpt>
      <trkpt lat="44.54163" lon="6.20968">
        <ele>855.7</ele>
        <time>2020-09-30T13:19:50.000Z</time>
      </trkpt>
      <trkpt lat="44.54163" lon="6.20959">
        <ele>856.1</ele>
        <time>2020-09-30T13:19:45.856Z</time>
      </trkpt>
      <trkpt lat="44.54159" lon="6.20949">
        <ele>866.4</ele>
        <time>2020-09-30T13:19:25.638Z</time>
      </trkpt>
      <trkpt lat="44.54154" lon="6.20946">
        <ele>870</ele>
        <time>2020-09-30T13:19:18.757Z</time>
      </trkpt>
      <trkpt lat="44.5415" lon="6.2095">
        <ele>871.5</ele>
        <time>2020-09-30T13:19:16.000Z</time>
      </trkpt>
      <trkpt lat="44.54143" lon="6.20968">
        <ele>872.5</ele>
        <time>2020-09-30T13:19:12.000Z</time>
      </trkpt>
      <trkpt lat="44.54128" lon="6.20982">
        <ele>874.4</ele>
        <time>2020-09-30T13:19:08.000Z</time>
      </trkpt>
      <trkpt lat="44.54114" lon="6.20988">
        <ele>877.4</ele>
        <time>2020-09-30T13:19:03.737Z</time>
      </trkpt>
      <trkpt lat="44.54106" lon="6.20994">
        <ele>877.9</ele>
        <time>2020-09-30T13:19:00.318Z</time>
      </trkpt>
      <trkpt lat="44.54102" lon="6.21004">
        <ele>883</ele>
        <time>2020-09-30T13:18:53.000Z</time>
      </trkpt>
      <trkpt lat="44.54096" lon="6.20997">
        <ele>881.3</ele>
        <time>2020-09-30T13:18:45.188Z</time>
      </trkpt>
      <trkpt lat="44.54093" lon="6.20992">
        <ele>880.8</ele>
        <time>2020-09-30T13:18:42.000Z</time>
      </trkpt>
      <trkpt lat="44.54088" lon="6.20984">
        <ele>883.8</ele>
        <time>2020-09-30T13:18:38.000Z</time>
      </trkpt>
      <trkpt lat="44.5408" lon="6.20984">
        <ele>885.1</ele>
        <time>2020-09-30T13:18:35.000Z</time>
      </trkpt>
      <trkpt lat="44.54068" lon="6.20993">
        <ele>884.2</ele>
        <time>2020-09-30T13:18:32.000Z</time>
      </trkpt>
      <trkpt lat="44.54052" lon="6.20999">
        <ele>885.8</ele>
        <time>2020-09-30T13:18:27.503Z</time>
      </trkpt>
      <trkpt lat="44.5405" lon="6.21012">
        <ele>886.4</ele>
        <time>2020-09-30T13:18:23.732Z</time>
      </trkpt>
      <trkpt lat="44.54045" lon="6.21014">
        <ele>892.1</ele>
        <time>2020-09-30T13:18:21.000Z</time>
      </trkpt>
      <trkpt lat="44.54037" lon="6.21013">
        <ele>894.4</ele>
        <time>2020-09-30T13:18:03.000Z</time>
      </trkpt>
      <trkpt lat="44.54026" lon="6.21015">
        <ele>899</ele>
        <time>2020-09-30T13:17:56.000Z</time>
      </trkpt>
      <trkpt lat="44.54018" lon="6.21014">
        <ele>901.3</ele>
        <time>2020-09-30T13:17:53.000Z</time>
      </trkpt>
      <trkpt lat="44.54006" lon="6.21009">
        <ele>904.1</ele>
        <time>2020-09-30T13:17:48.630Z</time>
      </trkpt>
      <trkpt lat="44.54" lon="6.20994">
        <ele>905.2</ele>
        <time>2020-09-30T13:17:46.000Z</time>
      </trkpt>
      <trkpt lat="44.53988" lon="6.20973">
        <ele>907.4</ele>
        <time>2020-09-30T13:17:42.000Z</time>
      </trkpt>
      <trkpt lat="44.53975" lon="6.20962">
        <ele>908.1</ele>
        <time>2020-09-30T13:17:39.000Z</time>
      </trkpt>
      <trkpt lat="44.53951" lon="6.20957">
        <ele>908.2</ele>
        <time>2020-09-30T13:17:35.000Z</time>
      </trkpt>
      <trkpt lat="44.53953" lon="6.20984">
        <ele>909.8</ele>
        <time>2020-09-30T13:17:31.000Z</time>
      </trkpt>
      <trkpt lat="44.53971" lon="6.21007">
        <ele>912.7</ele>
        <time>2020-09-30T13:17:27.000Z</time>
      </trkpt>
      <trkpt lat="44.53979" lon="6.21014">
        <ele>912.6</ele>
        <time>2020-09-30T13:17:24.000Z</time>
      </trkpt>
      <trkpt lat="44.53981" lon="6.21022">
        <ele>914.9</ele>
        <time>2020-09-30T13:17:21.000Z</time>
      </trkpt>
      <trkpt lat="44.53979" lon="6.21033">
        <ele>914.8</ele>
        <time>2020-09-30T13:17:17.472Z</time>
      </trkpt>
      <trkpt lat="44.5397" lon="6.2104">
        <ele>917.7</ele>
        <time>2020-09-30T13:17:14.000Z</time>
      </trkpt>
      <trkpt lat="44.53955" lon="6.21043">
        <ele>921.2</ele>
        <time>2020-09-30T13:17:10.000Z</time>
      </trkpt>
      <trkpt lat="44.53947" lon="6.21044">
        <ele>925.4</ele>
        <time>2020-09-30T13:17:07.000Z</time>
      </trkpt>
      <trkpt lat="44.53937" lon="6.21045">
        <ele>926.6</ele>
        <time>2020-09-30T13:17:03.000Z</time>
      </trkpt>
      <trkpt lat="44.5393" lon="6.21056">
        <ele>927.9</ele>
        <time>2020-09-30T13:17:00.000Z</time>
      </trkpt>
      <trkpt lat="44.53916" lon="6.21061">
        <ele>929.3</ele>
        <time>2020-09-30T13:16:57.000Z</time>
      </trkpt>
      <trkpt lat="44.5391" lon="6.2106">
        <ele>931.5</ele>
        <time>2020-09-30T13:16:54.000Z</time>
      </trkpt>
      <trkpt lat="44.53904" lon="6.21072">
        <ele>933.7</ele>
        <time>2020-09-30T13:16:50.151Z</time>
      </trkpt>
      <trkpt lat="44.53896" lon="6.21077">
        <ele>935.3</ele>
        <time>2020-09-30T13:16:47.000Z</time>
      </trkpt>
      <trkpt lat="44.53888" lon="6.21076">
        <ele>936.4</ele>
        <time>2020-09-30T13:16:44.000Z</time>
      </trkpt>
      <trkpt lat="44.53879" lon="6.21076">
        <ele>936.8</ele>
        <time>2020-09-30T13:16:40.000Z</time>
      </trkpt>
      <trkpt lat="44.53874" lon="6.21078">
        <ele>935.3</ele>
        <time>2020-09-30T13:16:37.000Z</time>
      </trkpt>
      <trkpt lat="44.53868" lon="6.21086">
        <ele>935.1</ele>
        <time>2020-09-30T13:16:33.000Z</time>
      </trkpt>
      <trkpt lat="44.53862" lon="6.21092">
        <ele>934.4</ele>
        <time>2020-09-30T13:16:29.000Z</time>
      </trkpt>
      <trkpt lat="44.53857" lon="6.21105">
        <ele>937.9</ele>
        <time>2020-09-30T13:16:26.000Z</time>
      </trkpt>
      <trkpt lat="44.53845" lon="6.21114">
        <ele>939.1</ele>
        <time>2020-09-30T13:16:21.743Z</time>
      </trkpt>
      <trkpt lat="44.53837" lon="6.21121">
        <ele>943.2</ele>
        <time>2020-09-30T13:16:19.000Z</time>
      </trkpt>
      <trkpt lat="44.53838" lon="6.21135">
        <ele>942.4</ele>
        <time>2020-09-30T13:16:15.000Z</time>
      </trkpt>
      <trkpt lat="44.5383" lon="6.21151">
        <ele>941</ele>
        <time>2020-09-30T13:16:11.000Z</time>
      </trkpt>
      <trkpt lat="44.53825" lon="6.21161">
        <ele>943.2</ele>
        <time>2020-09-30T13:16:08.000Z</time>
      </trkpt>
      <trkpt lat="44.53819" lon="6.21174">
        <ele>943.6</ele>
        <time>2020-09-30T13:16:04.000Z</time>
      </trkpt>
      <trkpt lat="44.53818" lon="6.21185">
        <ele>944.1</ele>
        <time>2020-09-30T13:16:01.000Z</time>
      </trkpt>
      <trkpt lat="44.53815" lon="6.21198">
        <ele>943</ele>
        <time>2020-09-30T13:15:58.000Z</time>
      </trkpt>
      <trkpt lat="44.53813" lon="6.21209">
        <ele>945.3</ele>
        <time>2020-09-30T13:15:53.747Z</time>
      </trkpt>
      <trkpt lat="44.53811" lon="6.21222">
        <ele>943.4</ele>
        <time>2020-09-30T13:15:51.000Z</time>
      </trkpt>
      <trkpt lat="44.53806" lon="6.21234">
        <ele>943.5</ele>
        <time>2020-09-30T13:15:48.000Z</time>
      </trkpt>
      <trkpt lat="44.538" lon="6.21251">
        <ele>943.1</ele>
        <time>2020-09-30T13:15:43.935Z</time>
      </trkpt>
      <trkpt lat="44.53794" lon="6.21261">
        <ele>942.3</ele>
        <time>2020-09-30T13:15:40.818Z</time>
      </trkpt>
      <trkpt lat="44.53786" lon="6.2127">
        <ele>943.6</ele>
        <time>2020-09-30T13:15:38.000Z</time>
      </trkpt>
      <trkpt lat="44.53778" lon="6.21285">
        <ele>943.9</ele>
        <time>2020-09-30T13:15:35.000Z</time>
      </trkpt>
      <trkpt lat="44.53768" lon="6.213">
        <ele>941.2</ele>
        <time>2020-09-30T13:15:31.114Z</time>
      </trkpt>
      <trkpt lat="44.53753" lon="6.21311">
        <ele>945.1</ele>
        <time>2020-09-30T13:15:24.979Z</time>
      </trkpt>
      <trkpt lat="44.53746" lon="6.21313">
        <ele>950.2</ele>
        <time>2020-09-30T13:15:22.000Z</time>
      </trkpt>
      <trkpt lat="44.5374" lon="6.21322">
        <ele>951.2</ele>
        <time>2020-09-30T13:15:12.000Z</time>
      </trkpt>
      <trkpt lat="44.53739" lon="6.21314">
        <ele>952.6</ele>
        <time>2020-09-30T13:13:58.568Z</time>
      </trkpt>
      <trkpt lat="44.53736" lon="6.21308">
        <ele>952.1</ele>
        <time>2020-09-30T13:13:53.000Z</time>
      </trkpt>
      <trkpt lat="44.5373" lon="6.213">
        <ele>951.5</ele>
        <time>2020-09-30T13:13:46.000Z</time>
      </trkpt>
      <trkpt lat="44.53726" lon="6.21296">
        <ele>952.2</ele>
        <time>2020-09-30T13:13:36.000Z</time>
      </trkpt>
      <trkpt lat="44.53721" lon="6.21294">
        <ele>950.6</ele>
        <time>2020-09-30T13:13:29.000Z</time>
      </trkpt>
      <trkpt lat="44.53717" lon="6.21287">
        <ele>953.8</ele>
        <time>2020-09-30T13:13:25.169Z</time>
      </trkpt>
      <trkpt lat="44.53718" lon="6.21275">
        <ele>958.7</ele>
        <time>2020-09-30T13:13:22.000Z</time>
      </trkpt>
      <trkpt lat="44.53718" lon="6.21259">
        <ele>961.4</ele>
        <time>2020-09-30T13:13:15.381Z</time>
      </trkpt>
      <trkpt lat="44.53718" lon="6.21248">
        <ele>960.8</ele>
        <time>2020-09-30T13:12:31.000Z</time>
      </trkpt>
      <trkpt lat="44.53713" lon="6.21247">
        <ele>960</ele>
        <time>2020-09-30T13:12:13.000Z</time>
      </trkpt>
      <trkpt lat="44.53701" lon="6.21253">
        <ele>961</ele>
        <time>2020-09-30T13:12:10.000Z</time>
      </trkpt>
      <trkpt lat="44.53677" lon="6.21253">
        <ele>962.4</ele>
        <time>2020-09-30T13:12:06.000Z</time>
      </trkpt>
      <trkpt lat="44.53662" lon="6.21252">
        <ele>963.8</ele>
        <time>2020-09-30T13:12:03.000Z</time>
      </trkpt>
      <trkpt lat="44.53652" lon="6.2126">
        <ele>965.3</ele>
        <time>2020-09-30T13:11:58.743Z</time>
      </trkpt>
      <trkpt lat="44.53647" lon="6.2127">
        <ele>965.1</ele>
        <time>2020-09-30T13:11:56.000Z</time>
      </trkpt>
      <trkpt lat="44.53636" lon="6.21264">
        <ele>971.8</ele>
        <time>2020-09-30T13:11:52.000Z</time>
      </trkpt>
      <trkpt lat="44.53625" lon="6.2126">
        <ele>972.2</ele>
        <time>2020-09-30T13:11:48.311Z</time>
      </trkpt>
      <trkpt lat="44.53613" lon="6.2126">
        <ele>972.4</ele>
        <time>2020-09-30T13:11:45.000Z</time>
      </trkpt>
      <trkpt lat="44.53608" lon="6.2126">
        <ele>975.8</ele>
        <time>2020-09-30T13:11:42.000Z</time>
      </trkpt>
      <trkpt lat="44.536" lon="6.21269">
        <ele>975.2</ele>
        <time>2020-09-30T13:11:38.000Z</time>
      </trkpt>
      <trkpt lat="44.53597" lon="6.21287">
        <ele>972.6</ele>
        <time>2020-09-30T13:11:35.000Z</time>
      </trkpt>
      <trkpt lat="44.53587" lon="6.21314">
        <ele>972.9</ele>
        <time>2020-09-30T13:11:31.000Z</time>
      </trkpt>
      <trkpt lat="44.53577" lon="6.21319">
        <ele>977.9</ele>
        <time>2020-09-30T13:11:27.000Z</time>
      </trkpt>
      <trkpt lat="44.53566" lon="6.21316">
        <ele>981.7</ele>
        <time>2020-09-30T13:11:23.000Z</time>
      </trkpt>
      <trkpt lat="44.53559" lon="6.21324">
        <ele>980.2</ele>
        <time>2020-09-30T13:11:20.000Z</time>
      </trkpt>
      <trkpt lat="44.53556" lon="6.21349">
        <ele>978</ele>
        <time>2020-09-30T13:11:16.000Z</time>
      </trkpt>
      <trkpt lat="44.53551" lon="6.21365">
        <ele>980.6</ele>
        <time>2020-09-30T13:11:12.127Z</time>
      </trkpt>
      <trkpt lat="44.53544" lon="6.21365">
        <ele>981.6</ele>
        <time>2020-09-30T13:11:06.000Z</time>
      </trkpt>
      <trkpt lat="44.53535" lon="6.21367">
        <ele>980.4</ele>
        <time>2020-09-30T13:11:02.000Z</time>
      </trkpt>
      <trkpt lat="44.53531" lon="6.21391">
        <ele>983.2</ele>
        <time>2020-09-30T13:10:58.000Z</time>
      </trkpt>
      <trkpt lat="44.53531" lon="6.21424">
        <ele>984.5</ele>
        <time>2020-09-30T13:10:55.000Z</time>
      </trkpt>
      <trkpt lat="44.5353" lon="6.21472">
        <ele>988</ele>
        <time>2020-09-30T13:10:51.000Z</time>
      </trkpt>
      <trkpt lat="44.5352" lon="6.21512">
        <ele>991.3</ele>
        <time>2020-09-30T13:10:47.000Z</time>
      </trkpt>
      <trkpt lat="44.53498" lon="6.21538">
        <ele>989.6</ele>
        <time>2020-09-30T13:10:43.000Z</time>
      </trkpt>
      <trkpt lat="44.53481" lon="6.21555">
        <ele>990.9</ele>
        <time>2020-09-30T13:10:40.000Z</time>
      </trkpt>
      <trkpt lat="44.53459" lon="6.2157">
        <ele>993.1</ele>
        <time>2020-09-30T13:10:36.000Z</time>
      </trkpt>
      <trkpt lat="44.53437" lon="6.21575">
        <ele>993.6</ele>
        <time>2020-09-30T13:10:33.000Z</time>
      </trkpt>
      <trkpt lat="44.53413" lon="6.2157">
        <ele>997.2</ele>
        <time>2020-09-30T13:10:29.000Z</time>
      </trkpt>
      <trkpt lat="44.53388" lon="6.21562">
        <ele>999.8</ele>
        <time>2020-09-30T13:10:22.016Z</time>
      </trkpt>
      <trkpt lat="44.53365" lon="6.2156">
        <ele>1001.9</ele>
        <time>2020-09-30T13:10:19.000Z</time>
      </trkpt>
      <trkpt lat="44.53356" lon="6.21547">
        <ele>1005.3</ele>
        <time>2020-09-30T13:10:11.777Z</time>
      </trkpt>
      <trkpt lat="44.53352" lon="6.21539">
        <ele>1006.4</ele>
        <time>2020-09-30T13:10:01.038Z</time>
      </trkpt>
      <trkpt lat="44.53356" lon="6.21534">
        <ele>1003.6</ele>
        <time>2020-09-30T13:09:50.818Z</time>
      </trkpt>
      <trkpt lat="44.53361" lon="6.2153">
        <ele>1001</ele>
        <time>2020-09-30T13:09:45.000Z</time>
      </trkpt>
      <trkpt lat="44.53367" lon="6.21526">
        <ele>1005.5</ele>
        <time>2020-09-30T13:09:34.105Z</time>
      </trkpt>
      <trkpt lat="44.5337" lon="6.21516">
        <ele>1002.9</ele>
        <time>2020-09-30T13:09:24.460Z</time>
      </trkpt>
      <trkpt lat="44.53381" lon="6.21516">
        <ele>1002.5</ele>
        <time>2020-09-30T13:09:21.000Z</time>
      </trkpt>
      <trkpt lat="44.53396" lon="6.21509">
        <ele>1005.9</ele>
        <time>2020-09-30T13:09:18.000Z</time>
      </trkpt>
      <trkpt lat="44.53419" lon="6.21495">
        <ele>1011.8</ele>
        <time>2020-09-30T13:09:14.000Z</time>
      </trkpt>
      <trkpt lat="44.53436" lon="6.21483">
        <ele>1017</ele>
        <time>2020-09-30T13:09:11.000Z</time>
      </trkpt>
      <trkpt lat="44.53467" lon="6.21466">
        <ele>1018.6</ele>
        <time>2020-09-30T13:09:07.026Z</time>
      </trkpt>
      <trkpt lat="44.53478" lon="6.21443">
        <ele>1020.6</ele>
        <time>2020-09-30T13:09:03.344Z</time>
      </trkpt>
      <trkpt lat="44.53476" lon="6.21417">
        <ele>1021.5</ele>
        <time>2020-09-30T13:08:59.510Z</time>
      </trkpt>
      <trkpt lat="44.53474" lon="6.21399">
        <ele>1021.8</ele>
        <time>2020-09-30T13:08:56.314Z</time>
      </trkpt>
      <trkpt lat="44.53471" lon="6.21377">
        <ele>1018.1</ele>
        <time>2020-09-30T13:08:53.216Z</time>
      </trkpt>
      <trkpt lat="44.53466" lon="6.2135">
        <ele>1014.7</ele>
        <time>2020-09-30T13:08:50.000Z</time>
      </trkpt>
      <trkpt lat="44.53466" lon="6.21342">
        <ele>1014.9</ele>
        <time>2020-09-30T13:08:47.000Z</time>
      </trkpt>
      <trkpt lat="44.53465" lon="6.21333">
        <ele>1015.5</ele>
        <time>2020-09-30T13:08:43.073Z</time>
      </trkpt>
      <trkpt lat="44.5347" lon="6.21325">
        <ele>1012.4</ele>
        <time>2020-09-30T13:08:37.000Z</time>
      </trkpt>
      <trkpt lat="44.53473" lon="6.2133">
        <ele>1012.5</ele>
        <time>2020-09-30T13:08:32.872Z</time>
      </trkpt>
      <trkpt lat="44.53471" lon="6.21324">
        <ele>1011.1</ele>
        <time>2020-09-30T13:08:30.000Z</time>
      </trkpt>
      <trkpt lat="44.5347" lon="6.21309">
        <ele>1011.3</ele>
        <time>2020-09-30T13:08:23.000Z</time>
      </trkpt>
      <trkpt lat="44.53472" lon="6.213">
        <ele>1012.4</ele>
        <time>2020-09-30T13:08:19.000Z</time>
      </trkpt>
      <trkpt lat="44.53477" lon="6.21294">
        <ele>1014.6</ele>
        <time>2020-09-30T13:08:16.000Z</time>
      </trkpt>
      <trkpt lat="44.53486" lon="6.21286">
        <ele>1012.4</ele>
        <time>2020-09-30T13:08:12.000Z</time>
      </trkpt>
      <trkpt lat="44.53493" lon="6.21278">
        <ele>1010.5</ele>
        <time>2020-09-30T13:08:09.000Z</time>
      </trkpt>
      <trkpt lat="44.53501" lon="6.21268">
        <ele>1009.1</ele>
        <time>2020-09-30T13:08:05.000Z</time>
      </trkpt>
      <trkpt lat="44.53507" lon="6.21256">
        <ele>1003.3</ele>
        <time>2020-09-30T13:08:01.226Z</time>
      </trkpt>
      <trkpt lat="44.53516" lon="6.21242">
        <ele>1002.3</ele>
        <time>2020-09-30T13:07:58.000Z</time>
      </trkpt>
      <trkpt lat="44.53526" lon="6.21229">
        <ele>1003.1</ele>
        <time>2020-09-30T13:07:55.000Z</time>
      </trkpt>
      <trkpt lat="44.53531" lon="6.21222">
        <ele>1001.2</ele>
        <time>2020-09-30T13:07:52.000Z</time>
      </trkpt>
      <trkpt lat="44.53541" lon="6.2121">
        <ele>995.6</ele>
        <time>2020-09-30T13:07:48.000Z</time>
      </trkpt>
      <trkpt lat="44.53557" lon="6.21203">
        <ele>997</ele>
        <time>2020-09-30T13:07:44.000Z</time>
      </trkpt>
      <trkpt lat="44.53573" lon="6.21165">
        <ele>998.3</ele>
        <time>2020-09-30T13:07:40.000Z</time>
      </trkpt>
      <trkpt lat="44.53589" lon="6.21132">
        <ele>999</ele>
        <time>2020-09-30T13:07:36.324Z</time>
      </trkpt>
      <trkpt lat="44.536" lon="6.21123">
        <ele>999.2</ele>
        <time>2020-09-30T13:07:33.307Z</time>
      </trkpt>
      <trkpt lat="44.53603" lon="6.21117">
        <ele>999.3</ele>
        <time>2020-09-30T13:07:30.000Z</time>
      </trkpt>
      <trkpt lat="44.53612" lon="6.21111">
        <ele>990.7</ele>
        <time>2020-09-30T13:06:04.000Z</time>
      </trkpt>
      <trkpt lat="44.53618" lon="6.2111">
        <ele>988.8</ele>
        <time>2020-09-30T13:05:59.806Z</time>
      </trkpt>
      <trkpt lat="44.53626" lon="6.21103">
        <ele>988</ele>
        <time>2020-09-30T13:05:57.000Z</time>
      </trkpt>
      <trkpt lat="44.53632" lon="6.21095">
        <ele>988.3</ele>
        <time>2020-09-30T13:05:52.988Z</time>
      </trkpt>
      <trkpt lat="44.53635" lon="6.21088">
        <ele>989.3</ele>
        <time>2020-09-30T13:05:49.890Z</time>
      </trkpt>
      <trkpt lat="44.53637" lon="6.2108">
        <ele>984.7</ele>
        <time>2020-09-30T13:05:44.000Z</time>
      </trkpt>
      <trkpt lat="44.53637" lon="6.21067">
        <ele>983.6</ele>
        <time>2020-09-30T13:05:40.000Z</time>
      </trkpt>
      <trkpt lat="44.53638" lon="6.21052">
        <ele>982</ele>
        <time>2020-09-30T13:05:35.969Z</time>
      </trkpt>
      <trkpt lat="44.53639" lon="6.21038">
        <ele>980</ele>
        <time>2020-09-30T13:05:33.000Z</time>
      </trkpt>
      <trkpt lat="44.5364" lon="6.2103">
        <ele>978.7</ele>
        <time>2020-09-30T13:05:30.000Z</time>
      </trkpt>
      <trkpt lat="44.53639" lon="6.21023">
        <ele>980</ele>
        <time>2020-09-30T13:05:26.328Z</time>
      </trkpt>
      <trkpt lat="44.53636" lon="6.21009">
        <ele>980</ele>
        <time>2020-09-30T13:05:23.000Z</time>
      </trkpt>
      <trkpt lat="44.53634" lon="6.20997">
        <ele>980.5</ele>
        <time>2020-09-30T13:05:20.000Z</time>
      </trkpt>
      <trkpt lat="44.53632" lon="6.20979">
        <ele>979.6</ele>
        <time>2020-09-30T13:05:15.973Z</time>
      </trkpt>
      <trkpt lat="44.53631" lon="6.20963">
        <ele>979.2</ele>
        <time>2020-09-30T13:05:13.000Z</time>
      </trkpt>
      <trkpt lat="44.53634" lon="6.20955">
        <ele>978.1</ele>
        <time>2020-09-30T13:05:09.112Z</time>
      </trkpt>
      <trkpt lat="44.53639" lon="6.2095">
        <ele>979.4</ele>
        <time>2020-09-30T13:05:05.844Z</time>
      </trkpt>
      <trkpt lat="44.53643" lon="6.20946">
        <ele>977.8</ele>
        <time>2020-09-30T13:05:03.000Z</time>
      </trkpt>
      <trkpt lat="44.53647" lon="6.2094">
        <ele>975.5</ele>
        <time>2020-09-30T13:04:59.000Z</time>
      </trkpt>
      <trkpt lat="44.53646" lon="6.20933">
        <ele>973.6</ele>
        <time>2020-09-30T13:04:56.000Z</time>
      </trkpt>
      <trkpt lat="44.5364" lon="6.20916">
        <ele>974.9</ele>
        <time>2020-09-30T13:04:52.000Z</time>
      </trkpt>
      <trkpt lat="44.53637" lon="6.209">
        <ele>972.7</ele>
        <time>2020-09-30T13:04:49.000Z</time>
      </trkpt>
      <trkpt lat="44.53635" lon="6.20881">
        <ele>971.2</ele>
        <time>2020-09-30T13:04:45.413Z</time>
      </trkpt>
      <trkpt lat="44.53634" lon="6.20871">
        <ele>967.5</ele>
        <time>2020-09-30T13:04:38.323Z</time>
      </trkpt>
      <trkpt lat="44.5363" lon="6.20858">
        <ele>968.6</ele>
        <time>2020-09-30T13:04:35.000Z</time>
      </trkpt>
      <trkpt lat="44.53625" lon="6.20836">
        <ele>967</ele>
        <time>2020-09-30T13:04:31.000Z</time>
      </trkpt>
      <trkpt lat="44.53618" lon="6.20821">
        <ele>966.2</ele>
        <time>2020-09-30T13:04:28.000Z</time>
      </trkpt>
      <trkpt lat="44.53606" lon="6.20795">
        <ele>966.6</ele>
        <time>2020-09-30T13:04:24.000Z</time>
      </trkpt>
      <trkpt lat="44.53597" lon="6.20771">
        <ele>968.3</ele>
        <time>2020-09-30T13:04:21.000Z</time>
      </trkpt>
      <trkpt lat="44.53589" lon="6.20744">
        <ele>966.9</ele>
        <time>2020-09-30T13:04:18.000Z</time>
      </trkpt>
      <trkpt lat="44.53577" lon="6.2072">
        <ele>966.4</ele>
        <time>2020-09-30T13:04:14.000Z</time>
      </trkpt>
      <trkpt lat="44.53563" lon="6.20706">
        <ele>968.4</ele>
        <time>2020-09-30T13:04:10.000Z</time>
      </trkpt>
      <trkpt lat="44.5355" lon="6.207">
        <ele>967.7</ele>
        <time>2020-09-30T13:04:06.000Z</time>
      </trkpt>
      <trkpt lat="44.53538" lon="6.20689">
        <ele>969</ele>
        <time>2020-09-30T13:04:03.000Z</time>
      </trkpt>
      <trkpt lat="44.53519" lon="6.20663">
        <ele>971.2</ele>
        <time>2020-09-30T13:03:59.000Z</time>
      </trkpt>
      <trkpt lat="44.53497" lon="6.20649">
        <ele>971.7</ele>
        <time>2020-09-30T13:03:56.000Z</time>
      </trkpt>
      <trkpt lat="44.53469" lon="6.2061">
        <ele>971.4</ele>
        <time>2020-09-30T13:03:52.000Z</time>
      </trkpt>
      <trkpt lat="44.53438" lon="6.20567">
        <ele>972.2</ele>
        <time>2020-09-30T13:03:48.000Z</time>
      </trkpt>
      <trkpt lat="44.53421" lon="6.20518">
        <ele>977.7</ele>
        <time>2020-09-30T13:03:44.000Z</time>
      </trkpt>
      <trkpt lat="44.53406" lon="6.20459">
        <ele>983</ele>
        <time>2020-09-30T13:03:40.000Z</time>
      </trkpt>
      <trkpt lat="44.53391" lon="6.204">
        <ele>987.4</ele>
        <time>2020-09-30T13:03:36.000Z</time>
      </trkpt>
      <trkpt lat="44.53368" lon="6.20349">
        <ele>991.8</ele>
        <time>2020-09-30T13:03:32.000Z</time>
      </trkpt>
      <trkpt lat="44.53356" lon="6.2031">
        <ele>991.6</ele>
        <time>2020-09-30T13:03:28.000Z</time>
      </trkpt>
      <trkpt lat="44.53348" lon="6.20268">
        <ele>993.2</ele>
        <time>2020-09-30T13:03:24.000Z</time>
      </trkpt>
      <trkpt lat="44.53342" lon="6.20239">
        <ele>995.2</ele>
        <time>2020-09-30T13:03:21.000Z</time>
      </trkpt>
      <trkpt lat="44.53329" lon="6.20198">
        <ele>996.7</ele>
        <time>2020-09-30T13:03:17.000Z</time>
      </trkpt>
      <trkpt lat="44.53314" lon="6.20157">
        <ele>993.3</ele>
        <time>2020-09-30T13:03:13.000Z</time>
      </trkpt>
      <trkpt lat="44.53291" lon="6.20135">
        <ele>991.1</ele>
        <time>2020-09-30T13:03:10.000Z</time>
      </trkpt>
      <trkpt lat="44.53259" lon="6.20124">
        <ele>998.4</ele>
        <time>2020-09-30T13:03:05.713Z</time>
      </trkpt>
      <trkpt lat="44.53254" lon="6.20118">
        <ele>997.3</ele>
        <time>2020-09-30T13:02:45.000Z</time>
      </trkpt>
      <trkpt lat="44.53249" lon="6.20121">
        <ele>994.7</ele>
        <time>2020-09-30T13:02:40.005Z</time>
      </trkpt>
      <trkpt lat="44.53242" lon="6.20126">
        <ele>993.9</ele>
        <time>2020-09-30T13:02:37.000Z</time>
      </trkpt>
      <trkpt lat="44.53232" lon="6.20132">
        <ele>993.4</ele>
        <time>2020-09-30T13:02:33.000Z</time>
      </trkpt>
      <trkpt lat="44.53223" lon="6.20134">
        <ele>993.9</ele>
        <time>2020-09-30T13:02:30.000Z</time>
      </trkpt>
      <trkpt lat="44.53214" lon="6.20135">
        <ele>991.9</ele>
        <time>2020-09-30T13:02:26.209Z</time>
      </trkpt>
      <trkpt lat="44.53204" lon="6.20135">
        <ele>992.7</ele>
        <time>2020-09-30T13:02:23.000Z</time>
      </trkpt>
      <trkpt lat="44.53194" lon="6.2014">
        <ele>994.2</ele>
        <time>2020-09-30T13:02:19.000Z</time>
      </trkpt>
      <trkpt lat="44.53188" lon="6.20144">
        <ele>990.4</ele>
        <time>2020-09-30T13:02:16.000Z</time>
      </trkpt>
      <trkpt lat="44.53179" lon="6.20152">
        <ele>984.6</ele>
        <time>2020-09-30T13:02:12.000Z</time>
      </trkpt>
      <trkpt lat="44.53173" lon="6.20163">
        <ele>983.1</ele>
        <time>2020-09-30T13:02:09.000Z</time>
      </trkpt>
      <trkpt lat="44.53166" lon="6.20176">
        <ele>980.8</ele>
        <time>2020-09-30T13:02:05.248Z</time>
      </trkpt>
      <trkpt lat="44.53158" lon="6.20181">
        <ele>975.3</ele>
        <time>2020-09-30T13:02:02.000Z</time>
      </trkpt>
      <trkpt lat="44.53153" lon="6.20172">
        <ele>976.8</ele>
        <time>2020-09-30T13:01:58.000Z</time>
      </trkpt>
      <trkpt lat="44.53151" lon="6.20159">
        <ele>978</ele>
        <time>2020-09-30T13:01:54.000Z</time>
      </trkpt>
      <trkpt lat="44.53148" lon="6.20149">
        <ele>983.4</ele>
        <time>2020-09-30T13:01:51.000Z</time>
      </trkpt>
      <trkpt lat="44.53144" lon="6.20138">
        <ele>981.2</ele>
        <time>2020-09-30T13:01:46.985Z</time>
      </trkpt>
      <trkpt lat="44.53138" lon="6.20128">
        <ele>981.3</ele>
        <time>2020-09-30T13:01:44.000Z</time>
      </trkpt>
      <trkpt lat="44.5313" lon="6.20116">
        <ele>981.4</ele>
        <time>2020-09-30T13:01:40.000Z</time>
      </trkpt>
      <trkpt lat="44.53118" lon="6.20112">
        <ele>978.8</ele>
        <time>2020-09-30T13:01:36.107Z</time>
      </trkpt>
      <trkpt lat="44.53106" lon="6.20116">
        <ele>976.2</ele>
        <time>2020-09-30T13:01:33.000Z</time>
      </trkpt>
      <trkpt lat="44.53102" lon="6.20123">
        <ele>975.2</ele>
        <time>2020-09-30T13:01:30.000Z</time>
      </trkpt>
      <trkpt lat="44.53098" lon="6.20132">
        <ele>973.8</ele>
        <time>2020-09-30T13:01:26.340Z</time>
      </trkpt>
      <trkpt lat="44.53087" lon="6.20136">
        <ele>975.2</ele>
        <time>2020-09-30T13:01:23.000Z</time>
      </trkpt>
      <trkpt lat="44.53083" lon="6.20133">
        <ele>974.6</ele>
        <time>2020-09-30T13:01:19.364Z</time>
      </trkpt>
      <trkpt lat="44.5308" lon="6.20122">
        <ele>979.4</ele>
        <time>2020-09-30T13:01:16.000Z</time>
      </trkpt>
      <trkpt lat="44.53081" lon="6.20111">
        <ele>980.3</ele>
        <time>2020-09-30T13:01:13.000Z</time>
      </trkpt>
      <trkpt lat="44.53086" lon="6.20092">
        <ele>980.9</ele>
        <time>2020-09-30T13:01:09.000Z</time>
      </trkpt>
      <trkpt lat="44.53087" lon="6.20065">
        <ele>978.3</ele>
        <time>2020-09-30T13:01:05.000Z</time>
      </trkpt>
      <trkpt lat="44.53087" lon="6.20041">
        <ele>979.1</ele>
        <time>2020-09-30T13:01:02.000Z</time>
      </trkpt>
      <trkpt lat="44.53089" lon="6.20021">
        <ele>980.4</ele>
        <time>2020-09-30T13:00:59.000Z</time>
      </trkpt>
      <trkpt lat="44.53091" lon="6.19999">
        <ele>975.9</ele>
        <time>2020-09-30T13:00:56.000Z</time>
      </trkpt>
      <trkpt lat="44.5309" lon="6.1997">
        <ele>975.2</ele>
        <time>2020-09-30T13:00:53.000Z</time>
      </trkpt>
      <trkpt lat="44.53094" lon="6.19929">
        <ele>973.3</ele>
        <time>2020-09-30T13:00:49.000Z</time>
      </trkpt>
      <trkpt lat="44.531" lon="6.19896">
        <ele>975.4</ele>
        <time>2020-09-30T13:00:45.000Z</time>
      </trkpt>
      <trkpt lat="44.5311" lon="6.19878">
        <ele>974.3</ele>
        <time>2020-09-30T13:00:42.000Z</time>
      </trkpt>
      <trkpt lat="44.53112" lon="6.19859">
        <ele>978.3</ele>
        <time>2020-09-30T13:00:39.000Z</time>
      </trkpt>
      <trkpt lat="44.53098" lon="6.19834">
        <ele>972.3</ele>
        <time>2020-09-30T13:00:35.000Z</time>
      </trkpt>
      <trkpt lat="44.53081" lon="6.19806">
        <ele>975.8</ele>
        <time>2020-09-30T13:00:31.000Z</time>
      </trkpt>
      <trkpt lat="44.53066" lon="6.19784">
        <ele>976.4</ele>
        <time>2020-09-30T13:00:27.063Z</time>
      </trkpt>
      <trkpt lat="44.53059" lon="6.19765">
        <ele>976.4</ele>
        <time>2020-09-30T13:00:23.584Z</time>
      </trkpt>
      <trkpt lat="44.53056" lon="6.19749">
        <ele>976.1</ele>
        <time>2020-09-30T13:00:21.000Z</time>
      </trkpt>
      <trkpt lat="44.53055" lon="6.19736">
        <ele>977</ele>
        <time>2020-09-30T13:00:18.000Z</time>
      </trkpt>
      <trkpt lat="44.53052" lon="6.19713">
        <ele>978.7</ele>
        <time>2020-09-30T13:00:14.000Z</time>
      </trkpt>
      <trkpt lat="44.53048" lon="6.19691">
        <ele>976.5</ele>
        <time>2020-09-30T13:00:10.000Z</time>
      </trkpt>
      <trkpt lat="44.53045" lon="6.19669">
        <ele>973.3</ele>
        <time>2020-09-30T13:00:06.000Z</time>
      </trkpt>
      <trkpt lat="44.53045" lon="6.19653">
        <ele>972.2</ele>
        <time>2020-09-30T13:00:03.000Z</time>
      </trkpt>
      <trkpt lat="44.53045" lon="6.19633">
        <ele>971.9</ele>
        <time>2020-09-30T12:59:59.000Z</time>
      </trkpt>
      <trkpt lat="44.53045" lon="6.1962">
        <ele>970.3</ele>
        <time>2020-09-30T12:59:56.000Z</time>
      </trkpt>
      <trkpt lat="44.53045" lon="6.19608">
        <ele>969.8</ele>
        <time>2020-09-30T12:59:53.000Z</time>
      </trkpt>
      <trkpt lat="44.53044" lon="6.19593">
        <ele>969.5</ele>
        <time>2020-09-30T12:59:48.970Z</time>
      </trkpt>
      <trkpt lat="44.53044" lon="6.19583">
        <ele>966.8</ele>
        <time>2020-09-30T12:59:46.000Z</time>
      </trkpt>
      <trkpt lat="44.5304" lon="6.19574">
        <ele>966.2</ele>
        <time>2020-09-30T12:59:42.000Z</time>
      </trkpt>
      <trkpt lat="44.53034" lon="6.19566">
        <ele>963.8</ele>
        <time>2020-09-30T12:59:38.000Z</time>
      </trkpt>
      <trkpt lat="44.53025" lon="6.19562">
        <ele>965.6</ele>
        <time>2020-09-30T12:59:34.000Z</time>
      </trkpt>
      <trkpt lat="44.53016" lon="6.19555">
        <ele>965.5</ele>
        <time>2020-09-30T12:59:29.510Z</time>
      </trkpt>
      <trkpt lat="44.5301" lon="6.19551">
        <ele>965.9</ele>
        <time>2020-09-30T12:59:26.000Z</time>
      </trkpt>
      <trkpt lat="44.53003" lon="6.19547">
        <ele>965.1</ele>
        <time>2020-09-30T12:59:23.000Z</time>
      </trkpt>
      <trkpt lat="44.52996" lon="6.19539">
        <ele>962.7</ele>
        <time>2020-09-30T12:59:19.000Z</time>
      </trkpt>
      <trkpt lat="44.52989" lon="6.19533">
        <ele>963.4</ele>
        <time>2020-09-30T12:59:16.000Z</time>
      </trkpt>
      <trkpt lat="44.52981" lon="6.19519">
        <ele>964.5</ele>
        <time>2020-09-30T12:59:13.000Z</time>
      </trkpt>
      <trkpt lat="44.52973" lon="6.19506">
        <ele>966.3</ele>
        <time>2020-09-30T12:59:09.107Z</time>
      </trkpt>
      <trkpt lat="44.52969" lon="6.19492">
        <ele>964.5</ele>
        <time>2020-09-30T12:50:24.000Z</time>
      </trkpt>
      <trkpt lat="44.52969" lon="6.19499">
        <ele>970.2</ele>
        <time>2020-09-30T12:49:31.000Z</time>
      </trkpt>
      <trkpt lat="44.52972" lon="6.19493">
        <ele>967.1</ele>
        <time>2020-09-30T12:45:03.000Z</time>
      </trkpt>
      <trkpt lat="44.52968" lon="6.19488">
        <ele>965.8</ele>
        <time>2020-09-30T12:44:57.000Z</time>
      </trkpt>
      <trkpt lat="44.52964" lon="6.19483">
        <ele>964.8</ele>
        <time>2020-09-30T12:44:54.000Z</time>
      </trkpt>
      <trkpt lat="44.52956" lon="6.19475">
        <ele>964.6</ele>
        <time>2020-09-30T12:44:50.000Z</time>
      </trkpt>
      <trkpt lat="44.52948" lon="6.19467">
        <ele>963.1</ele>
        <time>2020-09-30T12:44:46.000Z</time>
      </trkpt>
      <trkpt lat="44.52942" lon="6.19455">
        <ele>962</ele>
        <time>2020-09-30T12:44:41.514Z</time>
      </trkpt>
      <trkpt lat="44.5294" lon="6.19444">
        <ele>961</ele>
        <time>2020-09-30T12:44:38.000Z</time>
      </trkpt>
      <trkpt lat="44.52938" lon="6.19432">
        <ele>960.1</ele>
        <time>2020-09-30T12:44:34.000Z</time>
      </trkpt>
      <trkpt lat="44.52937" lon="6.19421">
        <ele>959.1</ele>
        <time>2020-09-30T12:44:30.295Z</time>
      </trkpt>
      <trkpt lat="44.52935" lon="6.19409">
        <ele>954.9</ele>
        <time>2020-09-30T12:44:27.000Z</time>
      </trkpt>
      <trkpt lat="44.52933" lon="6.19397">
        <ele>953.5</ele>
        <time>2020-09-30T12:44:22.986Z</time>
      </trkpt>
      <trkpt lat="44.5293" lon="6.19386">
        <ele>953.3</ele>
        <time>2020-09-30T12:44:20.000Z</time>
      </trkpt>
      <trkpt lat="44.52928" lon="6.19375">
        <ele>958</ele>
        <time>2020-09-30T12:44:16.000Z</time>
      </trkpt>
      <trkpt lat="44.52926" lon="6.19364">
        <ele>958.5</ele>
        <time>2020-09-30T12:44:12.000Z</time>
      </trkpt>
      <trkpt lat="44.52922" lon="6.19355">
        <ele>957.3</ele>
        <time>2020-09-30T12:44:09.000Z</time>
      </trkpt>
      <trkpt lat="44.52917" lon="6.19346">
        <ele>952.9</ele>
        <time>2020-09-30T12:44:05.000Z</time>
      </trkpt>
      <trkpt lat="44.52909" lon="6.19336">
        <ele>951.2</ele>
        <time>2020-09-30T12:44:01.000Z</time>
      </trkpt>
      <trkpt lat="44.52903" lon="6.1932">
        <ele>953.6</ele>
        <time>2020-09-30T12:43:57.301Z</time>
      </trkpt>
      <trkpt lat="44.52903" lon="6.19296">
        <ele>955.7</ele>
        <time>2020-09-30T12:43:54.054Z</time>
      </trkpt>
      <trkpt lat="44.52905" lon="6.19266">
        <ele>953.7</ele>
        <time>2020-09-30T12:43:51.000Z</time>
      </trkpt>
      <trkpt lat="44.52912" lon="6.19262">
        <ele>960.8</ele>
        <time>2020-09-30T12:40:49.000Z</time>
      </trkpt>
      <trkpt lat="44.52915" lon="6.19257">
        <ele>952.7</ele>
        <time>2020-09-30T12:36:38.000Z</time>
      </trkpt>
      <trkpt lat="44.52911" lon="6.19256">
        <ele>950.6</ele>
        <time>2020-09-30T12:31:41.576Z</time>
      </trkpt>
      <trkpt lat="44.52916" lon="6.19252">
        <ele>949.4</ele>
        <time>2020-09-30T12:31:39.000Z</time>
      </trkpt>
      <trkpt lat="44.52921" lon="6.19247">
        <ele>949.1</ele>
        <time>2020-09-30T12:31:36.000Z</time>
      </trkpt>
      <trkpt lat="44.52927" lon="6.19241">
        <ele>950.7</ele>
        <time>2020-09-30T12:31:33.000Z</time>
      </trkpt>
      <trkpt lat="44.52936" lon="6.1923">
        <ele>948.5</ele>
        <time>2020-09-30T12:31:29.000Z</time>
      </trkpt>
      <trkpt lat="44.5294" lon="6.19222">
        <ele>950</ele>
        <time>2020-09-30T12:31:26.000Z</time>
      </trkpt>
      <trkpt lat="44.52945" lon="6.19215">
        <ele>949.4</ele>
        <time>2020-09-30T12:31:23.000Z</time>
      </trkpt>
      <trkpt lat="44.52951" lon="6.19207">
        <ele>948.8</ele>
        <time>2020-09-30T12:31:19.289Z</time>
      </trkpt>
      <trkpt lat="44.52958" lon="6.19199">
        <ele>949.8</ele>
        <time>2020-09-30T12:31:15.498Z</time>
      </trkpt>
      <trkpt lat="44.52963" lon="6.19192">
        <ele>951.7</ele>
        <time>2020-09-30T12:31:12.315Z</time>
      </trkpt>
      <trkpt lat="44.5297" lon="6.19183">
        <ele>956.3</ele>
        <time>2020-09-30T12:31:09.000Z</time>
      </trkpt>
      <trkpt lat="44.52975" lon="6.19173">
        <ele>957.8</ele>
        <time>2020-09-30T12:31:06.000Z</time>
      </trkpt>
      <trkpt lat="44.5298" lon="6.19161">
        <ele>957.1</ele>
        <time>2020-09-30T12:31:02.000Z</time>
      </trkpt>
      <trkpt lat="44.52987" lon="6.1915">
        <ele>955.8</ele>
        <time>2020-09-30T12:30:58.000Z</time>
      </trkpt>
      <trkpt lat="44.52994" lon="6.1914">
        <ele>952.7</ele>
        <time>2020-09-30T12:30:53.853Z</time>
      </trkpt>
      <trkpt lat="44.53001" lon="6.19129">
        <ele>947.2</ele>
        <time>2020-09-30T12:30:50.315Z</time>
      </trkpt>
      <trkpt lat="44.53008" lon="6.19121">
        <ele>946.1</ele>
        <time>2020-09-30T12:30:47.000Z</time>
      </trkpt>
      <trkpt lat="44.53013" lon="6.19113">
        <ele>944</ele>
        <time>2020-09-30T12:30:44.000Z</time>
      </trkpt>
      <trkpt lat="44.53019" lon="6.19103">
        <ele>941</ele>
        <time>2020-09-30T12:30:40.000Z</time>
      </trkpt>
      <trkpt lat="44.53024" lon="6.19094">
        <ele>941.2</ele>
        <time>2020-09-30T12:30:37.000Z</time>
      </trkpt>
      <trkpt lat="44.5303" lon="6.19082">
        <ele>939</ele>
        <time>2020-09-30T12:30:33.000Z</time>
      </trkpt>
      <trkpt lat="44.53034" lon="6.19072">
        <ele>938.4</ele>
        <time>2020-09-30T12:30:28.728Z</time>
      </trkpt>
      <trkpt lat="44.5304" lon="6.19063">
        <ele>931</ele>
        <time>2020-09-30T12:30:26.000Z</time>
      </trkpt>
      <trkpt lat="44.53045" lon="6.19051">
        <ele>929.5</ele>
        <time>2020-09-30T12:30:22.252Z</time>
      </trkpt>
      <trkpt lat="44.53049" lon="6.1904">
        <ele>931.3</ele>
        <time>2020-09-30T12:30:19.000Z</time>
      </trkpt>
      <trkpt lat="44.53053" lon="6.1903">
        <ele>930.6</ele>
        <time>2020-09-30T12:30:15.268Z</time>
      </trkpt>
      <trkpt lat="44.53058" lon="6.19019">
        <ele>929.4</ele>
        <time>2020-09-30T12:30:12.016Z</time>
      </trkpt>
      <trkpt lat="44.53063" lon="6.19006">
        <ele>931.7</ele>
        <time>2020-09-30T12:30:08.279Z</time>
      </trkpt>
      <trkpt lat="44.53069" lon="6.1899">
        <ele>928.8</ele>
        <time>2020-09-30T12:30:05.000Z</time>
      </trkpt>
      <trkpt lat="44.53072" lon="6.18979">
        <ele>928.8</ele>
        <time>2020-09-30T12:30:01.457Z</time>
      </trkpt>
      <trkpt lat="44.53077" lon="6.18968">
        <ele>928.5</ele>
        <time>2020-09-30T12:29:58.215Z</time>
      </trkpt>
      <trkpt lat="44.53081" lon="6.18955">
        <ele>925.1</ele>
        <time>2020-09-30T12:29:55.000Z</time>
      </trkpt>
      <trkpt lat="44.53086" lon="6.18941">
        <ele>921</ele>
        <time>2020-09-30T12:29:51.000Z</time>
      </trkpt>
      <trkpt lat="44.53091" lon="6.18929">
        <ele>918.9</ele>
        <time>2020-09-30T12:29:47.000Z</time>
      </trkpt>
      <trkpt lat="44.53096" lon="6.18916">
        <ele>919</ele>
        <time>2020-09-30T12:29:43.000Z</time>
      </trkpt>
      <trkpt lat="44.53098" lon="6.18902">
        <ele>915.5</ele>
        <time>2020-09-30T12:29:39.000Z</time>
      </trkpt>
      <trkpt lat="44.53099" lon="6.18889">
        <ele>912.4</ele>
        <time>2020-09-30T12:29:36.000Z</time>
      </trkpt>
      <trkpt lat="44.53101" lon="6.18871">
        <ele>904.5</ele>
        <time>2020-09-30T12:29:31.476Z</time>
      </trkpt>
      <trkpt lat="44.5311" lon="6.18866">
        <ele>904.6</ele>
        <time>2020-09-30T12:29:29.000Z</time>
      </trkpt>
      <trkpt lat="44.53117" lon="6.18875">
        <ele>902.9</ele>
        <time>2020-09-30T12:29:26.000Z</time>
      </trkpt>
      <trkpt lat="44.53118" lon="6.18892">
        <ele>902.6</ele>
        <time>2020-09-30T12:29:21.971Z</time>
      </trkpt>
      <trkpt lat="44.53117" lon="6.18908">
        <ele>902.1</ele>
        <time>2020-09-30T12:29:18.614Z</time>
      </trkpt>
      <trkpt lat="44.53114" lon="6.18923">
        <ele>900.6</ele>
        <time>2020-09-30T12:29:16.000Z</time>
      </trkpt>
      <trkpt lat="44.53111" lon="6.1894">
        <ele>902.4</ele>
        <time>2020-09-30T12:29:12.075Z</time>
      </trkpt>
      <trkpt lat="44.5311" lon="6.18957">
        <ele>902.8</ele>
        <time>2020-09-30T12:29:09.000Z</time>
      </trkpt>
      <trkpt lat="44.5311" lon="6.1897">
        <ele>903.7</ele>
        <time>2020-09-30T12:29:06.000Z</time>
      </trkpt>
      <trkpt lat="44.53113" lon="6.18986">
        <ele>903.1</ele>
        <time>2020-09-30T12:29:01.639Z</time>
      </trkpt>
      <trkpt lat="44.53116" lon="6.18999">
        <ele>898.1</ele>
        <time>2020-09-30T12:28:58.190Z</time>
      </trkpt>
      <trkpt lat="44.53119" lon="6.19012">
        <ele>899.2</ele>
        <time>2020-09-30T12:28:55.000Z</time>
      </trkpt>
      <trkpt lat="44.53117" lon="6.19029">
        <ele>900.6</ele>
        <time>2020-09-30T12:28:51.000Z</time>
      </trkpt>
      <trkpt lat="44.53117" lon="6.19046">
        <ele>897</ele>
        <time>2020-09-30T12:28:47.000Z</time>
      </trkpt>
      <trkpt lat="44.53124" lon="6.19052">
        <ele>904.8</ele>
        <time>2020-09-30T12:28:43.000Z</time>
      </trkpt>
      <trkpt lat="44.53129" lon="6.19043">
        <ele>903.2</ele>
        <time>2020-09-30T12:28:38.700Z</time>
      </trkpt>
      <trkpt lat="44.53126" lon="6.19033">
        <ele>902.3</ele>
        <time>2020-09-30T12:28:36.000Z</time>
      </trkpt>
      <trkpt lat="44.53127" lon="6.19022">
        <ele>901.8</ele>
        <time>2020-09-30T12:28:33.000Z</time>
      </trkpt>
      <trkpt lat="44.53132" lon="6.18999">
        <ele>900.3</ele>
        <time>2020-09-30T12:28:28.711Z</time>
      </trkpt>
      <trkpt lat="44.53135" lon="6.18983">
        <ele>898.7</ele>
        <time>2020-09-30T12:28:26.000Z</time>
      </trkpt>
      <trkpt lat="44.53137" lon="6.18966">
        <ele>893.5</ele>
        <time>2020-09-30T12:28:22.000Z</time>
      </trkpt>
      <trkpt lat="44.5314" lon="6.18941">
        <ele>889.6</ele>
        <time>2020-09-30T12:28:18.000Z</time>
      </trkpt>
      <trkpt lat="44.53144" lon="6.18928">
        <ele>888.9</ele>
        <time>2020-09-30T12:28:15.000Z</time>
      </trkpt>
      <trkpt lat="44.53148" lon="6.18919">
        <ele>887.8</ele>
        <time>2020-09-30T12:28:11.000Z</time>
      </trkpt>
      <trkpt lat="44.53152" lon="6.18914">
        <ele>883.8</ele>
        <time>2020-09-30T12:28:07.109Z</time>
      </trkpt>
      <trkpt lat="44.53156" lon="6.18907">
        <ele>885.4</ele>
        <time>2020-09-30T12:28:04.000Z</time>
      </trkpt>
      <trkpt lat="44.5316" lon="6.18896">
        <ele>885.8</ele>
        <time>2020-09-30T12:27:59.834Z</time>
      </trkpt>
      <trkpt lat="44.5316" lon="6.18884">
        <ele>884.4</ele>
        <time>2020-09-30T12:27:57.000Z</time>
      </trkpt>
      <trkpt lat="44.53159" lon="6.18873">
        <ele>880.7</ele>
        <time>2020-09-30T12:27:53.308Z</time>
      </trkpt>
      <trkpt lat="44.53156" lon="6.18858">
        <ele>882.5</ele>
        <time>2020-09-30T12:27:50.000Z</time>
      </trkpt>
      <trkpt lat="44.53154" lon="6.18843">
        <ele>881</ele>
        <time>2020-09-30T12:27:46.000Z</time>
      </trkpt>
      <trkpt lat="44.53153" lon="6.18833">
        <ele>880.8</ele>
        <time>2020-09-30T12:27:43.000Z</time>
      </trkpt>
      <trkpt lat="44.53151" lon="6.18822">
        <ele>881.2</ele>
        <time>2020-09-30T12:27:40.000Z</time>
      </trkpt>
      <trkpt lat="44.53149" lon="6.18811">
        <ele>874.1</ele>
        <time>2020-09-30T12:27:37.000Z</time>
      </trkpt>
      <trkpt lat="44.53143" lon="6.18802">
        <ele>870.7</ele>
        <time>2020-09-30T12:27:33.456Z</time>
      </trkpt>
      <trkpt lat="44.53136" lon="6.18791">
        <ele>870.9</ele>
        <time>2020-09-30T12:27:30.031Z</time>
      </trkpt>
      <trkpt lat="44.53129" lon="6.18778">
        <ele>867.3</ele>
        <time>2020-09-30T12:27:26.174Z</time>
      </trkpt>
      <trkpt lat="44.53124" lon="6.18763">
        <ele>864.3</ele>
        <time>2020-09-30T12:27:22.513Z</time>
      </trkpt>
      <trkpt lat="44.53121" lon="6.18748">
        <ele>865.5</ele>
        <time>2020-09-30T12:27:19.017Z</time>
      </trkpt>
      <trkpt lat="44.5312" lon="6.18734">
        <ele>864.5</ele>
        <time>2020-09-30T12:27:15.432Z</time>
      </trkpt>
      <trkpt lat="44.53117" lon="6.18723">
        <ele>862.2</ele>
        <time>2020-09-30T12:27:12.159Z</time>
      </trkpt>
      <trkpt lat="44.53111" lon="6.18712">
        <ele>862.6</ele>
        <time>2020-09-30T12:27:08.316Z</time>
      </trkpt>
      <trkpt lat="44.53104" lon="6.18702">
        <ele>862.4</ele>
        <time>2020-09-30T12:27:05.000Z</time>
      </trkpt>
      <trkpt lat="44.53102" lon="6.18689">
        <ele>866</ele>
        <time>2020-09-30T12:27:01.074Z</time>
      </trkpt>
      <trkpt lat="44.53098" lon="6.18678">
        <ele>864</ele>
        <time>2020-09-30T12:26:58.055Z</time>
      </trkpt>
      <trkpt lat="44.53094" lon="6.18665">
        <ele>865.6</ele>
        <time>2020-09-30T12:26:55.000Z</time>
      </trkpt>
      <trkpt lat="44.53089" lon="6.18656">
        <ele>867.9</ele>
        <time>2020-09-30T12:26:52.000Z</time>
      </trkpt>
      <trkpt lat="44.53084" lon="6.18644">
        <ele>866.1</ele>
        <time>2020-09-30T12:26:48.249Z</time>
      </trkpt>
      <trkpt lat="44.53078" lon="6.1863">
        <ele>863.9</ele>
        <time>2020-09-30T12:26:45.000Z</time>
      </trkpt>
      <trkpt lat="44.53074" lon="6.18617">
        <ele>861.5</ele>
        <time>2020-09-30T12:26:41.333Z</time>
      </trkpt>
      <trkpt lat="44.53066" lon="6.18606">
        <ele>861.7</ele>
        <time>2020-09-30T12:26:37.712Z</time>
      </trkpt>
      <trkpt lat="44.53059" lon="6.18602">
        <ele>860.7</ele>
        <time>2020-09-30T12:26:35.000Z</time>
      </trkpt>
      <trkpt lat="44.53053" lon="6.18596">
        <ele>859.6</ele>
        <time>2020-09-30T12:26:31.420Z</time>
      </trkpt>
      <trkpt lat="44.53046" lon="6.1859">
        <ele>860.2</ele>
        <time>2020-09-30T12:26:27.916Z</time>
      </trkpt>
      <trkpt lat="44.53034" lon="6.18583">
        <ele>860.9</ele>
        <time>2020-09-30T12:26:24.501Z</time>
      </trkpt>
      <trkpt lat="44.53023" lon="6.18576">
        <ele>859.9</ele>
        <time>2020-09-30T12:26:21.077Z</time>
      </trkpt>
      <trkpt lat="44.53015" lon="6.18566">
        <ele>859.1</ele>
        <time>2020-09-30T12:26:17.952Z</time>
      </trkpt>
      <trkpt lat="44.53009" lon="6.18551">
        <ele>859.9</ele>
        <time>2020-09-30T12:26:15.000Z</time>
      </trkpt>
      <trkpt lat="44.53016" lon="6.18542">
        <ele>854.7</ele>
        <time>2020-09-30T12:26:11.012Z</time>
      </trkpt>
      <trkpt lat="44.53024" lon="6.18552">
        <ele>855.3</ele>
        <time>2020-09-30T12:26:08.000Z</time>
      </trkpt>
      <trkpt lat="44.53031" lon="6.18561">
        <ele>856.9</ele>
        <time>2020-09-30T12:26:03.937Z</time>
      </trkpt>
      <trkpt lat="44.53041" lon="6.18563">
        <ele>854.7</ele>
        <time>2020-09-30T12:26:01.000Z</time>
      </trkpt>
      <trkpt lat="44.53051" lon="6.18563">
        <ele>852.6</ele>
        <time>2020-09-30T12:25:57.194Z</time>
      </trkpt>
      <trkpt lat="44.53061" lon="6.18564">
        <ele>851.9</ele>
        <time>2020-09-30T12:25:54.000Z</time>
      </trkpt>
      <trkpt lat="44.53072" lon="6.18571">
        <ele>851.7</ele>
        <time>2020-09-30T12:25:50.000Z</time>
      </trkpt>
      <trkpt lat="44.53083" lon="6.18579">
        <ele>846.4</ele>
        <time>2020-09-30T12:25:46.000Z</time>
      </trkpt>
      <trkpt lat="44.53089" lon="6.18592">
        <ele>844</ele>
        <time>2020-09-30T12:25:42.000Z</time>
      </trkpt>
      <trkpt lat="44.53093" lon="6.18601">
        <ele>844.6</ele>
        <time>2020-09-30T12:25:39.000Z</time>
      </trkpt>
      <trkpt lat="44.531" lon="6.18607">
        <ele>845.1</ele>
        <time>2020-09-30T12:25:36.000Z</time>
      </trkpt>
      <trkpt lat="44.53111" lon="6.18615">
        <ele>841.3</ele>
        <time>2020-09-30T12:25:32.000Z</time>
      </trkpt>
      <trkpt lat="44.5312" lon="6.1862">
        <ele>840</ele>
        <time>2020-09-30T12:25:29.000Z</time>
      </trkpt>
      <trkpt lat="44.53128" lon="6.18624">
        <ele>836.8</ele>
        <time>2020-09-30T12:25:25.449Z</time>
      </trkpt>
      <trkpt lat="44.53138" lon="6.18634">
        <ele>835.6</ele>
        <time>2020-09-30T12:25:22.000Z</time>
      </trkpt>
      <trkpt lat="44.53146" lon="6.18641">
        <ele>836.3</ele>
        <time>2020-09-30T12:25:19.000Z</time>
      </trkpt>
      <trkpt lat="44.53156" lon="6.18649">
        <ele>833.9</ele>
        <time>2020-09-30T12:25:15.208Z</time>
      </trkpt>
      <trkpt lat="44.53167" lon="6.18657">
        <ele>832.5</ele>
        <time>2020-09-30T12:25:12.000Z</time>
      </trkpt>
      <trkpt lat="44.53176" lon="6.18662">
        <ele>831.4</ele>
        <time>2020-09-30T12:25:08.072Z</time>
      </trkpt>
      <trkpt lat="44.53188" lon="6.18667">
        <ele>828.1</ele>
        <time>2020-09-30T12:25:05.000Z</time>
      </trkpt>
      <trkpt lat="44.53196" lon="6.18674">
        <ele>827.7</ele>
        <time>2020-09-30T12:25:02.000Z</time>
      </trkpt>
      <trkpt lat="44.53202" lon="6.18683">
        <ele>826.6</ele>
        <time>2020-09-30T12:24:58.346Z</time>
      </trkpt>
      <trkpt lat="44.53209" lon="6.18695">
        <ele>811.8</ele>
        <time>2020-09-30T12:24:55.151Z</time>
      </trkpt>
      <trkpt lat="44.53214" lon="6.18711">
        <ele>811.8</ele>
        <time>2020-09-30T12:24:52.000Z</time>
      </trkpt>
      <trkpt lat="44.5322" lon="6.18723">
        <ele>811.8</ele>
        <time>2020-09-30T12:24:49.000Z</time>
      </trkpt>
      <trkpt lat="44.53225" lon="6.18736">
        <ele>811.8</ele>
        <time>2020-09-30T12:24:45.396Z</time>
      </trkpt>
      <trkpt lat="44.53232" lon="6.18751">
        <ele>811.8</ele>
        <time>2020-09-30T12:24:41.460Z</time>
      </trkpt>
      <trkpt lat="44.5324" lon="6.18762">
        <ele>811.8</ele>
        <time>2020-09-30T12:24:38.270Z</time>
      </trkpt>
      <trkpt lat="44.53254" lon="6.18771">
        <ele>811.8</ele>
        <time>2020-09-30T12:24:34.414Z</time>
      </trkpt>
      <trkpt lat="44.53265" lon="6.18768">
        <ele>811.8</ele>
        <time>2020-09-30T12:24:31.118Z</time>
      </trkpt>
      <trkpt lat="44.53277" lon="6.18761">
        <ele>811.8</ele>
        <time>2020-09-30T12:24:27.293Z</time>
      </trkpt>
      <trkpt lat="44.53287" lon="6.18759">
        <ele>811.8</ele>
        <time>2020-09-30T12:24:24.238Z</time>
      </trkpt>
      <trkpt lat="44.53296" lon="6.1876">
        <ele>811.8</ele>
        <time>2020-09-30T12:24:20.730Z</time>
      </trkpt>
      <trkpt lat="44.53304" lon="6.18764">
        <ele>811.8</ele>
        <time>2020-09-30T12:24:17.408Z</time>
      </trkpt>
      <trkpt lat="44.53313" lon="6.18777">
        <ele>811.8</ele>
        <time>2020-09-30T12:24:13.678Z</time>
      </trkpt>
      <trkpt lat="44.53321" lon="6.18788">
        <ele>811.8</ele>
        <time>2020-09-30T12:24:10.415Z</time>
      </trkpt>
      <trkpt lat="44.53329" lon="6.18798">
        <ele>811.8</ele>
        <time>2020-09-30T12:24:07.278Z</time>
      </trkpt>
      <trkpt lat="44.53342" lon="6.18801">
        <ele>811.8</ele>
        <time>2020-09-30T12:24:04.000Z</time>
      </trkpt>
      <trkpt lat="44.53354" lon="6.18802">
        <ele>811.8</ele>
        <time>2020-09-30T12:24:01.000Z</time>
      </trkpt>
      <trkpt lat="44.53366" lon="6.18806">
        <ele>811.8</ele>
        <time>2020-09-30T12:23:57.253Z</time>
      </trkpt>
      <trkpt lat="44.53382" lon="6.18806">
        <ele>813.3</ele>
        <time>2020-09-30T12:23:54.000Z</time>
      </trkpt>
      <trkpt lat="44.534" lon="6.1881">
        <ele>813.3</ele>
        <time>2020-09-30T12:23:50.000Z</time>
      </trkpt>
      <trkpt lat="44.53421" lon="6.18819">
        <ele>812.2</ele>
        <time>2020-09-30T12:23:46.399Z</time>
      </trkpt>
      <trkpt lat="44.53424" lon="6.18826">
        <ele>812.2</ele>
        <time>2020-09-30T12:23:43.193Z</time>
      </trkpt>
      <trkpt lat="44.53426" lon="6.18843">
        <ele>806</ele>
        <time>2020-09-30T12:23:40.000Z</time>
      </trkpt>
      <trkpt lat="44.53435" lon="6.18877">
        <ele>806.6</ele>
        <time>2020-09-30T12:23:36.000Z</time>
      </trkpt>
      <trkpt lat="44.53441" lon="6.18894">
        <ele>807</ele>
        <time>2020-09-30T12:23:33.000Z</time>
      </trkpt>
      <trkpt lat="44.5345" lon="6.18908">
        <ele>806.6</ele>
        <time>2020-09-30T12:23:29.000Z</time>
      </trkpt>
      <trkpt lat="44.53461" lon="6.18924">
        <ele>806.3</ele>
        <time>2020-09-30T12:23:26.000Z</time>
      </trkpt>
      <trkpt lat="44.53467" lon="6.18943">
        <ele>807.8</ele>
        <time>2020-09-30T12:23:23.000Z</time>
      </trkpt>
      <trkpt lat="44.5347" lon="6.18968">
        <ele>805.7</ele>
        <time>2020-09-30T12:23:18.547Z</time>
      </trkpt>
      <trkpt lat="44.53474" lon="6.18987">
        <ele>804.1</ele>
        <time>2020-09-30T12:23:16.000Z</time>
      </trkpt>
      <trkpt lat="44.5348" lon="6.19009">
        <ele>805.6</ele>
        <time>2020-09-30T12:23:13.000Z</time>
      </trkpt>
      <trkpt lat="44.53489" lon="6.19028">
        <ele>808.6</ele>
        <time>2020-09-30T12:23:09.000Z</time>
      </trkpt>
      <trkpt lat="44.53497" lon="6.19057">
        <ele>809.6</ele>
        <time>2020-09-30T12:23:05.000Z</time>
      </trkpt>
      <trkpt lat="44.53502" lon="6.1908">
        <ele>810.2</ele>
        <time>2020-09-30T12:23:02.000Z</time>
      </trkpt>
      <trkpt lat="44.53506" lon="6.19114">
        <ele>807.9</ele>
        <time>2020-09-30T12:22:58.000Z</time>
      </trkpt>
      <trkpt lat="44.53509" lon="6.19142">
        <ele>810.7</ele>
        <time>2020-09-30T12:22:55.000Z</time>
      </trkpt>
      <trkpt lat="44.53509" lon="6.19165">
        <ele>807.9</ele>
        <time>2020-09-30T12:22:52.000Z</time>
      </trkpt>
      <trkpt lat="44.53508" lon="6.19188">
        <ele>809.9</ele>
        <time>2020-09-30T12:22:49.000Z</time>
      </trkpt>
      <trkpt lat="44.53506" lon="6.19233">
        <ele>812.2</ele>
        <time>2020-09-30T12:22:45.000Z</time>
      </trkpt>
      <trkpt lat="44.53503" lon="6.19254">
        <ele>812.7</ele>
        <time>2020-09-30T12:22:40.559Z</time>
      </trkpt>
      <trkpt lat="44.5351" lon="6.19258">
        <ele>810.7</ele>
        <time>2020-09-30T12:22:38.000Z</time>
      </trkpt>
      <trkpt lat="44.53512" lon="6.19277">
        <ele>809.1</ele>
        <time>2020-09-30T12:22:35.000Z</time>
      </trkpt>
      <trkpt lat="44.53513" lon="6.193">
        <ele>805.3</ele>
        <time>2020-09-30T12:22:31.000Z</time>
      </trkpt>
      <trkpt lat="44.53519" lon="6.19326">
        <ele>802</ele>
        <time>2020-09-30T12:22:26.573Z</time>
      </trkpt>
      <trkpt lat="44.53528" lon="6.19344">
        <ele>804.1</ele>
        <time>2020-09-30T12:22:24.000Z</time>
      </trkpt>
      <trkpt lat="44.53538" lon="6.19359">
        <ele>805.1</ele>
        <time>2020-09-30T12:22:21.000Z</time>
      </trkpt>
      <trkpt lat="44.5355" lon="6.19373">
        <ele>803.5</ele>
        <time>2020-09-30T12:22:18.000Z</time>
      </trkpt>
      <trkpt lat="44.53566" lon="6.19392">
        <ele>806.7</ele>
        <time>2020-09-30T12:22:14.000Z</time>
      </trkpt>
      <trkpt lat="44.53574" lon="6.19407">
        <ele>806.6</ele>
        <time>2020-09-30T12:22:11.000Z</time>
      </trkpt>
      <trkpt lat="44.53586" lon="6.1943">
        <ele>806</ele>
        <time>2020-09-30T12:22:07.000Z</time>
      </trkpt>
      <trkpt lat="44.53596" lon="6.19456">
        <ele>805.5</ele>
        <time>2020-09-30T12:22:03.000Z</time>
      </trkpt>
      <trkpt lat="44.53607" lon="6.19479">
        <ele>804.1</ele>
        <time>2020-09-30T12:21:59.000Z</time>
      </trkpt>
      <trkpt lat="44.53616" lon="6.19492">
        <ele>803.8</ele>
        <time>2020-09-30T12:21:55.000Z</time>
      </trkpt>
      <trkpt lat="44.53628" lon="6.19513">
        <ele>805.3</ele>
        <time>2020-09-30T12:21:51.000Z</time>
      </trkpt>
      <trkpt lat="44.53639" lon="6.19537">
        <ele>804</ele>
        <time>2020-09-30T12:21:47.000Z</time>
      </trkpt>
      <trkpt lat="44.53643" lon="6.1956">
        <ele>804.9</ele>
        <time>2020-09-30T12:21:44.000Z</time>
      </trkpt>
      <trkpt lat="44.53654" lon="6.19592">
        <ele>807.2</ele>
        <time>2020-09-30T12:21:40.000Z</time>
      </trkpt>
      <trkpt lat="44.53675" lon="6.19627">
        <ele>808.1</ele>
        <time>2020-09-30T12:21:36.000Z</time>
      </trkpt>
      <trkpt lat="44.53688" lon="6.19655">
        <ele>808.6</ele>
        <time>2020-09-30T12:21:33.000Z</time>
      </trkpt>
      <trkpt lat="44.537" lon="6.19696">
        <ele>808.4</ele>
        <time>2020-09-30T12:21:29.000Z</time>
      </trkpt>
      <trkpt lat="44.53711" lon="6.19738">
        <ele>813.3</ele>
        <time>2020-09-30T12:21:25.000Z</time>
      </trkpt>
      <trkpt lat="44.53718" lon="6.19767">
        <ele>815.6</ele>
        <time>2020-09-30T12:21:22.000Z</time>
      </trkpt>
      <trkpt lat="44.53723" lon="6.19794">
        <ele>816.8</ele>
        <time>2020-09-30T12:21:19.000Z</time>
      </trkpt>
      <trkpt lat="44.53728" lon="6.19822">
        <ele>817.2</ele>
        <time>2020-09-30T12:21:16.000Z</time>
      </trkpt>
      <trkpt lat="44.53736" lon="6.1986">
        <ele>818</ele>
        <time>2020-09-30T12:21:12.000Z</time>
      </trkpt>
      <trkpt lat="44.53743" lon="6.19898">
        <ele>821.4</ele>
        <time>2020-09-30T12:21:08.000Z</time>
      </trkpt>
      <trkpt lat="44.53748" lon="6.19927">
        <ele>815.4</ele>
        <time>2020-09-30T12:21:05.000Z</time>
      </trkpt>
      <trkpt lat="44.53755" lon="6.19948">
        <ele>816.8</ele>
        <time>2020-09-30T12:21:02.000Z</time>
      </trkpt>
      <trkpt lat="44.53765" lon="6.19975">
        <ele>818.4</ele>
        <time>2020-09-30T12:20:57.536Z</time>
      </trkpt>
      <trkpt lat="44.53771" lon="6.19991">
        <ele>818.4</ele>
        <time>2020-09-30T12:20:55.000Z</time>
      </trkpt>
      <trkpt lat="44.53775" lon="6.19998">
        <ele>821.9</ele>
        <time>2020-09-30T12:20:52.000Z</time>
      </trkpt>
      <trkpt lat="44.53788" lon="6.20029">
        <ele>814.9</ele>
        <time>2020-09-30T12:20:48.000Z</time>
      </trkpt>
      <trkpt lat="44.53795" lon="6.20063">
        <ele>816.7</ele>
        <time>2020-09-30T12:20:44.000Z</time>
      </trkpt>
      <trkpt lat="44.538" lon="6.20098">
        <ele>818.2</ele>
        <time>2020-09-30T12:20:40.000Z</time>
      </trkpt>
      <trkpt lat="44.53803" lon="6.20127">
        <ele>819.1</ele>
        <time>2020-09-30T12:20:37.000Z</time>
      </trkpt>
      <trkpt lat="44.53809" lon="6.20166">
        <ele>821</ele>
        <time>2020-09-30T12:20:33.000Z</time>
      </trkpt>
      <trkpt lat="44.53824" lon="6.202">
        <ele>821.9</ele>
        <time>2020-09-30T12:20:30.000Z</time>
      </trkpt>
      <trkpt lat="44.53835" lon="6.20211">
        <ele>824.3</ele>
        <time>2020-09-30T12:20:26.000Z</time>
      </trkpt>
      <trkpt lat="44.53842" lon="6.20221">
        <ele>824</ele>
        <time>2020-09-30T12:20:23.000Z</time>
      </trkpt>
      <trkpt lat="44.53847" lon="6.20238">
        <ele>823.5</ele>
        <time>2020-09-30T12:20:20.000Z</time>
      </trkpt>
      <trkpt lat="44.53854" lon="6.20251">
        <ele>821.8</ele>
        <time>2020-09-30T12:20:17.000Z</time>
      </trkpt>
      <trkpt lat="44.53863" lon="6.20267">
        <ele>822.1</ele>
        <time>2020-09-30T12:20:13.000Z</time>
      </trkpt>
      <trkpt lat="44.53879" lon="6.20298">
        <ele>823.3</ele>
        <time>2020-09-30T12:20:09.000Z</time>
      </trkpt>
      <trkpt lat="44.53889" lon="6.20315">
        <ele>826.4</ele>
        <time>2020-09-30T12:20:07.000Z</time>
      </trkpt>
      <trkpt lat="44.53899" lon="6.20333">
        <ele>828.4</ele>
        <time>2020-09-30T12:20:05.000Z</time>
      </trkpt>
      <trkpt lat="44.53902" lon="6.20343">
        <ele>828.9</ele>
        <time>2020-09-30T12:20:04.000Z</time>
      </trkpt>
      <trkpt lat="44.53906" lon="6.20361">
        <ele>829.6</ele>
        <time>2020-09-30T12:20:02.000Z</time>
      </trkpt>
      <trkpt lat="44.53907" lon="6.20372">
        <ele>829</ele>
        <time>2020-09-30T12:20:01.000Z</time>
      </trkpt>
      <trkpt lat="44.5391" lon="6.20382">
        <ele>829.4</ele>
        <time>2020-09-30T12:20:00.000Z</time>
      </trkpt>
      <trkpt lat="44.53914" lon="6.20389">
        <ele>828</ele>
        <time>2020-09-30T12:19:59.000Z</time>
      </trkpt>
      <trkpt lat="44.53924" lon="6.20398">
        <ele>831</ele>
        <time>2020-09-30T12:19:57.000Z</time>
      </trkpt>
      <trkpt lat="44.53929" lon="6.20402">
        <ele>833.4</ele>
        <time>2020-09-30T12:19:56.000Z</time>
      </trkpt>
      <trkpt lat="44.53929" lon="6.20402">
        <ele>833.4</ele>
        <time>2020-09-30T12:19:56.000Z</time>
      </trkpt>
      <trkpt lat="44.53929" lon="6.20402">
        <ele>833.4</ele>
        <time>2020-09-30T12:19:56.000Z</time>
      </trkpt>
    </trkseg>
  </trk>
</gpx>